     2              OBSERVATION DATA    GPS                 RINEX VERSION / TYPE
teqc 1997Sep10 19971031 21:09:57UTC                         PGM / RUN BY / DATE
                                                            COMMENT
Original Marker Name: unknown                               COMMENT
Campaign Name: NGS Imperial Valley 1990                     COMMENT
4-Character Station Name: O227                              COMMENT
6-Character Antenna Code: TI4100                            COMMENT
Vertical Measurement Point: PAE                             COMMENT
Vertical Offset to Rinex Ref. Point: 0.0000                 COMMENT
Radial Measurement Point: RRP                               COMMENT
Radial Offset to Rinex Ref. Point: 0.0000                   COMMENT
Antenna Height from Field Measurement: 1.0250 m             COMMENT
Original XYZ: -2341305.6493 -4839487.1681 3420579.8115      COMMENT
New XYZ position is based on association with SCEC monument COMMENT
E1C8U9D8+0011. Position of that monument is believed to be  COMMENT
valid to within 1 m horizontally; vertical accuracy         COMMENT
should be no worse than 3-times this value.                 COMMENT
                                                            COMMENT
Revised Rinex header created by UCSD GPS archive for        COMMENT
GSAC on 10-Apr-1999 (1999:100) 04:29:19 GMT                 COMMENT
For assistance contact dagnew@ucsd.edu or hjohnson@ucsd.edu COMMENT
                                                            COMMENT
OFFSET 227 1934                                             MARKER NAME
unknown NATIONAL GEODETIC SURVEY                            OBSERVER / AGENCY
122 TI 4100 1.9                                             REC # / TYPE / VERS
4102 TI 4100                                                ANT # / TYPE
 -2341306.0000 -4839484.0000  3420578.0000                  APPROX POSITION XYZ
        1.0250        0.0000        0.0000                  ANTENNA: DELTA H/E/N
     1     1     0                                          WAVELENGTH FACT L1/2
     4    P1    P2    L1    L2                              # / TYPES OF OBSERV
     0                                                      INTERVAL
  1990     2    24     4    34   29.000000                  TIME OF FIRST OBS
  1990     2    24     8    46   44.000000                  TIME OF LAST OBS
     0                                                      # OF SATELLITES
                                                            END OF HEADER
 90  2 24  4 34 29.0800000  0  4G 6G 9G11G13
  20608107.857    20608109.674      805204.451 9   -920942.340 8
  22213027.517    22213030.795      514307.942 9   -961402.767 8
  20943821.055    20943824.061      727628.373 9  -1008807.520 8
  23877204.853    23877211.714      371137.393 9  -1092849.130 7
 90  2 24  4 34 44.0800000  0  4G 6G 9G11G13
  20605463.350    20605465.174      791311.023 9   -931768.396 9
  22205110.978    22205113.182      472699.406 8   -993824.956 9
  20939819.289    20939822.595      706600.378 9  -1025192.943 8
  23866732.141    23866740.408      316109.631 9  -1135727.723 6
 90  2 24  4 34 59.0800000  0  4G 6G 9G11G13
  20602839.512    20602841.634      777518.074 9   -942516.125 8
  22197200.571    22197203.633      431132.221 9  -1026214.934 9
  20935842.192    20935846.299      685704.486 8  -1041475.450 8
  23856272.719    23856278.310      261135.158 9  -1178564.904 6
 90  2 24  4 35 14.0800000  0  4G 6G 9G11G13
  20600232.781    20600235.875      763826.096 9   -953185.198 9
  22189299.336    22189301.710      389606.470 9  -1058572.628 8
  20931892.282    20931894.815      664940.830 8  -1057654.894 8
  23845822.487    23845829.626      206214.188 9  -1221360.322 8
 90  2 24  4 35 29.0800000  0  4G 6G 9G11G13
  20597646.838    20597649.617      750235.246 9   -963775.462 9
  22181404.224    22181407.488      348122.594 9  -1090897.684 8
  20927965.296    20927968.831      644309.413 9  -1073731.306 8
  23835381.423    23835387.235      151347.309 9  -1264113.568 8
 90  2 24  4 35 44.0800000  0  4G 6G 9G11G13
  20595080.381    20595082.361      736745.841 9   -974286.680 9
  22173517.942    22173519.895      306680.802 9  -1123189.952 9
  20924064.180    20924067.956      623810.251 9  -1089704.666 8
  23824949.096    23824957.085       96534.523 9  -1306824.696 8
 90  2 24  4 35 59.0800000  0  4G 6G 9G11G13
  20592532.278    20592535.134      723358.109 9   -984718.665 8
  22165639.272    22165642.249      265281.546 9  -1155449.093 8
  20920189.136    20920192.497      603443.435 8  -1105574.882 7
  23814530.558    23814536.195       41776.154 9  -1349493.458 6
 90  2 24  4 36 14.0800000  0  4G 6G 9G11G13
  20590004.233    20590006.424      710072.346 9   -995071.216 9
  22157769.953    22157773.872      223924.981 8  -1187674.949 9
  20916338.215    20916342.165      583209.059 9  -1121341.910 8
  23804118.493    23804125.631      -12927.158 9  -1392119.246 8
 90  2 24  4 36 29.0800000  0  4G 6G 9G11G13
  20587495.425    20587497.508      696888.863 8  -1005344.030 8
  22149907.859    22149911.044      182611.453 9  -1219867.277 8
  20912513.740    20912516.689      563107.174 9  -1137005.690 8
  23793720.442    23793727.761      -67575.475 9  -1434702.188 8
 90  2 24  4 36 44.0800000  0  4G 6G 9G11G13
  20585006.099    20585008.900      683807.916 8  -1015536.974 8
  22142053.823    22142058.537      141341.375 9  -1252025.738 9
  20908713.162    20908717.582      543137.818 8  -1152566.209 8
  23783333.696    23783337.399     -122168.163 9  -1477241.827 8
 90  2 24  4 36 59.0800000  0  4G 6G 9G11G13
  20582536.435    20582538.928      670829.795 8  -1025649.779 9
  22134210.626    22134211.184      100114.995 9  -1284150.156 8
  20904937.709    20904941.560      523301.087 9  -1168023.385 7
  23772951.530    23772960.477     -176705.019 8  -1519737.927 7
 90  2 24  4 37 14.0800000  0  4G 6G 9G11G13
  20580086.629    20580088.922      657954.710 9  -1035682.313 8
  22126373.795    22126375.542       58932.683 9  -1316240.243 9
  20901188.043    20901191.833      503597.022 7  -1183377.184 7
  23762590.407    23762593.108     -231185.918 9  -1562190.407 8
 90  2 24  4 37 29.0800000  0  4G 6G 9G11G13
  20577656.692    20577657.862      645183.053 9  -1045634.240 8
  22118544.714    22118548.634       17794.609 9  -1348295.855 8
  20897463.930    20897468.281      484025.653 9  -1198627.570 8
  23752228.252    23752237.783     -285610.286 9  -1604598.943 7
 90  2 24  4 37 44.0800000  0  4G 6G 9G11G13
  20575245.545    20575247.092      632515.045 8  -1055505.414 9
  22110724.518    22110727.774      -23298.889 9  -1380316.731 9
  20893765.177    20893769.569      464587.134 8  -1213774.461 8
  23741884.323    23741891.660     -339978.078 9  -1646963.306 7
 90  2 24  4 37 59.0800000  0  4G 6G 9G11G13
  20572855.263    20572856.640      619950.995 8  -1065295.577 8
  22102914.225    22102916.479      -64347.212 9  -1412302.396 9
  20890091.004    20890096.313      445281.439 8  -1228817.849 7
  23731548.799    23731554.115     -394288.903 9  -1689283.315 6
 90  2 24  4 38 14.0800000  0  4G 6G 9G11G13
  20570482.971    20570485.864      607491.128 8  -1075004.546 8
  22095110.865    22095113.041     -105350.542 9  -1444253.016 8
  20886443.276    20886446.924      426108.486 9  -1243757.779 7
  23721223.372    23721229.278     -448542.653 9  -1731558.846 8
 90  2 24  4 38 59.0800000  0  4G 6G 9G11G13
  20563489.998    20563492.757      570739.665 9  -1103642.030 9
  22071757.603    22071757.182     -228085.171 9  -1539890.306 8
  20875649.278    20875653.113      369387.193 8  -1287956.126 8
  23690317.813    23690322.783     -610957.687 8  -1858115.665 7
 90  2 24  4 39 14.0800000  0  4G 6G 9G11G13
  20561198.989    20561201.348      558699.383 9  -1113024.058 9
  22063986.954    22063990.502     -268904.208 9  -1571697.314 8
  20872101.998    20872105.391      350746.001 8  -1302481.723 8
  23680033.753    23680045.043     -664979.654 7  -1900210.603 7
 90  2 24  4 39 29.0800000  0  4G 6G 9G11G13
  20558927.909    20558930.534      546764.740 9  -1122323.776 8
  22056229.104    22056231.479     -309676.322 9  -1603467.756 9
  20868579.705    20868583.225      332237.930 8  -1316903.566 7
  23669766.949    23669774.777     -718943.057 7  -1942259.846 7
 90  2 24  4 39 44.0800000  0  4G 6G 9G11G13
  20556677.273    20556679.493      534935.950 9  -1131541.010 9
  22048479.260    22048481.799     -350401.197 9  -1635201.408 8
  20865082.453    20865087.088      313863.000 8  -1331221.684 8
  23659511.415    23659517.285     -772847.373 8  -1984263.101 7
 90  2 24  4 39 59.0800000  0  4G 6G 9G11G13
  20554445.575    20554448.091      523213.314 9  -1140675.517 9
  22040738.701    22040741.056     -391078.712 9  -1666898.150 8
  20861612.472    20861615.421      295621.233 8  -1345436.039 8
  23649260.330    23649269.926     -826692.561 8  -2026220.306 7
 90  2 24  4 40 14.0800000  0  4G 6G 9G11G13
  20552234.855    20552237.678      511597.043 8  -1149727.157 8
  22033007.116    22033009.877     -431708.367 9  -1698557.581 9
  20858165.618    20858169.380      277512.570 8  -1359546.668 8
  23639032.007    23639035.058     -880478.189 8  -2068131.013 7
 90  2 24  4 40 29.0800000  0  4G 6G 9G11G13
  20550044.993    20550047.697      500087.448 9  -1158695.672 9
  22025284.909    22025288.229     -472289.780 9  -1730179.434 9
  20854744.518    20854748.338      259537.136 9  -1373553.458 7
  23628802.215    23628811.726     -934203.847 6  -2109995.118 7
 90  2 24  4 40 44.0800000  0  4G 6G 9G11G13
  20547875.225    20547877.758      488684.806 9  -1167580.833 8
  22017571.482    22017573.442     -512822.810 9  -1761763.586 8
  20851349.547    20851354.338      241694.873 8  -1387456.516 7
  23618592.919    23618597.754     -987869.557 7  -2151812.412 7
 90  2 24  4 40 59.0800000  0  4G 6G 9G11G13
  20545725.158    20545729.132      477389.386 9  -1176382.449 8
  22009867.097    22009868.772     -553307.053 9  -1793309.721 8
  20847980.131    20847983.294      223985.832 8  -1401255.737 7
  23608390.272    23608399.637    -1041474.801 7  -2193582.627 7
 90  2 24  4 41 14.0800000  0  4G 6G 9G11G13
  20543596.168    20543600.117      466201.504 9  -1185100.278 9
  22002173.903    22002175.456     -593742.224 9  -1824817.624 9
  20844636.244    20844638.149      206410.303 7  -1414950.951 8
  23598199.085    23598208.485    -1095019.388 7  -2235305.564 7
 90  2 24  4 41 29.0800000  0  4G 6G 9G11G13
  20541488.336    20541490.640      455121.283 8  -1193734.192 9
  21994487.190    21994490.774     -634127.963 9  -1856287.006 8
  20841316.197    20841320.074      188968.136 8  -1428542.238 8
  23588023.487    23588030.187    -1148502.974 7  -2276980.935 6
 90  2 24  4 41 44.0800000  0  4G 6G 9G11G13
  20539400.845    20539401.521      444149.120 8  -1202283.935 8
  21986811.675    21986815.131     -674464.019 9  -1887717.670 9
  20838024.081    20838026.756      171659.255 8  -1442029.651 9
  23577857.743    23577864.077    -1201925.295 8  -2318608.613 8
 90  2 24  4 41 59.0800000  0  4G 6G 9G11G13
  20537332.342    20537336.338      433285.253 8  -1210749.282 9
  21979146.821    21979147.400     -714749.905 9  -1919109.237 8
  20834754.543    20834757.177      154483.748 8  -1455413.151 8
  23567704.173    23567710.133    -1255286.195 8  -2360188.451 7
 90  2 24  4 42 14.0800000  0  4G 6G 9G11G13
  20535287.150    20535289.426      422529.971 9  -1219130.025 8
  21971489.499    21971492.060     -754985.454 9  -1950461.600 9
  20831511.508    20831514.655      137441.713 9  -1468692.645 7
  23557564.177    23557568.693    -1308585.060 8  -2401719.897 7
 90  2 24  4 42 29.0800000  0  4G 6G 9G11G13
  20533259.892    20533262.733      411883.430 9  -1227426.014 8
  21963841.064    21963845.280     -795170.310 9  -1981774.445 9
  20828294.085    20828298.078      120533.086 9  -1481868.180 7
  23547431.918    23547438.748    -1361821.997 9  -2443203.116 8
 90  2 24  4 42 44.0800000  0  4G 6G 9G11G13
  20531254.890    20531256.829      401346.077 9  -1235636.923 9
  21956205.722    21956208.334     -835304.218 9  -2013047.587 9
  20825102.734    20825105.523      103757.908 8  -1494939.733 6
  23537310.412    23537318.477    -1414996.465 8  -2484637.684 7
 90  2 24  4 42 59.0800000  0  4G 6G 9G11G13
  20529270.570    20529272.888      390918.072 9  -1243762.642 8
  21948577.791    21948580.690     -875386.621 9  -2044280.610 8
  20821933.706    20821937.512       87116.308 9  -1507907.198 7
  23527202.176    23527211.606    -1468108.236 8  -2526023.373 8
 90  2 24  4 43 14.0800000  0  4G 6G 9G11G13
  20527307.066    20527309.115      380599.667 9  -1251802.957 8
  21940959.371    21940961.217     -915417.333 9  -2075473.349 8
  20818792.350    20818796.644       70608.295 8  -1520770.572 8
  23517111.197    23517116.563    -1521157.093 9  -2567360.047 8
 90  2 24  4 43 29.0800000  0  4G 6G 9G11G13
  20525363.927    20525367.046      370391.166 9  -1259757.624 9
  21933352.088    21933354.379     -955395.987 9  -2106625.501 9
  20815677.783    20815681.131       54233.820 9  -1533529.882 8
  23507026.506    23507033.558    -1574142.586 9  -2608647.331 8
 90  2 24  4 43 44.0800000  0  4G 6G 9G11G13
  20523443.382    20523445.501      360292.785 9  -1267626.482 8
  21925754.981    21925758.358     -995322.479 9  -2137737.041 9
  20812587.797    20812590.345       37992.899 8  -1546185.123 8
  23496957.432    23496961.749    -1627064.674 9  -2649885.194 7
 90  2 24  4 43 59.0800000  0  4G 6G 9G11G13
  20521541.603    20521544.281      350304.845 8  -1275409.292 8
  21918167.301    21918169.620    -1035196.217 9  -2168807.451 8
  20809522.168    20809524.599       21885.410 9  -1558736.396 7
  23486897.799    23486903.650    -1679923.057 9  -2691073.452 7
 90  2 24  4 44 14.0800000  0  4G 6G 9G11G13
  20519663.122    20519665.713      340427.589 9  -1283105.858 8
  21910587.958    21910591.342    -1075017.035 9  -2199836.628 9
  20806482.893    20806485.241        5911.481 9  -1571183.607 7
  23476851.182    23476858.100    -1732717.218 8  -2732211.673 8
 90  2 24  4 44 29.0800000  0  4G 6G 9G11G13
  20517804.726    20517807.084      330661.286 9  -1290715.949 9
  21903021.966    21903023.862    -1114784.512 9  -2230824.253 8
  20803467.547    20803470.952       -9928.836 9  -1583526.683 7
  23466817.100    23466823.121    -1785447.154 9  -2773299.829 8
 90  2 24  4 44 44.0800000  0  4G 6G 9G11G13
  20515966.814    20515969.539      321006.178 9  -1298239.412 8
  21895465.403    21895466.755    -1154498.175 9  -2261769.942 8
  20800479.072    20800482.619      -25635.578 9  -1595765.687 8
  23456795.371    23456800.208    -1838112.514 9  -2814337.666 7
 90  2 24  4 44 59.0800000  0  4G 6G 9G11G13
  20514150.494    20514153.942      311462.576 9  -1305675.976 8
  21887917.296    21887921.661    -1194157.979 8  -2292673.666 8
  20797516.149    20797518.811      -41208.734 8  -1607900.606 8
  23446785.983    23446792.086    -1890713.008 9  -2855325.003 9
 90  2 24  4 45 14.0800000  0  4G 6G 9G11G13
  20512355.603    20512358.901      302030.619 8  -1313025.547 9
  21880381.161    21880382.390    -1233763.451 9  -2323535.037 8
  20794576.871    20794580.735      -56648.267 8  -1619931.414 8
  23436789.499    23436795.754    -1943248.377 9  -2896261.519 8
 90  2 24  4 45 29.0800000  0  4G 6G 9G11G13
  20510583.060    20510584.699      292710.719 9  -1320287.806 8
  21872854.067    21872856.457    -1273314.202 9  -2354353.777 9
  20791664.692    20791667.696      -71954.118 8  -1631858.025 8
  23426804.243    23426809.180    -1995718.157 8  -2937146.973 8
 90  2 24  4 45 44.0800000  0  4G 6G 9G11G13
  20508830.110    20508833.061      283503.054 9  -1327462.612 9
  21865338.442    21865342.284    -1312810.012 9  -2385129.703 9
  20788777.154    20788780.803      -87126.312 8  -1643680.501 7
  23416832.039    23416836.822    -2048122.294 8  -2977981.248 7
 90  2 24  4 45 59.0800000  0  4G 6G 9G11G13
  20507099.254    20507101.840      274407.820 9  -1334549.791 9
  21857833.636    21857836.498    -1352250.574 9  -2415862.583 8
  20785915.172    20785918.821     -102164.963 8  -1655398.910 8
  23406872.089    23406877.928    -2100460.488 8  -3018764.156 8
 90  2 24  4 46 14.0800000  0  4G 6G 9G11G13
  20505390.951    20505391.759      265425.353 8  -1341549.109 9
  21850339.024    21850341.292    -1391635.496 9  -2446552.093 9
  20783078.803    20783082.725     -117070.027 8  -1667013.227 8
  23396924.268    23396931.173    -2152732.341 9  -3059495.386 8
 90  2 24  4 46 29.0800000  0  4G 6G 9G11G13
  20503702.601    20503704.707      256555.942 9  -1348460.338 8
  21842854.230    21842854.958    -1430964.306 9  -2477197.904 9
  20780269.048    20780271.554     -131841.547 9  -1678523.493 7
  23386990.525    23386994.854    -2204937.603 9  -3100174.715 8
 90  2 24  4 46 44.0800000  0  4G 6G 9G11G13
  20502036.783    20502039.474      247799.798 9  -1355283.300 9
  21835381.746    21835383.620    -1470236.979 9  -2507799.955 9
  20777482.219    20777485.539     -146479.403 9  -1689929.601 9
  23377068.614    23377075.073    -2257076.034 9  -3140801.982 7
 90  2 24  4 46 59.0800000  0  4G 6G 9G11G13
  20500391.050    20500394.133      239157.159 9  -1362017.827 9
  21827919.073    21827921.334    -1509453.041 9  -2538357.888 8
  20774722.977    20774726.497     -160983.695 9  -1701231.637 8
  23367161.111    23367166.431    -2309147.429 9  -3181377.030 8
 90  2 24  4 47 14.0800000  0  4G 6G 9G11G13
  20498767.865    20498772.137      230628.322 8  -1368663.663 8
  21820466.609    21820469.487    -1548612.114 9  -2568871.432 8
  20771988.032    20771991.824     -175354.426 8  -1712429.586 8
  23357262.502    23357269.212    -2361151.387 9  -3221899.467 8
 90  2 24  4 47 29.0800000  0  4G 6G 9G11G13
  20497166.801    20497169.726      222213.472 9  -1375220.686 9
  21813026.702    21813027.718    -1587713.811 9  -2599340.263 8
  20769278.844    20769281.420     -189591.587 9  -1723523.461 8
  23347381.489    23347385.342    -2413087.644 9  -3262369.197 7
 90  2 24  4 47 44.0800000  0  4G 6G 9G11G13
  20495588.228    20495589.880      213912.879 8  -1381688.674 8
  21805594.937    21805598.142    -1626757.817 9  -2629764.134 8
  20766594.896    20766597.687     -203695.064 8  -1734513.174 7
  23337510.520    23337516.677    -2464955.904 8  -3302785.936 8
 90  2 24  4 47 59.0800000  0  4G 6G 9G11G13
  20494029.299    20494033.237      205726.870 9  -1388067.372 9
  21798176.650    21798179.849    -1665743.865 9  -2660142.858 8
  20763937.277    20763940.798     -217664.870 8  -1745398.720 8
  23327654.864    23327660.362    -2516756.067 9  -3343149.585 7
 90  2 24  4 48 14.0800000  0  4G 6G 9G11G13
  20492494.737    20492495.160      197655.724 9  -1394356.571 9
  21790769.648    21790771.380    -1704671.836 9  -2690476.306 9
  20761304.100    20761307.005     -231501.098 9  -1756180.200 8
  23317809.124    23317812.880    -2568487.500 9  -3383459.702 8
 90  2 24  4 48 29.0800000  0  4G 6G 9G11G13
  20490980.859    20490982.856      189699.534 9  -1400556.208 9
  21783373.118    21783374.650    -1743540.968 9  -2720763.934 9
  20758696.278    20758698.981     -245203.857 9  -1766857.640 7
  23307977.829    23307982.432    -2620150.219 9  -3423716.292 9
 90  2 24  4 48 44.0800000  0  4G 6G 9G11G13
  20489489.183    20489491.136      181858.641 9  -1406665.979 9
  21775986.721    21775990.376    -1782351.263 9  -2751005.695 8
  20756113.983    20756117.274     -258773.122 8  -1777431.084 8
  23298158.932    23298166.185    -2671744.083 9  -3463919.224 7
 90  2 24  4 48 59.0800000  0  4G 6G 9G11G13
  20488018.116    20488020.856      174133.271 9  -1412685.743 8
  21768614.810    21768615.956    -1821102.215 9  -2781201.221 9
  20753557.217    20753560.005     -272208.887 9  -1787900.497 7
  23288355.180    23288360.329    -2723268.705 9  -3504068.200 7
 90  2 24  4 49 14.0800000  0  4G 6G 9G11G13
  20486569.707    20486572.475      166523.689 9  -1418615.278 8
  21761252.065    21761251.958    -1859793.540 9  -2811350.280 8
  20751025.403    20751028.981     -285511.287 8  -1798265.980 7
  23278562.060    23278567.078    -2774723.717 9  -3544162.923 8
 90  2 24  4 49 29.0800000  0  4G 6G 9G11G13
  20485144.178    20485146.657      159030.132 9  -1424454.404 8
  21753898.364    21753901.783    -1898424.865 9  -2841452.610 8
  20748519.549    20748522.940     -298680.112 8  -1808527.408 8
  23268784.195    23268791.078    -2826108.811 8  -3584203.198 8
 90  2 24  4 49 44.0800000  0  4G 6G 9G11G13
  20483741.669    20483742.260      151652.812 9  -1430202.965 9
  21746559.708    21746560.938    -1936995.813 9  -2871507.852 8
  20746039.680    20746042.555     -311715.483 9  -1818684.822 7
  23259017.730    23259025.451    -2877423.924 8  -3624188.898 7
 90  2 24  4 49 59.0800000  0  4G 6G 9G11G13
  20482358.355    20482360.989      144392.023 8  -1435860.713 8
  21739231.706    21739232.393    -1975506.130 9  -2901515.883 8
  20743584.652    20743587.512     -324617.434 9  -1828738.276 8
  23249268.292    23249273.725    -2928668.636 9  -3664119.758 8
 90  2 24  4 50 14.0800000  0  4G 6G 9G11G13
  20480999.366    20481001.267      137247.969 9  -1441427.510 8
  21731914.764    21731917.005    -2013955.556 9  -2931476.450 8
  20741154.377    20741157.183     -337386.043 8  -1838687.838 8
  23239529.450    23239534.431    -2979842.809 8  -3703995.643 8
 90  2 24  4 50 29.0800000  0  4G 6G 9G11G13
  20479661.175    20479664.853      130220.969 9  -1446903.088 9
  21724610.444    21724611.510    -2052343.501 9  -2961389.106 8
  20738750.404    20738753.595     -350021.207 8  -1848533.404 8
  23229804.363    23229811.520    -3030946.075 8  -3743816.299 7
 90  2 24  4 50 44.0800000  0  4G 6G 9G11G13
  20478346.983    20478349.219      123311.144 9  -1452287.369 9
  21717316.255    21717318.329    -2090669.847 9  -2991253.771 9
  20736370.498    20736374.161     -362522.884 9  -1858274.959 8
  23220094.371    23220100.266    -3081978.105 7  -3783581.446 8
 90  2 24  4 50 59.0800000  0  4G 6G 9G11G13
  20477054.869    20477056.233      116518.858 9  -1457580.057 9
  21710034.671    21710035.774    -2128934.214 9  -3021070.131 8
  20734016.578    20734021.529     -374891.048 9  -1867912.470 8
  23210396.460    23210401.570    -3132938.810 9  -3823290.990 9
 90  2 24  4 51 14.0800000  0  4G 6G 9G11G13
  20475785.676    20475786.199      109844.293 8  -1462781.005 7
  21702765.386    21702768.328    -2167136.294 9  -3050837.972 8
  20731690.390    20731692.107     -387126.035 9  -1877446.212 7
  23200712.228    23200715.098    -3183827.647 9  -3862944.559 8
 90  2 24  4 51 29.0800000  0  4G 6G 9G11G13
  20474537.063    20474538.638      103287.620 8  -1467890.102 8
  21695507.843    21695510.261    -2205275.629 9  -3080556.915 9
  20729386.638    20729389.498     -399227.783 9  -1886876.132 7
  23191042.830    23191048.433    -3234644.643 8  -3902542.140 8
 90  2 24  4 51 44.0800000  0  4G 6G 9G11G13
  20473311.609    20473314.362       96849.296 9  -1472906.973 8
  21688261.982    21688264.057    -2243351.862 9  -3110226.678 8
  20727108.585    20727111.562     -411196.191 9  -1896202.163 7
  23181383.499    23181391.237    -3285389.419 8  -3942083.454 7
 90  2 24  4 51 59.0800000  0  4G 6G 9G11G13
  20472109.335    20472110.758       90529.369 9  -1477831.585 9
  21681028.399    21681029.903    -2281364.911 9  -3139847.212 7
  20724856.976    20724860.497     -423031.358 8  -1905424.352 7
  23171744.220    23171748.891    -3336061.842 8  -3981568.372 8
 90  2 24  4 52 14.0800000  0  4G 6G 9G11G13
  20470929.052    20470931.681       84328.180 8  -1482663.671 8
  21673805.905    21673808.654    -2319314.232 9  -3169418.089 8
  20722630.551    20722633.170     -434733.284 9  -1914542.726 8
  23162113.717    23162120.348    -3386661.414 8  -4020996.537 7
 90  2 24  4 52 29.0800000  0  4G 6G 9G11G13
  20469771.677    20469773.420       78245.825 9  -1487403.167 9
  21666596.555    21666600.219    -2357199.282 9  -3198938.898 8
  20720427.450    20720431.427     -446302.091 8  -1923557.367 7
  23152500.312    23152503.914    -3437187.928 9  -4060367.766 7
 90  2 24  4 52 44.0800000  0  4G 6G 9G11G13
  20468637.133    20468637.814       72282.738 9  -1492049.720 8
  21659401.313    21659403.553    -2395020.075 9  -3228409.611 9
  20718252.223    20718255.126     -457737.807 8  -1932468.300 7
  23142898.654    23142905.007    -3487641.219 8  -4099681.964 8
 90  2 24  4 52 59.0800000  0  4G 6G 9G11G13
  20467525.208    20467527.494       66438.967 9  -1496603.307 9
  21652214.635    21652217.476    -2432776.112 9  -3257829.894 9
  20716101.378    20716103.955     -469040.390 9  -1941275.499 7
  23133311.473    23133316.406    -3538021.193 9  -4138939.004 7
 90  2 24  4 53 14.0800000  0  4G 6G 9G11G13
  20466435.448    20466438.161       60714.840 9  -1501063.671 8
  21645042.596    21645045.229    -2470467.147 8  -3287199.503 8
  20713975.005    20713978.166     -480209.905 8  -1949979.004 8
  23123738.054    23123743.028    -3588327.461 8  -4178138.611 8
 90  2 24  4 53 29.0800000  0  4G 6G 9G11G13
  20465368.599    20465371.344       55110.566 9  -1505430.623 8
  21637881.983    21637885.402    -2508092.728 9  -3316518.113 8
  20711876.503    20711878.764     -491246.455 8  -1958578.900 8
  23114178.261    23114184.164    -3638559.551 9  -4217280.432 8
 90  2 24  4 53 44.0800000  0  4G 6G 9G11G13
  20464325.131    20464328.268       49626.464 8  -1509703.953 9
  21630736.774    21630737.990    -2545652.583 9  -3345785.511 9
  20709801.641    20709804.244     -502150.013 8  -1967075.173 7
  23104636.555    23104640.123    -3688717.165 9  -4256364.212 7
 90  2 24  4 53 59.0800000  0  4G 6G 9G11G13
  20463304.080    20463306.756       44262.694 8  -1513883.506 8
  21623600.329    21623603.161    -2583146.284 9  -3375001.361 8
  20707751.533    20707753.981     -512920.579 9  -1975467.814 8
  23095106.246    23095108.741    -3738799.967 9  -4295389.709 7
 90  2 24  4 54 14.0800000  0  4G 6G 9G11G13
  20462306.483    20462308.794       39019.715 9  -1517968.945 8
  21616478.944    21616481.275    -2620573.307 9  -3404165.264 8
  20705726.811    20705729.845     -523558.071 8  -1983756.754 7
  23085587.551    23085593.371    -3788807.999 9  -4334356.967 7
 90  2 24  4 54 29.0800000  0  4G 6G 9G11G13
  20461331.472    20461332.949       33897.686 9  -1521960.122 8
  21609369.077    21609372.283    -2657933.563 9  -3433277.128 9
  20703727.875    20703731.637     -534062.735 9  -1991942.202 8
  23076086.868    23076091.908    -3838741.023 8  -4373265.732 8
 90  2 24  4 54 44.0800000  0  4G 6G 9G11G13
  20460379.851    20460383.157       28896.565 8  -1525857.099 8
  21602273.321    21602274.144    -2695226.679 9  -3462336.679 8
  20701754.151    20701756.740     -544434.629 7  -2000024.184 8
  23066599.514    23066603.932    -3888598.685 9  -4412115.802 8
 90  2 24  4 54 59.0800000  0  4G 6G 9G11G13
  20459452.043    20459454.019       24016.796 8  -1529659.513 8
  21595189.175    21595191.659    -2732452.204 9  -3491343.570 8
  20699805.723    20699808.413     -554673.796 9  -2008002.740 8
  23057124.603    23057128.453    -3938380.804 9  -4450906.984 8
 90  2 24  4 55 14.0800000  0  4G 6G 9G11G13
  20458546.922    20458548.451       19258.451 8  -1533367.315 8
  21588118.475    21588120.627    -2769610.056 9  -3520297.721 8
  20697882.825    20697886.431     -564780.159 8  -2015877.811 8
  23047666.144    23047671.856    -3988087.054 9  -4489639.077 8
 90  2 24  4 55 29.0800000  0  4G 6G 9G11G13
  20457663.142    20457666.856       14621.762 8  -1536980.316 8
  21581059.205    21581061.888    -2806699.699 9  -3549198.713 9
  20695985.624    20695987.615     -574753.815 8  -2023649.484 8
  23038221.417    23038227.763    -4037717.281 9  -4528311.925 7
 90  2 24  4 55 44.0800000  0  4G 6G 9G11G13
  20456805.228    20456808.061       10107.075 8  -1540498.258 8
  21574015.663    21574017.630    -2843720.879 9  -3578046.347 9
  20694111.836    20694114.926     -584594.839 8  -2031317.806 8
  23028792.661    23028796.563    -4087271.173 9  -4566925.283 8
 90  2 24  4 55 59.0800000  0  4G 6G 9G11G13
  20455969.176    20455971.348        5714.564 8  -1543920.980 9
  21566982.729    21566985.885    -2880673.133 9  -3606840.323 8
  20692264.117    20692268.138     -594303.275 8  -2038882.805 8
  23019376.548    23019381.617    -4136748.439 9  -4605478.938 7
 90  2 24  4 56 14.0800000  0  4G 6G 9G11G13
  20455156.283    20455159.379        1444.385 8  -1547248.398 8
  21559964.952    21559967.218    -2917556.275 9  -3635580.397 9
  20690442.041    20690444.935     -603879.243 9  -2046344.588 8
  23009976.277    23009981.651    -4186148.829 9  -4643972.697 8
 90  2 24  4 56 29.0800000  0  4G 6G 9G11G13
  20454367.197    20454369.730       -2703.143 9  -1550480.221 8
  21552958.183    21552961.710    -2954369.692 9  -3664266.177 9
  20688644.664    20688648.239     -613322.768 9  -2053703.176 8
  23000590.720    23000595.178    -4235472.372 9  -4682406.584 8
 90  2 24  4 56 44.0800000  0  4G 6G 9G11G13
  20453600.704    20453603.473       -6727.933 8  -1553616.425 8
  21545967.154    21545969.710    -2991113.331 9  -3692897.554 8
  20686873.128    20686877.234     -622633.980 7  -2060958.654 9
  22991218.274    22991222.782    -4284718.645 9  -4720780.239 7
 90  2 24  4 56 59.0800000  0  4G 6G 9G11G13
  20452858.690    20452860.590      -10629.645 8  -1556656.721 8
  21538988.833    21538989.920    -3027786.824 8  -3721474.283 8
  20685127.234    20685130.154     -631812.884 9  -2068111.029 8
  22981862.963    22981867.692    -4333887.163 9  -4759093.318 8
 90  2 24  4 57 14.0800000  0  4G 6G 9G11G13
  20452139.397    20452142.180      -14408.064 8  -1559600.941 8
  21532023.762    21532025.902    -3064389.597 9  -3749995.905 9
  20683403.776    20683408.557     -640859.622 8  -2075160.433 7
  22972519.815    22972526.566    -4382977.734 9  -4797345.667 7
 90  2 24  4 57 29.0800000  0  4G 6G 9G11G13
  20451443.352    20451446.571      -18062.955 8  -1562448.908 9
  21525071.477    21525072.730    -3100921.541 9  -3778462.332 8
  20681708.537    20681711.400     -649774.192 8  -2082106.835 7
  22963194.661    22963199.072    -4431990.275 9  -4835537.189 8
 90  2 24  4 57 44.0800000  0  4G 6G 9G11G13
  20450772.150    20450774.003      -21594.139 8  -1565200.483 8
  21518132.535    21518135.575    -3137382.023 9  -3806873.072 9
  20680038.397    20680039.985     -658556.569 8  -2088950.238 8
  22953882.808    22953886.432    -4480924.644 9  -4873667.817 8
 90  2 24  4 57 59.0800000  0  4G 6G 9G11G13
  20450124.170    20450126.767      -25001.419 8  -1567855.498 8
  21511208.622    21511210.312    -3173770.976 9  -3835228.088 9
  20678390.922    20678394.685     -667206.824 8  -2095690.682 7
  22944584.462    22944590.446    -4529780.393 9  -4911737.187 7
 90  2 24  4 58 14.0800000  0  4G 6G 9G11G13
  20449498.975    20449501.549      -28284.531 8  -1570413.771 8
  21504297.154    21504300.452    -3210087.956 9  -3863527.010 8
  20676770.291    20676773.725     -675725.051 8  -2102328.253 8
  22935302.138    22935307.196    -4578557.465 9  -4949745.234 7
 90  2 24  4 58 29.0800000  0  4G 6G 9G11G13
  20448897.651    20448900.623      -31443.360 9  -1572875.190 8
  21497399.557    21497402.326    -3246332.615 9  -3891769.584 8
  20675174.557    20675176.733     -684111.402 9  -2108863.073 7
  22926034.411    22926041.447    -4627255.579 9  -4987691.770 7
 90  2 24  4 58 44.0800000  0  4G 6G 9G11G13
  20448320.989    20448322.844      -34477.615 8  -1575239.549 8
  21490517.281    21490518.561    -3282504.663 9  -3919955.581 8
  20673603.379    20673607.415     -692365.890 9  -2115295.118 8
  22916786.104    22916790.153    -4675874.230 9  -5025576.367 7
 90  2 24  4 58 59.0800000  0  4G 6G 9G11G13
  20447766.229    20447769.731      -37387.072 8  -1577506.661 8
  21483647.086    21483648.509    -3318603.703 9  -3948084.702 8
  20672057.214    20672061.089     -700488.559 8  -2121624.463 7
  22907547.288    22907551.945    -4724413.338 9  -5063399.005 8
 90  2 24  4 59 14.0800000  0  4G 6G 9G11G13
  20447237.039    20447240.344      -40171.608 8  -1579676.431 8
  21476791.745    21476793.291    -3354629.243 9  -3976156.524 8
  20670536.718    20670540.281     -708479.543 9  -2127851.186 7
  22898326.432    22898331.570    -4772872.601 9  -5101159.427 9
 90  2 24  4 59 29.0800000  0  4G 6G 9G11G13
  20446730.524    20446733.577      -42830.965 8  -1581748.650 9
  21469951.628    21469952.530    -3390581.113 9  -4004170.951 9
  20669041.637    20669045.071     -716338.878 9  -2133975.330 9
  22889120.044    22889124.671    -4821251.822 9  -5138857.484 7
 90  2 24  4 59 44.0800000  0  4G 6G 9G11G13
  20446248.459    20446251.582      -45364.810 9  -1583723.083 7
  21463123.668    21463125.221    -3426458.969 9  -4032127.704 8
  20667571.994    20667574.556     -724066.607 8  -2139996.935 9
  22879928.084    22879933.438    -4869550.679 9  -5176492.893 7
 90  2 24  4 59 59.0800000  0  4G 6G 9G11G13
  20445790.338    20445792.553      -47773.111 9  -1585599.671 8
  21456310.860    21456312.271    -3462262.388 9  -4060026.453 8
  20666125.620    20666127.970     -731662.852 8  -2145916.068 9
  22870752.164    22870756.604    -4917769.083 9  -5214065.644 8
 90  2 24  5  0 14.0800000  0  4G 6G 9G11G13
  20445355.863    20445359.268      -50055.617 8  -1587378.248 8
  21449512.119    21449513.013    -3497991.114 9  -4087867.003 7
  20664704.575    20664709.325     -739127.718 8  -2151732.852 8
  22861594.187    22861597.131    -4965906.633 9  -5251575.365 7
 90  2 24  5  0 29.0800000  0  4G 6G 9G11G13
  20444945.788    20444949.342      -52212.077 9  -1589058.601 8
  21442726.114    21442728.368    -3533644.613 9  -4115648.930 8
  20663309.858    20663312.848     -746461.186 9  -2157447.222 8
  22852448.489    22852451.823    -5013963.172 9  -5289021.999 8
 90  2 24  5  0 44.0800000  0  4G 6G 9G11G13
  20444559.972    20444560.748      -54242.237 9  -1590640.540 9
  21435956.621    21435958.109    -3569222.630 9  -4143372.050 7
  20661938.263    20661941.398     -753663.397 8  -2163059.327 8
  22843318.353    22843321.528    -5061938.533 9  -5326405.329 7
 90  2 24  5  0 59.0800000  0  4G 6G 9G11G13
  20444197.801    20444198.434      -56145.973 9  -1592123.973 9
  21429200.670    21429203.683    -3604724.868 9  -4171036.103 9
  20660593.342    20660597.248     -760734.457 8  -2168569.222 8
  22834204.107    22834208.569    -5109832.391 9  -5363725.196 8
 90  2 24  5  1 14.0800000  0  4G 6G 9G11G13
  20443859.125    20443860.204      -57923.062 8  -1593508.719 9
  21422459.074    21422460.025    -3640151.042 9  -4198640.896 8
  20659273.290    20659276.696     -767674.545 8  -2173977.083 7
  22825105.585    22825110.928    -5157644.643 9  -5400981.434 9
 90  2 24  5  1 29.0800000  0  4G 6G 9G11G13
  20443545.383    20443547.070      -59573.346 9  -1594794.657 9
  21415732.558    21415735.262    -3675500.623 9  -4226186.027 8
  20657977.249    20657981.040     -774483.558 9  -2179282.814 8
  22816023.586    22816026.473    -5205374.951 9  -5438173.848 8
 90  2 24  5  1 44.0800000  0  4G 6G 9G11G13
  20443255.052    20443258.069      -61096.504 8  -1595981.522 9
  21409019.551    21409023.920    -3710773.327 9  -4253671.226 8
  20656705.991    20656708.439     -781161.765 8  -2184486.579 7
  22806956.760    22806961.514    -5253023.093 8  -5475302.234 7
 90  2 24  5  1 59.0800000  0  4G 6G 9G11G13
  20442990.303    20442991.223      -62492.451 8  -1597069.276 9
  21402323.157    21402325.245    -3745969.012 9  -4281096.409 8
  20655460.031    20655464.110     -787709.058 9  -2189588.380 7
  22797904.129    22797908.954    -5300588.920 8  -5512366.475 7
 90  2 24  5  2 14.0800000  0  4G 6G 9G11G13
  20442748.546    20442750.024      -63760.990 9  -1598057.763 8
  21395639.898    21395641.065    -3781087.034 9  -4308461.081 9
  20654239.571    20654241.303     -794125.613 8  -2194588.264 8
  22788868.752    22788873.700    -5348072.142 9  -5549366.354 7
 90  2 24  5  2 29.0800000  0  4G 6G 9G11G13
  20442530.835    20442534.469      -64901.831 9  -1598946.722 9
  21388972.215    21388974.138    -3816127.081 9  -4335764.998 8
  20653043.522    20653045.911     -800411.481 8  -2199486.334 7
  22779849.061    22779853.610    -5395472.451 9  -5586301.612 9
 90  2 24  5  2 44.0800000  0  4G 6G 9G11G13
  20442338.323    20442340.082      -65914.777 9  -1599736.040 7
  21382319.712    21382321.158    -3851088.743 9  -4363007.844 8
  20651871.600    20651874.317     -806566.782 9  -2204282.667 7
  22770842.929    22770848.882    -5442789.723 9  -5623172.187 8
 90  2 24  5  2 59.0800000  0  4G 6G 9G11G13
  20442169.705    20442173.229      -66799.792 8  -1600425.648 8
  21375680.484    21375682.666    -3885971.747 9  -4390189.378 7
  20650724.604    20650729.038     -812591.590 9  -2208977.311 7
  22761857.915    22761861.364    -5490023.657 9  -5659977.801 8
 90  2 24  5  3 14.0800000  0  4G 6G 9G11G13
  20442026.344    20442028.616      -67556.501 8  -1601015.286 8
  21369057.788    21369059.985    -3920775.980 9  -4417309.551 8
  20649603.190    20649607.296     -818485.939 8  -2213570.297 8
  22752883.444    22752889.529    -5537173.975 9  -5696718.291 8
 90  2 24  5  3 29.0800000  0  4G 6G 9G11G13
  20441907.313    20441909.152      -68184.687 8  -1601504.795 8
  21362450.339    21362453.050    -3955500.812 9  -4444367.838 8
  20648507.535    20648509.738     -824250.057 9  -2218061.813 8
  22743926.204    22743932.556    -5584240.546 9  -5733393.474 8
 90  2 24  5  3 44.0800000  0  4G 6G 9G11G13
  20441811.090    20441813.848      -68684.340 9  -1601894.127 8
  21355856.741    21355859.482    -3990146.048 9  -4471364.105 8
  20647434.345    20647437.565     -829884.091 8  -2222451.952 8
  22734986.378    22734992.314    -5631223.033 9  -5770003.198 7
 90  2 24  5  3 59.0800000  0  4G 6G 9G11G13
  20441740.466    20441743.465      -69055.115 9  -1602183.044 9
  21349279.908    21349281.803    -4024711.134 9  -4498297.914 8
  20646388.027    20646389.587     -835387.921 8  -2226740.653 7
  22726062.075    22726066.885    -5678120.958 8  -5806546.979 8
 90  2 24  5  4 14.0800000  0  4G 6G 9G11G13
  20441694.873    20441696.851      -69296.961 9  -1602371.498 8
  21342716.861    21342718.801    -4059195.946 9  -4525169.185 8
  20645364.405    20645366.580     -840761.880 8  -2230928.148 7
  22717153.973    22717158.602    -5724934.652 8  -5843025.170 7
 90  2 24  5  4 29.0800000  0  4G 6G 9G11G13
  20441673.920    20441676.499      -69409.625 9  -1602459.281 9
  21336170.311    21336171.642    -4093600.031 9  -4551977.549 9
  20644367.024    20644368.841     -846005.919 9  -2235014.393 8
  22708260.772    22708266.353    -5771663.854 8  -5879437.473 8
 90  2 24  5  4 44.0800000  0  4G 6G 9G11G13
  20441677.028    20441679.618      -69393.044 7  -1602446.363 9
  21329638.630    21329640.777    -4127923.245 9  -4578722.888 8
  20643394.714    20643396.747     -851120.330 8  -2238999.650 8
  22699385.540    22699390.269    -5818308.087 9  -5915783.612 7
 90  2 24  5  4 59.0800000  0  4G 6G 9G11G13
  20441704.093    20441707.620      -69246.671 8  -1602332.298 9
  21323122.695    21323125.072    -4162164.866 9  -4605404.664 8
  20642444.410    20642448.532     -856104.820 9  -2242883.655 7
  22690526.173    22690530.937    -5864866.868 9  -5952063.138 8
 90  2 24  5  5 14.0800000  0  4G 6G 9G11G13
  20441756.455    20441759.552      -68970.492 8  -1602117.108 8
  21316622.122    21316624.334    -4196324.617 9  -4632022.615 9
  20641521.354    20641523.356     -860959.635 8  -2246666.618 8
  22681680.229    22681687.630    -5911340.261 8  -5988276.134 8
 90  2 24  5  5 29.0800000  0  4G 6G 9G11G13
  20441833.952    20441836.814      -68564.543 8  -1601800.784 9
  21310137.940    21310139.678    -4230402.453 8  -4658576.764 8
  20640621.733    20640625.582     -865685.044 8  -2250348.747 7
  22672855.244    22672858.099    -5957728.214 7  -6024422.551 9
 90  2 24  5  5 44.0800000  0  4G 6G 9G11G13
  20441935.553    20441937.840      -68028.399 8  -1601383.007 7
  21303668.183    21303671.087    -4264397.630 9  -4685066.493 8
  20639747.613    20639750.775     -870280.970 8  -2253929.989 7
  22664042.348    22664048.055    -6004030.309 8  -6060502.075 8
 90  2 24  5  5 59.0800000  0  4G 6G 9G11G13
  20442063.996    20442066.214      -67361.910 8  -1600863.654 9
  21297214.686    21297218.355    -4298309.968 9  -4711491.684 8
  20638897.132    20638899.824     -874747.777 8  -2257410.603 8
  22655248.667    22655254.579    -6050246.303 9  -6096514.512 8
 90  2 24  5  6 14.0800000  0  4G 6G 9G11G13
  20442214.869    20442216.674      -66564.975 8  -1600242.666 8
  21290778.231    21290780.399    -4332139.099 9  -4737852.018 8
  20638071.577    20638074.968     -879085.462 8  -2260790.607 7
  22646471.014    22646475.625    -6096375.889 9  -6132459.597 8
 90  2 24  5  6 29.0800000  0  4G 6G 9G11G13
  20442390.528    20442394.004      -65637.334 9  -1599519.837 9
  21284356.853    21284358.577    -4365884.621 9  -4764147.213 9
  20637272.263    20637275.327     -883294.147 9  -2264070.083 8
  22637708.917    22637713.019    -6142419.087 9  -6168337.390 8
 90  2 24  5  6 44.0800000  0  4G 6G 9G11G13
  20442592.530    20442595.650      -64578.885 8  -1598695.066 8
  21277951.207    21277952.845    -4399546.094 9  -4790376.923 9
  20636495.332    20636496.391     -887373.828 9  -2267249.053 8
  22628963.677    22628969.493    -6188375.444 9  -6204147.502 8
 90  2 24  5  6 59.0800000  0  4G 6G 9G11G13
  20442817.877    20442821.745      -63389.303 8  -1597768.116 9
  21271561.451    21271563.682    -4433123.649 9  -4816541.237 8
  20635742.354    20635745.959     -891324.607 9  -2270327.566 7
  22620233.871    22620240.646    -6234244.796 8  -6239889.825 8
 90  2 24  5  7 14.0800000  0  4G 6G 9G11G13
  20443070.434    20443072.823      -62068.489 9  -1596738.903 9
  21265188.150    21265189.574    -4466616.307 9  -4842639.391 9
  20635016.189    20635018.451     -895146.530 9  -2273305.691 8
  22611523.344    22611527.790    -6280027.223 9  -6275564.409 8
 90  2 24  5  7 29.0800000  0  4G 6G 9G11G13
  20443346.885    20443349.206      -60616.378 8  -1595607.384 8
  21258830.877    21258832.494    -4500024.194 9  -4868671.494 9
  20634312.235    20634315.726     -898839.875 8  -2276183.611 7
  22602826.949    22602832.529    -6325722.326 9  -6311170.948 8
 90  2 24  5  7 44.0800000  0  4G 6G 9G11G13
  20443647.791    20443650.935      -59032.689 9  -1594373.349 8
  21252489.929    21252491.904    -4533346.648 9  -4894637.031 8
  20633634.694    20633636.455     -902404.680 8  -2278961.375 7
  22594148.875    22594152.201    -6371329.932 9  -6346709.313 8
 90  2 24  5  7 59.0800000  0  4G 6G 9G11G13
  20443975.162    20443977.354      -57317.292 9  -1593036.672 8
  21246164.643    21246166.726    -4566583.507 9  -4920535.879 8
  20632980.336    20632982.437     -905841.155 8  -2281639.135 8
  22585486.415    22585491.228    -6416849.536 8  -6382179.110 8
 90  2 24  5  8 14.0800000  0  4G 6G 9G11G13
  20444325.905    20444327.638      -55470.049 9  -1591597.270 8
  21239856.628    21239858.230    -4599734.354 9  -4946367.681 8
  20632351.387    20632354.393     -909149.277 9  -2284216.889 8
  22576839.777    22576846.708    -6462281.138 9  -6417580.327 8
 90  2 24  5  8 29.0800000  0  4G 6G 9G11G13
  20444701.701    20444704.833      -53490.691 9  -1590054.901 9
  21233564.412    21233566.515    -4632798.754 9  -4972132.143 8
  20631746.222    20631748.869     -912329.245 9  -2286694.763 8
  22568213.019    22568218.030    -6507624.434 9  -6452912.708 8
 90  2 24  5  8 44.0800000  0  4G 6G 9G11G13
  20445104.220    20445106.761      -51379.100 8  -1588409.507 8
  21227288.406    21227289.808    -4665776.702 9  -4997829.224 9
  20631165.408    20631167.890     -915381.315 9  -2289073.005 7
  22559601.092    22559605.746    -6552879.301 9  -6488176.231 9
 90  2 24  5  8 59.0800000  0  4G 6G 9G11G13
  20445531.088    20445533.456      -49135.084 9  -1586660.924 9
  21221030.002    21221031.117    -4698667.440 9  -5023458.353 8
  20630608.573    20630610.615     -918305.577 9  -2291351.628 7
  22551006.618    22551010.614    -6598045.507 8  -6523370.636 8
 90  2 24  5  9 14.0800000  0  4G 6G 9G11G13
  20445983.491    20445986.363      -46758.543 8  -1584809.076 8
  21214787.330    21214789.799    -4731470.655 9  -5049019.285 9
  20630076.524    20630078.778     -921101.961 8  -2293530.621 7
  22542427.771    22542431.652    -6643122.797 8  -6558495.789 7
 90  2 24  5  9 29.0800000  0  4G 6G 9G11G13
  20446460.932    20446464.050      -44249.159 8  -1582853.713 8
  21208562.295    21208563.518    -4764186.090 9  -5074511.815 8
  20629568.286    20629571.427     -923770.546 9  -2295610.033 8
  22533867.639    22533871.107    -6688111.064 9  -6593551.548 8
 90  2 24  5  9 44.0800000  0  4G 6G 9G11G13
  20446963.940    20446967.058      -41606.895 9  -1580794.801 8
  21202353.457    21202355.803    -4796813.488 9  -5099935.741 9
  20629085.842    20629087.378     -926311.717 8  -2297590.149 7
  22525323.392    22525327.603    -6733009.821 9  -6628537.570 7
 90  2 24  5  9 59.0800000  0  4G 6G 9G11G13
  20447492.088    20447494.911      -38831.536 9  -1578632.191 9
  21196161.119    21196164.087    -4829352.348 9  -5125290.694 7
  20628626.329    20628628.639     -928725.534 8  -2299471.046 8
  22516796.486    22516800.196    -6777819.063 9  -6663453.821 8
 90  2 24  5 10 14.0800000  0  4G 6G 9G11G13
  20448044.455    20448047.608      -35922.944 8  -1576365.759 9
  21189986.652    21189987.273    -4861802.389 9  -5150576.419 8
  20628190.504    20628193.337     -931012.074 8  -2301252.761 8
  22508286.924    22508290.519    -6822538.449 9  -6698300.079 8
 90  2 24  5 10 29.0800000  0  4G 6G 9G11G13
  20448624.149    20448627.214      -32880.958 9  -1573995.379 9
  21183827.230    21183830.772    -4894163.184 9  -5175792.612 8
  20627779.766    20627782.822     -933171.535 8  -2302935.456 9
  22499793.932    22499796.812    -6867167.997 9  -6733076.326 8
 90  2 24  5 10 44.0800000  0  4G 6G 9G11G13
  20449228.629    20449231.009      -29705.398 8  -1571520.911 9
  21177686.183    21177689.080    -4926434.451 9  -5200939.030 8
  20627392.645    20627394.884     -935203.989 8  -2304519.177 7
  22491318.225    22491323.036    -6911707.390 9  -6767782.329 8
 90  2 24  5 10 59.0800000  0  4G 6G 9G11G13
  20449858.192    20449861.944      -26396.189 8  -1568942.312 9
  21171563.779    21171565.224    -4958615.679 9  -5226015.296 9
  20627029.377    20627033.126     -937109.575 9  -2306004.034 7
  22482859.603    22482864.112    -6956156.556 9  -6802418.004 8
 90  2 24  5 11 14.0800000  0  4G 6G 9G11G13
  20450514.115    20450515.808      -22953.033 9  -1566259.336 8
  21165456.201    21165458.806    -4990706.888 9  -5251021.425 8
  20626692.005    20626694.406     -938888.452 9  -2307390.169 7
  22474417.180    22474423.320    -7000515.087 9  -6836983.081 8
 90  2 24  5 11 29.0800000  0  4G 6G 9G11G13
  20451194.668    20451196.521      -19375.862 9  -1563471.925 9
  21159367.038    21159368.313    -5022707.568 9  -5275957.003 8
  20626377.791    20626379.868     -940540.678 8  -2308677.606 8
  22465994.387    22465998.671    -7044782.804 8  -6871477.359 8
 90  2 24  5 11 44.0800000  0  4G 6G 9G11G13
  20451900.492    20451903.244      -15664.579 9  -1560580.018 9
  21153295.082    21153296.127    -5054617.072 9  -5300821.543 7
  20626086.221    20626089.226     -942066.414 9  -2309866.473 7
  22457587.508    22457592.948    -7088959.610 9  -6905900.819 8
 90  2 24  5 11 59.0800000  0  4G 6G 9G11G13
  20452632.776    20452634.418      -11818.996 9  -1557583.463 9
  21147239.868    21147242.208    -5086435.278 9  -5325614.918 7
  20625819.997    20625823.850     -943465.846 8  -2310956.941 7
  22449199.659    22449202.453    -7133045.173 9  -6940253.175 7
 90  2 24  5 12 14.0800000  0  4G 6G 9G11G13
  20453389.457    20453391.835       -7838.913 9  -1554482.098 8
  21141202.262    21141203.907    -5118161.889 9  -5350336.955 9
  20625578.099    20625580.865     -944739.096 8  -2311949.089 7
  22440826.377    22440830.473    -7177039.469 9  -6974534.415 8
 90  2 24  5 12 29.0800000  0  4G 6G 9G11G13
  20454172.777    20454174.626       -3724.184 9  -1551275.818 9
  21135181.961    21135184.944    -5149796.489 9  -5374987.276 8
  20625360.217    20625362.872     -945886.242 9  -2312842.946 9
  22432472.699    22432475.878    -7220942.244 9  -7008744.349 8
 90  2 24  5 12 44.0800000  0  4G 6G 9G11G13
  20454981.435    20454984.683         525.372 8  -1547964.478 8
  21129179.364    21129181.854    -5181338.697 8  -5399565.594 8
  20625165.718    20625169.030     -946907.564 9  -2313638.773 8
  22424135.418    22424139.644    -7264753.368 9  -7042882.862 8
 90  2 24  5 12 59.0800000  0  4G 6G 9G11G13
  20455815.121    20455817.545        4909.816 9  -1544548.024 9
  21123195.702    21123197.368    -5212788.089 9  -5424071.607 8
  20624995.293    20624997.593     -947803.122 9  -2314336.606 7
  22415817.170    22415819.878    -7308472.749 9  -7076949.874 7
 90  2 24  5 13 14.0800000  0  4G 6G 9G11G13
  20456674.978    20456678.951        9429.294 9  -1541026.357 8
  21117228.904    21117229.656    -5244144.525 8  -5448505.189 8
  20624849.362    20624851.435     -948573.129 9  -2314936.601 8
  22407512.829    22407518.615    -7352099.881 9  -7110945.030 8
 90  2 24  5 13 29.0800000  0  4G 6G 9G11G13
  20457560.976    20457563.639       14084.079 8  -1537399.242 9
  21111280.115    21111282.568    -5275407.174 9  -5472865.673 8
  20624725.556    20624728.854     -949217.607 9  -2315438.786 8
  22399230.069    22399233.062    -7395634.548 9  -7144868.097 8
 90  2 24  5 13 44.0800000  0  4G 6G 9G11G13
  20458472.840    20458476.160       18874.187 8  -1533666.692 9
  21105348.675    21105349.319    -5306576.226 9  -5497153.228 8
  20624627.433    20624629.548     -949736.649 9  -2315843.220 8
  22390962.789    22390966.285    -7439076.787 9  -7178719.177 8
 90  2 24  5 13 59.0800000  0  4G 6G 9G11G13
  20459409.344    20459412.233       23799.833 8  -1529828.526 9
  21099434.743    21099437.404    -5337651.185 9  -5521367.482 7
  20624552.078    20624554.885     -950130.556 8  -2316150.163 7
  22382712.738    22382717.649    -7482426.249 9  -7212497.951 7
 90  2 24  5 14 14.0800000  0  4G 6G 9G11G13
  20460373.514    20460376.804       28861.069 9  -1525884.712 9
  21093539.877    21093541.480    -5368631.974 9  -5545508.335 9
  20624501.064    20624504.327     -950399.378 9  -2316359.629 8
  22374482.433    22374486.945    -7525682.478 8  -7246204.088 8
 90  2 24  5 14 29.0800000  0  4G 6G 9G11G13
  20461362.314    20461365.559       34058.108 9  -1521835.085 9
  21087662.109    21087663.729    -5399517.758 9  -5569575.179 8
  20624473.126    20624477.100     -950543.346 9  -2316471.819 8
  22366267.698    22366272.639    -7568845.678 8  -7279837.717 7
 90  2 24  5 14 44.0800000  0  4G 6G 9G11G13
  20462377.072    20462379.755       39391.221 8  -1517679.405 8
  21081803.635    21081804.665    -5430308.275 9  -5593567.772 8
  20624470.424    20624473.743     -950562.384 9  -2316486.647 9
  22358073.710    22358076.203    -7611915.615 8  -7313398.671 8
 90  2 24  5 14 59.0800000  0  4G 6G 9G11G13
  20463417.289    20463420.249       44860.141 8  -1513417.912 8
  21075961.999    21075964.524    -5461003.656 9  -5617486.260 8
  20624490.953    20624493.146     -950457.117 8  -2316404.612 8
  22349894.590    22349899.630    -7654892.352 9  -7346887.027 8
 90  2 24  5 15 14.0800000  0  4G 6G 9G11G13
  20464484.757    20464487.630       50465.382 9  -1509050.192 8
  21070138.587    21070141.870    -5491602.857 9  -5641329.760 8
  20624533.330    20624536.250     -950227.316 9  -2316225.533 8
  22341733.764    22341738.110    -7697775.172 9  -7380302.179 7
 90  2 24  5 15 29.0800000  0  4G 6G 9G11G13
  20465577.325    20465579.181       56206.952 9  -1504576.234 8
  21064334.606    21064335.944    -5522105.915 9  -5665098.368 8
  20624601.755    20624604.683     -949873.369 9  -2315949.719 8
  22333590.752    22333595.357    -7740564.171 9  -7413644.238 7
 90  2 24  5 15 44.0800000  0  4G 6G 9G11G13
  20466696.021    20466699.061       62084.972 9  -1499995.969 8
  21058548.369    21058549.408    -5552512.397 8  -5688791.722 8
  20624692.873    20624696.119     -949395.315 8  -2315577.198 8
  22325467.374    22325471.426    -7783259.055 9  -7446912.947 8
 90  2 24  5 15 59.0800000  0  4G 6G 9G11G13
  20467839.482    20467841.960       68099.584 9  -1495309.255 9
  21052780.734    21052783.188    -5582821.923 9  -5712409.525 8
  20624807.051    20624809.388     -948793.199 8  -2315108.019 8
  22317359.964    22317364.239    -7825859.556 9  -7480108.119 8
 90  2 24  5 16 14.0800000  0  4G 6G 9G11G13
  20469011.357    20469013.839       74250.889 8  -1490516.043 9
  21047030.843    21047034.325    -5613034.063 9  -5735951.433 8
  20624943.997    20624948.245     -948067.303 9  -2314542.373 7
  22309271.886    22309275.688    -7868365.624 9  -7513229.699 7
 90  2 24  5 16 29.0800000  0  4G 6G 9G11G13
  20470207.583    20470210.191       80539.012 8  -1485616.197 9
  21041300.497    21041302.622    -5643148.809 9  -5759417.458 8
  20625106.056    20625108.821     -947217.760 9  -2313880.389 7
  22301200.521    22301205.168    -7910777.128 8  -7546277.599 8
 90  2 24  5 16 44.0800000  0  4G 6G 9G11G13
  20471429.834    20471432.753       86964.118 8  -1480609.628 8
  21035589.125    21035590.120    -5673165.538 9  -5782807.106 8
  20625291.262    20625293.728     -946244.696 8  -2313122.144 7
  22293148.501    22293152.804    -7953093.664 9  -7579251.501 9
 90  2 24  5 16 59.0800000  0  4G 6G 9G11G13
  20472678.422    20472682.424       93526.375 9  -1475496.181 9
  21029895.612    21029895.964    -5703083.849 9  -5806120.063 8
  20625500.902    20625503.087     -945148.182 7  -2312267.709 8
  22285113.610    22285117.457    -7995315.280 9  -7612151.428 7
 90  2 24  5 17 14.0800000  0  4G 6G 9G11G13
  20473953.195    20473956.179      100225.813 8  -1470275.850 8
  21024220.643    21024222.467    -5732903.601 9  -5829356.215 9
  20625732.790    20625735.515     -943928.471 8  -2311317.280 7
  22277097.757    22277101.547    -8037441.881 9  -7644977.320 8
 90  2 24  5 17 29.0800000  0  4G 6G 9G11G13
  20475254.536    20475257.065      107062.622 9  -1464948.470 9
  21018566.137    21018567.303    -5762624.449 9  -5852515.307 8
  20625988.500    20625991.249     -942585.776 8  -2310271.023 8
  22269099.278    22269102.587    -8079473.179 9  -7677728.952 8
 90  2 24  5 17 44.0800000  0  4G 6G 9G11G13
  20476582.417    20476584.685      114036.987 8  -1459513.895 9
  21012928.886    21012930.669    -5792245.788 9  -5875596.863 8
  20626266.597    20626270.309     -941120.287 9  -2309129.073 8
  22261118.326    22261122.943    -8121408.940 9  -7710406.140 8
 90  2 24  5 17 59.0800000  0  4G 6G 9G11G13
  20477934.787    20477937.057      121148.836 9  -1453972.204 8
  21007310.610    21007313.020    -5821767.404 9  -5898600.709 8
  20626568.928    20626572.662     -939532.082 8  -2307891.505 8
  22253155.588    22253160.878    -8163248.902 9  -7743008.699 7
 90  2 24  5 18 14.0800000  0  4G 6G 9G11G13
  20479313.899    20479317.369      128398.457 9  -1448323.155 8
  21001711.967    21001714.536    -5851189.004 9  -5921526.622 9
  20626895.529    20626896.090     -937821.417 9  -2306558.514 7
  22245213.156    22245217.667    -8204992.789 9  -7775536.357 8
 90  2 24  5 18 29.0800000  0  4G 6G 9G11G13
  20480720.166    20480723.260      135785.878 9  -1442566.717 9
  20996131.553    20996133.963    -5880510.193 9  -5944374.287 8
  20627244.498    20627246.817     -935988.419 8  -2305130.192 8
  22237287.959    22237292.176    -8246640.499 9  -7807989.111 7
 90  2 24  5 18 44.0800000  0  4G 6G 9G11G13
  20482152.230    20482155.199      143311.337 8  -1436702.725 8
  20990571.687    20990573.812    -5909730.526 9  -5967143.350 8
  20627615.236    20627618.101     -934033.273 9  -2303606.695 8
  22229381.436    22229385.568    -8288191.948 9  -7840366.839 8
 90  2 24  5 18 59.0800000  0  4G 6G 9G11G13
  20483611.316    20483613.330      150974.890 8  -1430731.130 9
  20985030.539    20985033.320    -5938849.743 9  -5989833.636 9
  20628010.845    20628012.601     -931956.094 9  -2301988.115 7
  22221492.800    22221496.179    -8329646.937 9  -7872669.399 8
 90  2 24  5 19 14.0800000  0  4G 6G 9G11G13
  20485095.106    20485097.661      158776.563 8  -1424651.910 8
  20979508.048    20979511.203    -5967867.483 9  -6012444.858 8
  20628429.278    20628431.957     -929756.966 9  -2300274.501 8
  22213622.436    22213626.045    -8371005.409 9  -7904896.738 8
 90  2 24  5 19 29.0800000  0  4G 6G 9G11G13
  20486606.409    20486608.282      166716.470 8  -1418464.973 8
  20974005.649    20974008.145    -5996783.401 9  -6034976.726 7
  20628870.783    20628873.147     -927436.147 8  -2298466.054 8
  22205770.152    22205773.775    -8412267.111 9  -7937048.682 7
 90  2 24  5 19 44.0800000  0  4G 6G 9G11G13
  20488144.302    20488147.070      174794.828 8  -1412170.161 8
  20968521.823    20968525.278    -6025597.458 9  -6057429.215 8
  20629335.463    20629339.021     -924993.765 9  -2296562.891 7
  22197936.891    22197941.847    -8453431.861 9  -7969125.092 8
 90  2 24  5 19 59.0800000  0  4G 6G 9G11G13
  20489707.659    20489709.709      183011.680 8  -1405767.414 9
  20963060.002    20963061.197    -6054308.791 9  -6079801.670 9
  20629822.708    20629825.692     -922430.111 9  -2294565.236 9
  22190121.761    22190125.957    -8494499.649 9  -8001125.950 8
 90  2 24  5 20 14.0800000  0  4G 6G 9G11G13
  20491297.051    20491300.075      191367.138 8  -1399256.675 8
  20957615.010    20957618.095    -6082917.222 9  -6102093.957 8
  20630334.229    20630338.739     -919745.271 9  -2292473.144 7
  22182324.618    22182329.593    -8535470.283 8  -8033051.077 9
 90  2 24  5 20 29.0800000  0  4G 6G 9G11G13
  20492913.095    20492916.540      199861.386 8  -1392637.781 8
  20952191.054    20952193.679    -6111422.680 9  -6124305.980 8
  20630868.634    20630870.303     -916939.573 8  -2290286.867 8
  22174546.864    22174551.490    -8576343.292 9  -8064900.153 8
 90  2 24  5 20 44.0800000  0  4G 6G 9G11G13
  20494555.739    20494558.575      208494.443 7  -1385910.727 9
  20946786.528    20946786.266    -6139824.380 9  -6146437.166 9
  20631424.645    20631428.018     -914013.047 8  -2288006.451 7
  22166788.641    22166792.236    -8617118.460 9  -8096672.967 7
 90  2 24  5 20 59.0800000  0  4G 6G 9G11G13
  20496225.780    20496228.320      217266.459 8  -1379075.389 8
  20941401.321    20941403.117    -6168122.359 9  -6168487.516 7
  20632003.935    20632007.987     -910965.897 8  -2285632.039 9
  22159046.780    22159052.479    -8657795.896 8  -8128369.660 8
 90  2 24  5 21 14.0800000  0  4G 6G 9G11G13
  20497920.444    20497924.108      226177.500 9  -1372131.744 9
  20936035.746    20936038.743    -6196316.014 9  -6190456.586 7
  20632608.150    20632610.525     -907798.246 8  -2283163.736 7
  22151324.924    22151329.107    -8698375.412 9  -8159990.022 9
 90  2 24  5 21 29.0800000  0  4G 6G 9G11G13
  20499643.235    20499646.401      235227.720 7  -1365079.627 8
  20930691.405    20930691.742    -6224405.084 9  -6212344.147 8
  20633233.665    20633236.002     -904510.356 9  -2280601.730 8
  22143621.298    22143625.037    -8738856.654 9  -8191533.822 8
 90  2 24  5 21 44.0800000  0  4G 6G 9G11G13
  20501391.225    20501395.388      244417.220 7  -1357918.967 9
  20925366.181    20925367.232    -6252389.259 9  -6234149.997 7
  20633881.086    20633883.821     -901102.403 9  -2277946.180 8
  22135937.720    22135941.858    -8779239.536 9  -8223000.979 9
 90  2 24  5 21 59.0800000  0  4G 6G 9G11G13
  20503167.337    20503170.394      253746.047 8  -1350649.757 9
  20920060.761    20920062.873    -6280268.274 9  -6255873.894 8
  20634553.319    20634555.966     -897574.600 9  -2275197.229 8
  22128271.556    22128276.259    -8819523.967 9  -8254391.413 9
 90  2 24  5 22 14.0800000  0  4G 6G 9G11G13
  20504968.782    20504971.308      263214.242 8  -1343271.951 8
  20914775.490    20914776.928    -6308041.628 9  -6277515.445 8
  20635247.224    20635250.785     -893927.126 8  -2272355.039 8
  22120624.050    22120629.741    -8859709.724 8  -8285704.954 8
 90  2 24  5 22 29.0800000  0  4G 6G 9G11G13
  20506797.268    20506800.426      272821.993 7  -1335785.387 8
  20909510.822    20909511.875    -6335709.022 8  -6299074.450 8
  20635965.406    20635966.297     -890160.159 9  -2269419.736 8
  22112997.285    22112999.471    -8899796.620 9  -8316941.460 9
 90  2 24  5 22 44.0800000  0  4G 6G 9G11G13
  20508651.585    20508655.071      282569.421 8  -1328190.001 9
  20904264.472    20904266.754    -6363270.233 9  -6320550.705 8
  20636703.181    20636706.472     -886273.886 9  -2266391.455 8
  22105386.083    22105391.208    -8939784.760 8  -8348101.026 8
 90  2 24  5 22 59.0800000  0  4G 6G 9G11G13
  20510534.827    20510537.223      292456.496 8  -1320485.785 9
  20899040.843    20899042.395    -6390724.838 9  -6341943.892 8
  20637465.985    20637468.439     -882268.438 9  -2263270.313 8
  22097796.444    22097799.596    -8979673.934 9  -8379183.460 8
 90  2 24  5 23 14.0800000  0  4G 6G 9G11G13
  20512443.007    20512445.385      302483.422 8  -1312672.605 9
  20893836.331    20893839.430    -6418072.437 8  -6363253.695 9
  20638251.398    20638252.994     -878143.920 9  -2260056.408 8
  22090224.011    22090228.915    -9019463.687 9  -8410188.438 8
 90  2 24  5 23 29.0800000  0  4G 6G 9G11G13
  20514376.891    20514379.678      312650.226 8  -1304750.415 9
  20888653.426    20888655.365    -6445312.814 8  -6384479.945 8
  20639057.925    20639060.757     -873900.652 9  -2256749.942 7
  22082671.112    22082675.500    -9059153.939 9  -8441115.877 8
 90  2 24  5 23 44.0800000  0  4G 6G 9G11G13
  20516338.767    20516341.085      322957.033 7  -1296719.152 8
  20883491.012    20883492.151    -6472445.465 9  -6405622.262 7
  20639888.797    20639890.290     -869538.777 8  -2253351.078 8
  22075137.421    22075141.861    -9098744.754 8  -8471965.827 8
 90  2 24  5 23 59.0800000  0  4G 6G 9G11G13
  20518326.606    20518328.558      333403.915 8  -1288578.718 8
  20878347.919    20878348.926    -6499470.111 9  -6426680.419 8
  20640741.421    20640744.344     -865058.458 9  -2249859.915 7
  22067622.370    22067627.023    -9138235.632 9  -8502737.909 9
 90  2 24  5 24 14.0800000  0  4G 6G 9G11G13
  20520341.332    20520343.232      343991.039 8  -1280329.018 9
  20873224.597    20873227.337    -6526386.457 8  -6447654.177 8
  20641616.210    20641618.977     -860460.014 9  -2246276.696 8
  22060126.943    22060130.402    -9177626.576 8  -8533432.130 7
 90  2 24  5 24 29.0800000  0  4G 6G 9G11G13
  20522382.254    20522385.289      354718.331 8  -1271970.096 8
  20868124.086    20868126.623    -6553194.304 8  -6468543.396 8
  20642513.167    20642516.240     -855743.518 9  -2242601.508 8
  22052649.366    22052655.020    -9216917.459 9  -8564048.379 8
 90  2 24  5 24 44.0800000  0  4G 6G 9G11G13
  20524450.909    20524452.798      365585.953 8  -1263501.823 9
  20863042.919    20863043.912    -6579893.005 9  -6489347.574 7
  20643432.740    20643435.225     -850909.147 9  -2238834.450 9
  22045191.571    22045196.442    -9256108.061 9  -8594586.477 7
 90  2 24  5 24 59.0800000  0  4G 6G 9G11G13
  20526545.477    20526547.557      376593.993 8  -1254924.132 9
  20857982.873    20857984.569    -6606482.422 8  -6510066.583 8
  20644375.506    20644377.668     -845957.040 9  -2234975.660 8
  22037753.160    22037757.055    -9295198.378 9  -8625046.416 8
 90  2 24  5 25 14.0800000  0  4G 6G 9G11G13
  20528666.521    20528669.434      387742.446 8  -1246237.042 8
  20852944.692    20852946.888    -6632962.250 9  -6530700.202 8
  20645340.417    20645342.583     -840887.517 9  -2231025.386 9
  22030333.600    22030337.410    -9334188.087 9  -8655427.973 9
 90  2 24  5 25 29.0800000  0  4G 6G 9G11G13
  20530814.422    20530818.373      399031.405 8  -1237440.453 8
  20847927.288    20847929.255    -6659331.881 9  -6551247.950 7
  20646327.144    20646330.012     -835700.691 8  -2226983.687 7
  22022934.159    22022938.004    -9373077.227 9  -8685731.181 8
 90  2 24  5 25 44.0800000  0  4G 6G 9G11G13
  20532988.929    20532992.270      410460.982 8  -1228534.290 8
  20842930.573    20842931.538    -6685591.199 9  -6571709.749 7
  20647337.277    20647339.761     -830396.827 8  -2222850.805 8
  22015552.432    22015555.877    -9411865.477 9  -8715955.764 9
 90  2 24  5 25 59.0800000  0  4G 6G 9G11G13
  20535190.464    20535194.298      422031.344 8  -1219518.426 8
  20837954.122    20837955.647    -6711739.976 9  -6592085.418 7
  20648367.427    20648371.485     -824976.125 9  -2218626.872 7
  22008190.504    22008193.777    -9450552.735 9  -8746101.634 8
 90  2 24  5 26 14.0800000  0  4G 6G 9G11G13
  20537419.605    20537422.592      433742.434 8  -1210392.914 9
  20832999.191    20833000.374    -6737777.625 8  -6612374.476 7
  20649421.215    20649424.210     -819438.772 9  -2214312.048 8
  22000847.763    22000851.394    -9489138.826 9  -8776168.699 9
 90  2 24  5 26 29.0800000  0  4G 6G 9G11G13
  20539674.537    20539677.928      445594.402 8  -1201157.601 8
  20828066.155    20828066.535    -6763704.016 8  -6632576.840 9
  20650498.014    20650500.744     -813784.948 8  -2209906.466 8
  21993524.153    21993528.011    -9527623.764 9  -8806156.922 8
 90  2 24  5 26 44.0800000  0  4G 6G 9G11G13
  20541957.824    20541959.839      457587.280 7  -1191812.512 8
  20823152.979    20823155.606    -6789518.737 9  -6652692.211 7
  20651595.628    20651599.183     -808014.832 8  -2205410.258 8
  21986219.259    21986223.227    -9566007.258 9  -8836066.115 8
 90  2 24  5 26 59.0800000  0  4G 6G 9G11G13
  20544266.526    20544268.760      469721.160 7  -1182357.556 8
  20818261.381    20818264.193    -6815221.393 9  -6672720.236 7
  20652715.334    20652719.425     -802128.659 8  -2200823.637 7
  21978935.292    21978939.667    -9604289.087 9  -8865896.079 8
 90  2 24  5 27 14.0800000  0  4G 6G 9G11G13
  20546602.338    20546605.274      481996.146 7  -1172792.631 8
  20813392.506    20813394.087    -6840811.715 9  -6692660.744 9
  20653857.876    20653860.780     -796126.705 8  -2196146.783 8
  21971669.399    21971673.253    -9642469.326 9  -8895646.890 8
 90  2 24  5 27 29.0800000  0  4G 6G 9G11G13
  20548964.671    20548967.623      494412.261 8  -1163117.739 8
  20808544.293    20808546.033    -6866289.314 9  -6712513.396 8
  20655021.481    20655025.693     -790009.104 9  -2191379.815 8
  21964423.947    21964428.649    -9680547.713 9  -8925318.334 8
 90  2 24  5 27 44.0800000  0  4G 6G 9G11G13
  20551354.560    20551356.517      506969.475 8  -1153332.905 8
  20803716.858    20803719.398    -6891653.774 9  -6732277.911 7
  20656208.269    20656211.285     -783776.068 9  -2186522.885 8
  21957196.638    21957201.972    -9718524.031 9  -8954910.234 8
 90  2 24  5 27 59.0800000  0  4G 6G 9G11G13
  20553770.800    20553773.501      519667.957 8  -1143437.976 8
  20798912.204    20798913.784    -6916904.939 9  -6751954.125 9
  20657416.522    20657419.049     -777427.615 8  -2181576.042 8
  21949989.541    21949993.444    -9756398.252 9  -8984422.581 7
 90  2 24  5 28 14.0800000  0  4G 6G 9G11G13
  20556214.335    20556217.410      532507.722 8  -1133432.978 9
  20794128.353    20794131.251    -6942042.524 8  -6771541.832 7
  20658646.245    20658648.889     -770964.121 9  -2176539.542 8
  21942803.107    21942806.494    -9794170.286 9  -9013855.310 7
 90  2 24  5 28 29.0800000  0  4G 6G 9G11G13
  20558684.390    20558687.767      545488.865 8  -1123317.798 8
  20789367.142    20789369.253    -6967066.172 9  -6791040.770 8
  20659898.726    20659900.780     -764385.868 8  -2171413.628 7
  21935633.564    21935638.196    -9831839.985 9  -9043208.281 8
 90  2 24  5 28 44.0800000  0  4G 6G 9G11G13
  20561180.693    20561183.980      558611.506 8  -1113092.372 7
  20784626.964    20784628.415    -6991975.186 9  -6810450.385 8
  20661171.965    20661174.340     -757693.007 8  -2166198.408 8
  21928484.849    21928488.707    -9869407.105 9  -9072481.337 7
 90  2 24  5 28 59.0800000  0  4G 6G 9G11G13
  20563705.477    20563708.496      571875.570 8  -1102756.755 8
  20779908.448    20779911.460    -7016769.670 9  -6829770.747 7
  20662466.746    20662469.987     -750885.761 9  -2160894.065 8
  21921355.451    21921359.597    -9906871.444 9  -9101674.302 7
 90  2 24  5 29 14.0800000  0  4G 6G 9G11G13
  20566255.732    20566259.846      585281.233 9  -1092310.771 8
  20775212.515    20775213.466    -7041449.056 9  -6849001.420 9
  20663783.338    20663787.219     -743964.299 9  -2155500.705 8
  21914246.000    21914249.873    -9944232.938 8  -9130787.094 8
 90  2 24  5 29 29.0800000  0  4G 6G 9G11G13
  20568834.495    20568838.318      598828.395 8  -1081754.559 8
  20770539.418    20770539.640    -7066013.012 8  -6868142.154 7
  20665122.835    20665127.103     -736928.834 8  -2150018.518 8
  21907155.881    21907159.477    -9981491.549 9  -9159819.774 8
 90  2 24  5 29 44.0800000  0  4G 6G 9G11G13
  20571438.953    20571442.235      612517.220 8  -1071087.942 8
  20765886.441    20765886.848    -7090461.400 9  -6887192.837 7
  20666483.067    20666485.664     -729779.481 9  -2144447.580 8
  21900085.708    21900089.338   -10018647.454 9  -9188772.398 7
 90  2 24  5 29 59.0800000  0  4G 6G 9G11G13
  20574071.453    20574074.037      626347.780 8  -1060310.899 8
  20761256.072    20761255.593    -7114793.591 9  -6906152.977 8
  20667865.768    20667868.400     -722516.627 8  -2138788.209 7
  21893032.829    21893037.775   -10055700.119 9  -9217644.589 8
 90  2 24  5 30 14.0800000  0  4G 6G 9G11G13
  20576730.849    20576733.387      640320.043 8  -1049423.424 8
  20756647.623    20756648.747    -7139009.641 9  -6925022.609 8
  20669269.140    20669271.914     -715140.443 8  -2133040.525 8
  21886003.044    21886007.769   -10092649.349 9  -9246436.141 7
 90  2 24  5 30 29.0800000  0  4G 6G 9G11G13
  20579416.657    20579418.783      654434.012 8  -1038425.520 8
  20752060.269    20752062.378    -7163109.075 9  -6943801.379 7
  20670694.104    20670697.977     -707651.119 8  -2127204.694 8
  21878992.454    21878995.141   -10129494.877 9  -9275146.904 8
 90  2 24  5 30 44.0800000  0  4G 6G 9G11G13
  20582127.633    20582131.512      668689.894 8  -1027317.042 8
  20747497.839    20747499.362    -7187091.465 8  -6962488.949 8
  20672140.433    20672143.455     -700048.765 9  -2121280.770 7
  21871999.566    21872003.799   -10166236.962 9  -9303777.084 7
 90  2 24  5 30 59.0800000  0  4G 6G 9G11G13
  20584867.756    20584872.105      683087.669 8  -1016098.011 9
  20742956.187    20742957.424    -7210956.543 9  -6981085.091 8
  20673609.632    20673611.782     -692333.754 9  -2115269.067 8
  21865028.436    21865030.519   -10202875.284 9  -9332326.394 7
 90  2 24  5 31 14.0800000  0  4G 6G 9G11G13
  20587635.769    20587637.963      697627.298 8  -1004768.422 8
  20738437.143    20738438.726    -7234704.065 9  -6999589.652 8
  20675098.045    20675101.847     -684506.170 8  -2109169.641 8
  21858075.398    21858079.150   -10239409.890 9  -9360794.888 7
 90  2 24  5 31 29.0800000  0  4G 6G 9G11G13
  20590430.040    20590431.804      712308.926 8   -993328.205 8
  20733941.022    20733942.187    -7258333.642 9  -7018002.303 8
  20676608.727    20676611.885     -676566.196 9  -2102982.659 8
  21851142.142    21851147.598   -10275840.530 9  -9389182.380 7
 90  2 24  5 31 44.0800000  0  4G 6G 9G11G13
  20593250.401    20593253.015      727132.539 9   -981777.345 8
  20729466.881    20729466.446    -7281844.969 9  -7036322.792 8
  20678141.503    20678145.265     -668514.263 8  -2096708.404 7
  21844230.573    21844233.947   -10312167.036 9  -9417488.720 8
 90  2 24  5 31 59.0800000  0  4G 6G 9G11G13
  20596098.407    20596100.042      742098.128 8   -970115.843 8
  20725015.692    20725015.814    -7305237.591 9  -7054550.805 7
  20679693.834    20679696.157     -660350.483 8  -2090347.015 8
  21837337.048    21837341.375   -10348389.241 9  -9445713.786 7
 90  2 24  5 32 14.0800000  0  4G 6G 9G11G13
  20598972.924    20598975.181      757205.881 8   -958343.575 8
  20720586.109    20720587.803    -7328511.249 9  -7072686.120 8
  20681269.248    20681272.678     -652075.003 9  -2083898.579 8
  21830464.185    21830467.573   -10384507.101 9  -9473857.552 8
 90  2 24  5 32 29.0800000  0  4G 6G 9G11G13
  20601875.266    20601877.249      772455.703 9   -946460.610 7
  20716180.080    20716182.520    -7351665.724 9  -7090728.554 8
  20682865.749    20682868.831     -643688.201 8  -2077363.395 8
  21823610.540    21823613.941   -10420520.569 9  -9501919.963 8
 90  2 24  5 32 44.0800000  0  4G 6G 9G11G13
  20604804.362    20604806.504      787847.688 8   -934466.859 7
  20711796.115    20711798.768    -7374700.556 9  -7108677.759 8
  20684482.612    20684486.003     -635190.165 8  -2070741.536 8
  21816777.829    21816781.690   -10456429.437 9  -9529900.863 7
 90  2 24  5 32 59.0800000  0  4G 6G 9G11G13
  20607759.792    20607761.900      803381.858 8   -922362.310 8
  20707435.931    20707438.642    -7397615.502 9  -7126533.557 8
  20686120.281    20686123.886     -626581.097 8  -2064033.170 8
  21809964.012    21809968.453   -10492233.559 9  -9557800.160 7
 90  2 24  5 33 14.0800000  0  4G 6G 9G11G13
  20610742.293    20610745.408      819058.216 9   -910146.970 8
  20703098.241    20703099.422    -7420410.207 8  -7144295.649 8
  20687781.044    20687783.180     -617861.128 8  -2057238.396 8
  21803171.210    21803175.148   -10527932.870 9  -9585617.777 7
 90  2 24  5 33 29.0800000  0  4G 6G 9G11G13
  20613753.912    20613756.119      834876.821 8   -897820.803 8
  20698783.848    20698786.860    -7443084.436 9  -7161963.869 7
  20689461.027    20689464.369     -609030.719 9  -2050357.547 9
  21796397.824    21796401.312   -10563527.285 9  -9613353.650 8
 90  2 24  5 33 44.0800000  0  4G 6G 9G11G13
  20616790.193    20616793.397      850837.627 8   -885383.812 8
  20694492.234    20694493.887    -7465637.835 9  -7179537.945 7
  20691161.534    20691164.605     -600090.116 8  -2043390.827 8
  21789643.685    21789647.395   -10599016.695 9  -9641007.715 9
 90  2 24  5 33 59.0800000  0  4G 6G 9G11G13
  20619854.539    20619856.552      866940.704 9   -872835.959 8
  20690222.370    20690224.611    -7488070.104 9  -7197017.610 8
  20692885.119    20692887.018     -591039.447 8  -2036338.359 9
  21782911.718    21782913.845   -10634400.899 9  -9668579.798 8
 90  2 24  5 34 14.0800000  0  4G 6G 9G11G13
  20622946.402    20622947.902      883186.121 8   -860177.199 8
  20685976.948    20685979.902    -7510380.825 9  -7214402.577 8
  20694627.803    20694630.723     -581878.862 8  -2029200.226 8
  21776198.273    21776200.494   -10669679.808 9  -9696069.819 8
 90  2 24  5 34 29.0800000  0  4G 6G 9G11G13
  20626064.805    20626067.098      899573.842 8   -847407.552 8
  20681755.364    20681756.415    -7532569.695 9  -7231692.598 7
  20696391.990    20696394.338     -572608.615 9  -2021976.658 8
  21769504.439    21769506.820   -10704853.319 9  -9723477.736 7
 90  2 24  5 34 44.0800000  0  4G 6G 9G11G13
  20629210.268    20629212.111      916103.927 8   -834526.980 7
  20677556.187    20677557.539    -7554636.509 9  -7248887.497 8
  20698176.738    20698179.610     -563228.988 8  -2014667.860 9
  21762831.039    21762834.492   -10739921.478 9  -9750803.535 8
 90  2 24  5 34 59.0800000  0  4G 6G 9G11G13
  20632383.481    20632385.697      932776.392 9   -821535.446 8
  20673378.619    20673381.086    -7576580.994 8  -7265987.093 7
  20699981.874    20699985.075     -553740.193 8  -2007273.980 9
  21756178.625    21756181.813   -10774884.013 9  -9778047.036 7
 90  2 24  5 35 14.0800000  0  4G 6G 9G11G13
  20635583.462    20635585.045      949591.216 8   -808432.997 7
  20669228.436    20669230.089    -7598402.803 8  -7282991.096 7
  20701808.363    20701811.375     -544142.550 8  -1999795.297 9
  21749544.646    21749548.062   -10809740.815 9  -9805208.176 8
 90  2 24  5 35 29.0800000  0  4G 6G 9G11G13
  20638809.804    20638811.313      966548.537 9   -795219.491 8
  20665097.858    20665099.240    -7620101.298 9  -7299898.996 7
  20703655.754    20703658.404     -534436.138 8  -1992231.852 8
  21742932.332    21742935.484   -10844491.694 9  -9832286.754 8
 90  2 24  5 35 44.0800000  0  4G 6G 9G11G13
  20642063.637    20642065.432      983648.207 8   -781895.075 8
  20660993.410    20660994.218    -7641676.610 9  -7316710.908 8
  20705522.388    20705525.779     -524621.257 9  -1984583.896 8
  21736338.764    21736342.489   -10879136.697 8  -9859282.833 7
 90  2 24  5 35 59.0800000  0  4G 6G 9G11G13
  20645344.229    20645345.900     1000890.309 9   -768459.668 7
  20656909.710    20656913.065    -7663128.208 9  -7333426.438 8
  20707411.634    20707414.978     -514698.163 8  -1976851.604 8
  21729766.564    21729770.883   -10913675.666 9  -9886196.290 8
 90  2 24  5 36 14.0800000  0  4G 6G 9G11G13
  20648653.141    20648656.106     1018274.880 9   -754913.270 8
  20652852.022    20652853.387    -7684455.780 9  -7350045.310 7
  20709320.771    20709324.421     -504667.086 8  -1969035.171 7
  21723214.671    21723216.251   -10948108.508 9  -9913027.045 8
 90  2 24  5 36 29.0800000  0  4G 6G 9G11G13
  20651988.274    20651990.408     1035801.820 9   -741255.912 7
  20648816.944    20648818.826    -7705659.007 9  -7366567.300 7
  20711250.094    20711253.089     -494528.263 8  -1961134.798 9
  21716681.831    21716684.947   -10982435.010 9  -9939774.947 8
 90  2 24  5 36 44.0800000  0  4G 6G 9G11G13
  20655350.846    20655352.604     1053471.309 8   -727487.482 8
  20644806.477    20644807.787    -7726737.718 9  -7382992.260 7
  20713200.680    20713203.989     -484281.883 8  -1953150.584 8
  21710169.511    21710173.442   -11016655.051 9  -9966439.890 8
 90  2 24  5 36 59.0800000  0  4G 6G 9G11G13
  20658740.616    20658742.539     1071283.198 8   -713608.091 7
  20640818.592    20640820.243    -7747691.445 8  -7399319.834 7
  20715170.362    20715172.262     -473928.084 8  -1945082.697 8
  21703678.287    21703681.368   -11050768.709 9  -9993021.930 8
 90  2 24  5 37 14.0800000  0  4G 6G 9G11G13
  20662157.162    20662159.059     1089237.574 9   -699617.670 7
  20636855.917    20636856.439    -7768519.971 9  -7415549.842 7
  20717160.667    20717163.979     -463467.190 9  -1936931.334 8
  21697207.326    21697210.078   -11084775.938 9 -10019521.050 7
 90  2 24  5 37 29.0800000  0  4G 6G 9G11G13
  20665600.604    20665601.595     1107334.425 9   -685516.241 7
  20632915.366    20632917.133    -7789222.981 9  -7431682.032 7
  20719171.750    20719174.605     -452899.432 8  -1928696.729 8
  21690755.826    21690760.387   -11118676.515 9 -10045937.047 7
 90  2 24  5 37 44.0800000  0  4G 6G 9G11G13
  20669071.524    20669072.694     1125573.822 9   -671303.725 7
  20629001.084    20629001.378    -7809800.033 9  -7447716.106 7
  20721202.651    20721205.971     -442224.980 8  -1920378.963 9
  21684325.333    21684328.606   -11152470.298 9 -10072269.835 8
 90  2 24  5 37 59.0800000  0  4G 6G 9G11G13
  20672569.610    20672570.571     1143955.551 9   -656980.308 7
  20625108.498    20625110.492    -7830251.106 8  -7463651.997 8
  20723254.247    20723257.722     -431444.178 9  -1911978.341 7
  21677915.129    21677919.298   -11186157.120 9 -10098519.289 8
 90  2 24  5 38 14.0800000  0  4G 6G 9G11G13
  20676094.727    20676097.482     1162479.823 9   -642545.827 8
  20621241.237    20621241.802    -7850575.564 9  -7479489.226 7
  20725325.918    20725330.140     -420557.308 8  -1903495.056 7
  21671524.900    21671529.217   -11219736.937 9 -10124685.350 7
 90  2 24  5 38 29.0800000  0  4G 6G 9G11G13
  20679647.486    20679648.485     1181146.596 8   -628000.283 9
  20617396.443    20617397.808    -7870773.307 9  -7495227.711 7
  20727417.932    20727421.699     -409564.590 8  -1894929.299 7
  21665154.448    21665160.123   -11253209.764 9 -10150768.044 7
 90  2 24  5 38 44.0800000  0  4G 6G 9G11G13
  20683226.322    20683226.759     1199955.802 9   -613343.774 9
  20613577.606    20613578.771    -7890844.022 9  -7510867.231 7
  20729531.487    20729532.492     -398466.215 8  -1886281.209 8
  21658805.738    21658809.941   -11286575.568 9 -10176767.351 9
 90  2 24  5 38 59.0800000  0  4G 6G 9G11G13
  20686833.457    20686834.235     1218907.419 9   -598576.274 7
  20609782.120    20609783.987    -7910787.501 9  -7526407.601 8
  20731662.230    20731664.584     -387262.470 8  -1877551.014 8
  21652477.017    21652481.692   -11319834.100 9 -10202683.052 8
 90  2 24  5 39 14.0800000  0  4G 6G 9G11G13
  20690466.817    20690467.680     1238001.705 9   -583697.626 9
  20606011.132    20606013.843    -7930603.094 9  -7541848.314 8
  20733814.234    20733817.547     -375953.408 8  -1868738.754 7
  21646169.124    21646172.054   -11352985.213 9 -10228515.070 7
 90  2 24  5 39 29.0800000  0  4G 6G 9G11G13
  20694127.198    20694127.781     1257238.233 9   -568708.120 8
  20602266.274    20602266.138    -7950290.857 9  -7557189.411 8
  20735985.574    20735988.261     -364539.319 8  -1859844.667 9
  21639880.163    21639883.836   -11386029.145 9 -10254263.565 8
 90  2 24  5 39 44.0800000  0  4G 6G 9G11G13
  20697814.432    20697816.576     1276617.311 9   -553607.555 8
  20598544.137    20598543.300    -7969850.224 9  -7572430.473 7
  20738177.855    20738180.125     -353020.509 8  -1850868.960 8
  21633613.194    21633616.223   -11418965.733 9 -10279928.402 9
 90  2 24  5 39 59.0800000  0  4G 6G 9G11G13
  20701529.480    20701530.605     1296138.908 9   -538395.913 8
  20594845.896    20594846.019    -7989281.108 9  -7587571.426 8
  20740389.261    20740393.462     -341397.272 9  -1841811.889 9
  21627365.370    21627369.517   -11451794.827 9 -10305509.494 8
 90  2 24  5 40 14.0800000  0  4G 6G 9G11G13
  20705270.666    20705272.371     1315802.696 9   -523073.485 8
  20591172.669    20591174.693    -8008583.144 8  -7602611.967 8
  20742620.280    20742623.270     -329669.850 8  -1832673.636 8
  21621137.932    21621141.934   -11484516.085 9 -10331006.557 8
 90  2 24  5 40 29.0800000  0  4G 6G 9G11G13
  20709040.028    20709041.180     1335608.923 9   -507640.073 8
  20587524.082    20587524.762    -8027755.919 9  -7617551.786 7
  20744872.379    20744875.715     -317838.574 9  -1823454.448 8
  21614932.219    21614936.931   -11517129.479 8 -10356419.562 8
 90  2 24  5 40 44.0800000  0  4G 6G 9G11G13
  20712836.024    20712837.243     1355557.565 9   -492095.686 7
  20583900.279    20583900.902    -8046799.333 9  -7632390.801 8
  20747144.431    20747146.426     -305903.586 9  -1814154.463 9
  21608746.277    21608750.610   -11549635.056 9 -10381748.549 8
 90  2 24  5 40 59.0800000  0  4G 6G 9G11G13
  20716658.627    20716659.757     1375648.472 9   -476440.440 8
  20580300.573    20580302.839    -8065713.042 9  -7647128.747 7
  20749435.060    20749438.598     -293865.145 9  -1804773.862 7
  21602581.476    21602586.752   -11582032.731 9 -10406993.470 7
 90  2 24  5 41 14.0800000  0  4G 6G 9G11G13
  20720509.419    20720511.315     1395881.686 9   -460674.291 8
  20576726.735    20576727.244    -8084496.751 9  -7661765.386 7
  20751745.324    20751748.218     -281723.533 8  -1795312.874 7
  21596437.694    21596441.655   -11614322.500 8 -10432154.299 7
 90  2 24  5 41 29.0800000  0  4G 6G 9G11G13
  20724386.833    20724388.885     1416257.236 9   -444797.258 7
  20573176.711    20573178.648    -8103150.112 8  -7676300.469 7
  20754075.840    20754078.430     -269478.926 8  -1785771.603 8
  21590313.224    21590315.718   -11646504.271 9 -10457230.972 8
 90  2 24  5 41 44.0800000  0  4G 6G 9G11G13
  20728290.947    20728292.902     1436775.106 9   -428809.308 9
  20569652.585    20569653.708    -8121672.747 9  -7690733.676 8
  20756423.526    20756428.676     -257131.622 8  -1776150.318 8
  21584209.909    21584213.749   -11678577.875 9 -10482223.375 8
 90  2 24  5 41 59.0800000  0  4G 6G 9G11G13
  20732223.054    20732224.425     1457435.241 9   -412710.504 9
  20566152.213    20566153.837    -8140064.506 9  -7705064.908 8
  20758794.125    20758796.959     -244681.801 9  -1766449.156 8
  21578127.408    21578131.289   -11710543.057 9 -10507131.279 8
 90  2 24  5 42 14.0800000  0  4G 6G 9G11G13
  20736181.112    20736182.114     1478237.636 9   -396500.860 7
  20562677.511    20562679.077    -8158325.050 8  -7719293.899 8
  20761182.536    20761185.727     -232129.666 8  -1756668.268 8
  21572064.846    21572067.983   -11742399.961 9 -10531954.813 8
 90  2 24  5 42 29.0800000  0  4G 6G 9G11G13
  20740166.966    20740168.290     1499182.118 9   -380180.493 8
  20559228.365    20559229.216    -8176454.248 9  -7733420.549 7
  20763589.950    20763592.467     -219475.622 8  -1746807.969 8
  21566023.740    21566026.363   -11774148.598 9 -10556693.991 8
 90  2 24  5 42 44.0800000  0  4G 6G 9G11G13
  20744179.162    20744181.601     1520268.985 9   -363749.169 7
  20555802.313    20555804.124    -8194451.525 8  -7747444.396 7
  20766018.290    20766020.098     -206719.752 8  -1736868.330 9
  21560001.945    21560006.134   -11805788.789 9 -10581348.646 7
 90  2 24  5 42 59.0800000  0  4G 6G 9G11G13
  20748220.084    20748221.931     1541497.912 9   -347207.160 8
  20552402.279    20552404.347    -8212316.735 9  -7761365.335 8
  20768464.611    20768467.708     -193862.356 9  -1726849.584 8
  21554001.242    21554006.183   -11837320.478 8 -10605918.772 8
 90  2 24  5 43 14.0800000  0  4G 6G 9G11G13
  20752285.827    20752288.687     1562868.949 9   -330554.419 7
  20549029.200    20549030.580    -8230049.690 8  -7775183.214 7
  20770930.108    20770933.208     -180903.827 8  -1716752.028 7
  21548022.389    21548026.105   -11868743.410 8 -10630404.151 8
 90  2 24  5 43 29.0800000  0  4G 6G 9G11G13
  20756379.893    20756381.116     1584382.038 9   -313790.968 8
  20545679.791    20545680.298    -8247649.986 9  -7788897.715 7
  20773415.500    20773418.224     -167844.353 8  -1706575.807 8
  21542063.181    21542067.551   -11900057.556 9 -10654804.760 7
 90  2 24  5 43 44.0800000  0  4G 6G 9G11G13
  20760501.469    20760502.608     1606037.209 9   -296916.833 8
  20542355.194    20542356.844    -8265117.330 8  -7802508.628 7
  20775919.793    20775922.969     -154684.010 9  -1696320.976 8
  21536124.903    21536128.254   -11931262.974 9 -10679120.640 8
 90  2 24  5 43 59.0800000  0  4G 6G 9G11G13
  20764648.714    20764649.920     1627834.330 9   -279932.062 8
  20539057.180    20539058.518    -8282451.444 9  -7816015.715 8
  20778443.859    20778445.409     -141423.113 7  -1685987.813 9
  21530207.522    21530212.391   -11962359.698 9 -10703351.822 8
 90  2 24  5 44 14.0800000  0  4G 6G 9G11G13
  20768823.762    20768825.225     1649773.475 8   -262836.634 8
  20535783.551    20535785.145    -8299652.085 8  -7829418.815 7
  20780985.540    20780988.786     -128061.915 8  -1675576.491 7
  21524311.726    21524314.320   -11993347.577 9 -10727498.195 7
 90  2 24  5 44 29.0800000  0  4G 6G 9G11G13
  20773025.263    20773026.357     1671854.479 8   -245630.652 8
  20532536.250    20532537.416    -8316719.026 8  -7842717.724 8
  20783547.859    20783550.904     -114600.729 8  -1665087.258 8
  21518435.198    21518438.257   -12024226.470 9 -10751559.660 8
 90  2 24  5 44 44.0800000  0  4G 6G 9G11G13
  20777254.039    20777256.290     1694077.403 9   -228314.094 8
  20529312.989    20529314.514    -8333651.844 8  -7855912.121 8
  20786127.537    20786131.019     -101039.793 9  -1654520.282 8
  21512579.404    21512582.491   -12054996.266 9 -10775536.090 8
 90  2 24  5 44 59.0800000  0  4G 6G 9G11G13
  20781508.927    20781511.789     1716442.178 9   -210887.004 8
  20526116.745    20526118.256    -8350450.299 9  -7869001.822 7
  20788727.965    20788730.125      -87379.354 8  -1643875.784 9
  21506745.009    21506749.165   -12085656.828 9 -10799427.420 8
 90  2 24  5 45 14.0800000  0  4G 6G 9G11G13
  20785793.538    20785794.364     1738948.676 8   -193349.483 8
  20522946.343    20522948.911    -8367114.171 8  -7881986.654 8
  20791346.494    20791348.146      -73619.642 9  -1633153.932 8
  21500929.825    21500935.066   -12116208.338 9 -10823233.772 8
 90  2 24  5 45 29.0800000  0  4G 6G 9G11G13
  20790102.121    20790105.237     1761596.999 9   -175701.452 8
  20519800.323    20519801.176    -8383643.219 8  -7894866.417 7
  20793983.523    20793985.681      -59760.952 9  -1622354.949 8
  21495138.135    21495142.031   -12146650.662 9 -10846955.027 8
 90  2 24  5 45 44.0800000  0  4G 6G 9G11G13
  20794438.850    20794442.427     1784387.033 8   -157942.998 8
  20516681.118    20516684.130    -8400037.165 9  -7907640.912 7
  20796638.686    20796642.290      -45803.551 9  -1611479.043 8
  21489365.272    21489369.917   -12176983.653 9 -10870591.099 8
 90  2 24  5 45 59.0800000  0  4G 6G 9G11G13
  20798803.730    20798805.299     1807318.694 9   -140074.176 8
  20513588.244    20513588.723    -8416295.601 9  -7920309.816 8
  20799313.621    20799316.981      -31747.606 9  -1600526.359 8
  21483615.357    21483617.113   -12207207.384 9 -10894142.024 8
 90  2 24  5 46 14.0800000  0  4G 6G 9G11G13
  20803193.415    20803196.551     1830391.969 9   -122095.016 8
  20510519.208    20510519.988    -8432418.107 8  -7932872.811 8
  20802007.724    20802010.593      -17593.435 8  -1589497.127 8
  21477883.559    21477887.262   -12237321.694 9 -10917607.709 8
 90  2 24  5 46 29.0800000  0  4G 6G 9G11G13
  20807611.996    20807612.889     1853606.822 8   -104005.511 8
  20507477.216    20507477.939    -8448404.862 8  -7945330.018 7
  20804720.238    20804722.697       -3341.322 8  -1578391.579 8
  21472174.220    21472177.321   -12267326.828 9 -10940988.300 8
 90  2 24  5 46 44.0800000  0  4G 6G 9G11G13
  20812057.177    20812056.895     1876963.024 8    -85805.882 8
  20504460.751    20504462.134    -8464255.237 8  -7957680.931 8
  20807449.828    20807452.761       11008.468 9  -1567209.931 8
  21466485.206    21466488.831   -12297222.388 9 -10964283.518 8
 90  2 24  5 46 59.0800000  0  4G 6G 9G11G13
  20816527.532    20816528.913     1900460.735 8    -67495.988 7
  20501469.930    20501471.368    -8479969.097 7  -7969925.521 8
  20810199.216    20810203.083       25455.708 9  -1555952.333 8
  21460817.113    21460821.889   -12327008.333 9 -10987493.320 8
 90  2 24  5 47 14.0800000  0  4G 6G 9G11G13
  20821025.949    20821028.012     1924099.780 9    -49075.965 8
  20498506.181    20498507.319    -8495546.204 8  -7982063.510 7
  20812967.533    20812969.142       40000.247 8  -1544618.935 8
  21455168.967    21455173.213   -12356684.599 9 -11010617.659 8
 90  2 24  5 47 29.0800000  0  4G 6G 9G11G13
  20825551.842    20825553.494     1947880.125 8    -30545.819 8
  20495568.446    20495570.414    -8510986.263 8  -7994094.721 7
  20815752.913    20815756.135       54641.601 9  -1533210.078 8
  21449543.637    21449546.595   -12386251.248 9 -11033656.586 8
 90  2 24  5 47 44.0800000  0  4G 6G 9G11G13
  20830103.266    20830104.403     1971801.717 8    -11905.655 8
  20492656.181    20492658.522    -8526289.046 8  -8006018.952 8
  20818558.405    20818560.703       69379.657 8  -1521725.868 9
  21443938.254    21443941.648   -12415708.008 9 -11056609.879 8
 90  2 24  5 47 59.0800000  0  4G 6G 9G11G13
  20834682.146    20834684.650     1995864.494 9      6844.561 7
  20489770.845    20489772.570    -8541454.117 9  -8017835.877 8
  20821381.408    20821383.293       84214.085 8  -1510166.564 8
  21438353.439    21438356.398   -12445054.912 9 -11079477.574 8
 90  2 24  5 48 14.0800000  0  4G 6G 9G11G13
  20839288.399    20839290.228     2020068.341 9     25704.678 7
  20486911.210    20486912.262    -8556481.386 8  -8029545.446 8
  20824221.685    20824223.839       99144.749 9  -1498532.288 8
  21432789.889    21432792.532   -12474292.151 9 -11102259.816 8
 90  2 24  5 48 29.0800000  0  4G 6G 9G11G13
  20843920.460    20843922.192     2044413.317 9     44674.773 8
  20484076.501    20484078.670    -8571370.503 8  -8041147.352 8
  20827082.182    20827084.936      114171.285 8  -1486823.282 9
  21427247.415    21427249.823   -12503419.458 9 -11124956.395 7
 90  2 24  5 48 44.0800000  0  4G 6G 9G11G13
  20848579.644    20848582.602     2068899.331 8     63754.789 8
  20481268.638    20481271.821    -8586121.276 8  -8052641.440 7
  20829958.727    20829961.385      129293.417 8  -1475039.810 8
  21421725.534    21421728.013   -12532436.926 9 -11147567.389 7
 90  2 24  5 48 59.0800000  0  4G 6G 9G11G13
  20853266.543    20853268.585     2093526.189 9     82944.539 8
  20478489.047    20478491.744    -8600733.266 8  -8064027.408 8
  20832855.060    20832857.273      144510.873 9  -1463182.050 8
  21416224.651    21416227.910   -12561344.334 9 -11170092.607 8
 90  2 24  5 49 14.0800000  0  4G 6G 9G11G13
  20857979.972    20857981.106     2118293.967 9    102244.087 9
  20475735.843    20475737.396    -8615206.486 8  -8075305.235 8
  20835768.375    20835771.699      159823.406 9  -1451250.190 8
  21410744.973    21410747.088   -12590141.846 9 -11192532.200 8
 90  2 24  5 49 29.0800000  0  4G 6G 9G11G13
  20862719.459    20862722.421     2143202.504 9    121653.325 8
  20473007.194    20473009.604    -8629540.504 8  -8086474.570 8
  20838699.825    20838703.745      175230.762 8  -1439244.472 8
  21405285.537    21405288.330   -12618829.341 9 -11214886.079 7
 90  2 24  5 49 44.0800000  0  4G 6G 9G11G13
  20867486.788    20867488.860     2168251.705 9    141172.188 8
  20470306.850    20470308.716    -8643735.070 8  -8097535.277 8
  20841649.500    20841652.537      190732.754 9  -1427164.988 7
  21399846.999    21399850.108   -12647406.690 9 -11237154.115 7
 90  2 24  5 49 59.0800000  0  4G 6G 9G11G13
  20872279.640    20872282.536     2193441.572 9    160800.643 8
  20467631.545    20467633.355    -8657789.872 7  -8108487.058 7
  20844618.191    20844620.530      206329.081 8  -1415011.991 8
  21394429.876    21394434.551   -12675873.814 9 -11259336.268 8
 90  2 24  5 50 14.0800000  0  4G 6G 9G11G13
  20877100.085    20877101.940     2218772.034 9    180538.640 8
  20464983.572    20464986.139    -8671704.903 8  -8119329.934 8
  20847603.899    20847606.876      222019.509 9  -1402785.687 8
  21389034.794    21389037.029   -12704230.602 9 -11281432.443 8
 90  2 24  5 50 29.0800000  0  4G 6G 9G11G13
  20881947.741    20881949.036     2244242.911 9    200386.074 8
  20462362.068    20462365.510    -8685479.615 8  -8130063.464 7
  20850607.818    20850610.888      237803.755 9  -1390486.273 9
  21383658.815    21383661.868   -12732477.070 9 -11303442.663 7
 90  2 24  5 50 44.0800000  0  4G 6G 9G11G13
  20886821.416    20886823.093     2269854.196 8    220342.901 9
  20459767.526    20459770.137    -8699113.922 9  -8140687.593 8
  20853629.924    20853631.865      253681.429 8  -1378114.059 9
  21378304.923    21378309.105   -12760613.322 9 -11325367.001 7
 90  2 24  5 50 59.0800000  0  4G 6G 9G11G13
  20891721.100    20891723.507     2295605.746 8    240409.044 8
  20457200.685    20457203.080    -8712607.528 8  -8151202.075 8
  20856668.343    20856671.461      269652.332 9  -1365669.200 8
  21372971.500    21372975.554   -12788639.241 9 -11347205.341 8
 90  2 24  5 51 14.0800000  0  4G 6G 9G11G13
  20896648.463    20896651.443     2321497.529 9    260584.459 9
  20454659.402    20454661.698    -8725960.010 8  -8161606.623 8
  20859726.009    20859728.518      285716.273 9  -1353151.839 7
  21367659.334    21367661.778   -12816554.843 9 -11368957.741 7
 90  2 24  5 51 29.0800000  0  4G 6G 9G11G13
  20901602.330    20901604.713     2347529.617 8    280869.176 9
  20452145.104    20452146.254    -8739171.367 8  -8171901.160 7
  20862799.362    20862802.527      301873.015 8  -1340562.171 8
  21362368.424    21362371.533   -12844360.048 9 -11390624.110 8
 90  2 24  5 51 44.0800000  0  4G 6G 9G11G13
  20906581.561    20906584.993     2373701.672 9    301262.987 8
  20449658.078    20449659.604    -8752241.305 7  -8182085.525 7
  20865891.471    20865895.384      318122.193 9  -1327900.464 8
  21357097.539    21357101.427   -12872054.986 9 -11412204.561 7
 90  2 24  5 51 59.0800000  0  4G 6G 9G11G13
  20911589.167    20911591.525     2400013.719 9    321765.861 8
  20447198.099    20447200.852    -8765169.446 8  -8192159.394 8
  20869002.210    20869004.536      334463.551 8  -1315166.933 8
  21351849.191    21351852.529   -12899639.525 9 -11433698.986 7
 90  2 24  5 52 14.0800000  0  4G 6G 9G11G13
  20916623.063    20916625.642     2426465.704 9    342377.781 8
  20444764.562    20444767.632    -8777955.544 8  -8202122.582 7
  20872129.119    20872131.262      350896.791 9  -1302361.811 7
  21346620.434    21346623.814   -12927113.611 9 -11455107.352 7
 90  2 24  5 52 29.0800000  0  4G 6G 9G11G13
  20921683.997    20921685.193     2453057.533 9    363098.679 8
  20442359.187    20442361.742    -8790599.404 9  -8211974.943 7
  20875273.201    20875276.693      367421.840 9  -1289485.154 9
  21341413.369    21341416.335   -12954477.185 9 -11476429.585 8
 90  2 24  5 52 44.0800000  0  4G 6G 9G11G13
  20926770.249    20926772.241     2479789.036 9    383928.422 7
  20439979.826    20439981.451    -8803100.953 8  -8221716.392 7
  20878436.217    20878437.605      384038.377 9  -1276537.195 8
  21336227.352    21336229.388   -12981730.128 9 -11497665.631 7
 90  2 24  5 52 59.0800000  0  4G 6G 9G11G13
  20931883.109    20931885.810     2506660.067 8    404866.885 9
  20437628.310    20437631.035    -8815459.848 7  -8231346.685 7
  20881614.842    20881616.376      400745.958 9  -1263518.307 8
  21331062.276    21331066.000   -13008872.406 9 -11518815.440 7
 90  2 24  5 53 14.0800000  0  4G 6G 9G11G13
  20937024.251    20937025.815     2533670.672 8    425914.082 8
  20435304.293    20435306.649    -8827675.794 7  -8240865.604 8
  20884812.002    20884813.189      417544.344 8  -1250428.641 8
  21325917.950    21325921.687   -13035904.089 9 -11539879.057 8
 90  2 24  5 53 29.0800000  0  4G 6G 9G11G13
  20942190.092    20942192.308     2560820.743 9    447069.966 8
  20433006.924    20433008.134    -8839748.548 7  -8250272.930 8
  20888025.574    20888027.903      434433.394 9  -1237268.346 8
  21320795.258    21320799.068   -13062825.137 9 -11560856.483 7
 90  2 24  5 53 44.0800000  0  4G 6G 9G11G13
  20947381.891    20947384.875     2588110.005 9    468334.326 8
  20430736.943    20430739.025    -8851677.969 8  -8259568.601 8
  20891255.810    20891258.958      451412.854 8  -1224037.610 8
  21315693.537    21315697.004   -13089635.623 9 -11581747.755 7
 90  2 24  5 53 59.0800000  0  4G 6G 9G11G13
  20952603.071    20952604.377     2615538.619 9    489707.267 7
  20428493.604    20428495.329    -8863463.740 8  -8268752.305 8
  20894504.228    20894506.546      468482.382 9  -1210736.667 6
  21310612.550    21310617.062   -13116335.477 9 -11602552.822 8
 90  2 24  5 54 14.0800000  0  4G 6G 9G11G13
  20957847.777    20957850.670     2643106.246 9    511188.519 8
  20426278.884    20426279.563    -8875105.692 7  -8277823.942 7
  20897769.231    20897772.005      485641.656 8  -1197365.804 8
  21305554.099    21305556.994   -13142924.679 9 -11623271.652 8
 90  2 24  5 54 29.0800000  0  4G 6G 9G11G13
  20963121.439    20963122.952     2670812.853 9    532778.078 8
  20424090.864    20424093.489    -8886603.363 7  -8286783.171 7
  20901052.911    20901055.762      502890.441 9  -1183925.180 9
  21300514.903    21300516.739   -13169403.016 9 -11643904.105 7
 90  2 24  5 54 44.0800000  0  4G 6G 9G11G13
  20968420.456    20968422.786     2698658.516 9    554475.974 8
  20421929.890    20421931.100    -8897956.856 7  -8295630.040 8
  20904351.358    20904353.670      520228.501 9  -1170415.007 8
  21295496.189    21295499.656   -13195770.316 9 -11664450.029 7
 90  2 24  5 54 59.0800000  0  4G 6G 9G11G13
  20973745.383    20973747.733     2726642.989 9    576282.045 8
  20419795.961    20419798.971    -8909165.683 8  -8304364.189 7
  20907667.854    20907669.935      537655.534 9  -1156835.493 8
  21290500.184    21290503.321   -13222026.718 9 -11684909.552 8
 90  2 24  5 55 14.0800000  0  4G 6G 9G11G13
  20979097.671    20979098.807     2754766.179 9    598196.214 9
  20417691.305    20417694.417    -8920229.756 8  -8312985.540 8
  20911000.564    20911003.319      555171.294 9  -1143186.848 7
  21285524.527    21285528.564   -13248172.436 9 -11705282.805 7
 90  2 24  5 55 29.0800000  0  4G 6G 9G11G13
  20984475.537    20984476.389     2783027.782 9    620218.222 8
  20415612.781    20415615.735    -8931148.655 9  -8321493.774 8
  20914351.426    20914353.372      572775.551 9  -1129469.248 8
  21280570.533    21280573.857   -13274207.511 9 -11725569.862 7
 90  2 24  5 55 44.0800000  0  4G 6G 9G11G13
  20989879.190    20989881.242     2811427.934 8    642348.205 8
  20413564.018    20413565.643    -8941922.367 7  -8329888.858 8
  20917717.705    20917720.456      590467.957 9  -1115682.960 7
  21275637.768    21275640.835   -13300131.775 9 -11745770.567 7
 90  2 24  5 55 59.0800000  0  4G 6G 9G11G13
  20995309.848    20995312.686     2839966.471 9    664586.005 8
  20411542.100    20411543.024    -8952550.609 8  -8338170.598 7
  20921101.282    20921102.423      608248.366 9  -1101828.078 7
  21270725.937    21270727.959   -13325945.235 9 -11765884.917 8
 90  2 24  5 56 14.0800000  0  4G 6G 9G11G13
  21000767.664    21000770.339     2868643.257 9    686931.549 8
  20409546.282    20409547.878    -8963033.054 8  -8346338.755 9
  20924501.678    20924504.326      626116.431 9  -1087904.921 8
  21265833.867    21265838.363   -13351647.976 9 -11785913.023 7
 90  2 24  5 56 29.0800000  0  4G 6G 9G11G13
  21006250.315    21006252.469     2897458.137 9    709384.691 7
  20407579.598    20407581.579    -8973369.718 8  -8354393.285 8
  20927918.259    20927921.711      644071.766 9  -1073913.754 8
  21260964.192    21260966.949   -13377239.873 8 -11805854.739 7
 90  2 24  5 56 44.0800000  0  4G 6G 9G11G13
  21011760.527    21011761.935     2926411.075 8    731945.412 8
  20405640.386    20405641.580    -8983560.037 8  -8362333.787 8
  20931351.785    20931354.612      662114.093 9  -1059854.793 8
  21256115.936    21256118.307   -13402720.954 9 -11825710.099 8
 90  2 24  5 56 59.0800000  0  4G 6G 9G11G13
  21017295.254    21017297.600     2955501.961 9    754613.628 8
  20403729.736    20403730.473    -8993604.057 8  -8370160.285 7
  20934801.546    20934804.782      680243.239 9  -1045728.185 8
  21251287.577    21251289.928   -13428091.114 9 -11845479.051 8
 90  2 24  5 57 14.0800000  0  4G 6G 9G11G13
  21022857.806    21022859.674     2984730.615 8    777389.185 8
  20401844.929    20401847.268    -9003501.482 8  -8377872.561 7
  20938267.853    20938269.379      698458.877 8  -1031534.179 7
  21246481.906    21246484.091   -13453350.174 9 -11865161.407 8
 90  2 24  5 57 29.0800000  0  4G 6G 9G11G13
  21028445.481    21028447.271     3014096.826 9    800271.932 7
  20399990.257    20399992.368    -9013252.007 8  -8385470.375 7
  20941750.667    20941752.439      716760.694 9  -1017273.015 7
  21241694.723    21241699.276   -13478498.434 9 -11884757.434 7
 90  2 24  5 57 44.0800000  0  4G 6G 9G11G13
  21034059.595    21034062.489     3043600.693 8    823261.955 8
  20398163.114    20398164.395    -9022855.496 7  -8392953.600 8
  20945249.226    20945251.243      735148.488 8  -1002944.860 8
  21236930.762    21236934.156   -13503535.782 9 -11904267.042 7
 90  2 24  5 57 59.0800000  0  4G 6G 9G11G13
  21039700.994    21039703.589     3073241.865 9    846358.950 8
  20396362.417    20396364.742    -9032311.769 8  -8400322.124 8
  20948765.033    20948768.699      753622.017 9   -988549.898 9
  21232187.043    21232191.390   -13528462.081 9 -11923690.111 8
 90  2 24  5 58 14.0800000  0  4G 6G 9G11G13
  21045368.058    21045369.200     3103020.357 9    869562.967 8
  20394592.112    20394592.477    -9041620.636 8  -8407575.788 7
  20952296.481    20952299.340      772181.038 9   -974088.329 8
  21227465.754    21227468.490   -13553277.423 9 -11943026.718 8
 90  2 24  5 58 29.0800000  0  4G 6G 9G11G13
  21051061.363    21051062.262     3132935.911 9    892873.775 8
  20392848.623    20392849.787    -9050781.770 7  -8414714.325 8
  20955843.682    20955846.315      790825.156 9   -959560.440 9
  21222764.918    21222766.738   -13577981.916 9 -11962276.948 8
 90  2 24  5 58 44.0800000  0  4G 6G 9G11G13
  21056779.484    21056780.656     3162988.458 9    916291.332 8
  20391133.321    20391133.944    -9059795.069 8  -8421737.666 8
  20959408.462    20959410.834      809554.039 9   -944966.506 7
  21218084.318    21218087.025   -13602575.562 9 -11981440.806 7
 90  2 24  5 58 59.0800000  0  4G 6G 9G11G13
  21062524.184    21062525.269     3193178.141 9    939815.740 8
  20389446.296    20389448.349    -9068660.179 8  -8428645.563 7
  20962988.418    20962991.331      828367.498 9   -930306.672 8
  21213424.785    21213427.823   -13627058.365 9 -12000518.311 8
 90  2 24  5 59 14.0800000  0  4G 6G 9G11G13
  21068294.873    21068297.292     3223504.472 9    963446.633 7
  20387785.970    20387789.241    -9077377.038 7  -8435437.896 8
  20966585.120    20966587.297      847265.228 9   -915581.160 8
  21208787.476    21208789.406   -13651430.244 9 -12019509.359 8
 90  2 24  5 59 29.0800000  0  4G 6G 9G11G13
  21074092.252    21074095.628     3253967.299 8    987183.903 8
  20386157.326    20386158.193    -9085945.175 8  -8442114.373 7
  20970197.180    20970199.679      866247.038 9   -900790.146 9
  21204169.901    21204174.503   -13675691.069 9 -12038413.890 8
 90  2 24  5 59 44.0800000  0  4G 6G 9G11G13
  21079913.439    21079916.643     3284566.601 9   1011027.498 8
  20384553.381    20384555.061    -9094364.798 7  -8448675.117 7
  20973824.532    20973828.189      885312.555 9   -885933.892 8
  21199574.610    21199577.875   -13699840.887 9 -12057231.891 8
 90  2 24  5 59 59.0800000  0  4G 6G 9G11G13
  21085763.977    21085765.533     3315302.325 8   1034977.407 8
  20382981.172    20382983.110    -9102635.354 8  -8455119.692 8
  20977467.996    20977469.889      904461.570 9   -871012.589 8
  21195000.347    21195003.627   -13723879.857 9 -12075963.539 7
 90  2 24  6  0 14.0800000  0  4G 6G 9G11G13
  21091637.784    21091640.794     3346174.373 8   1059033.524 8
  20381435.577    20381436.957    -9110756.900 7  -8461448.176 8
  20981128.723    20981130.414      923693.742 9   -856026.474 8
  21190447.125    21190450.505   -13747807.967 9 -12094608.809 7
 90  2 24  6  0 29.0800000  0  4G 6G 9G11G13
  21097539.025    21097541.127     3377182.397 8   1083195.615 8
  20379918.316    20379919.811    -9118729.131 8  -8467660.301 8
  20984804.017    20984806.597      943008.890 9   -840975.717 8
  21185914.852    21185917.532   -13771625.050 9 -12113167.546 7
 90  2 24  6  0 44.0800000  0  4G 6G 9G11G13
  21103465.362    21103466.525     3408326.416 9   1107463.674 7
  20378430.073    20378431.254    -9126551.731 8  -8473755.827 7
  20988495.534    20988496.568      962406.745 8   -825860.507 7
  21181404.086    21181406.880   -13795331.209 8 -12131639.867 7
 90  2 24  6  0 59.0800000  0  4G 6G 9G11G13
  21109418.239    21109419.615     3439606.296 9   1131837.596 8
  20376969.706    20376971.171    -9134224.740 9  -8479734.785 8
  20992202.366    20992205.315      981886.985 9   -810681.095 8
  21176913.276    21176915.669   -13818926.515 9 -12150025.805 7
 90  2 24  6  1 14.0800000  0  4G 6G 9G11G13
  21115396.475    21115398.190     3471021.777 9   1156317.181 8
  20375538.069    20375540.021    -9141747.662 8  -8485596.806 8
  20995925.013    20995927.585     1001449.286 8   -795437.746 7
  21172444.994    21172448.086   -13842410.897 9 -12168325.305 8
 90  2 24  6  1 29.0800000  0  4G 6G 9G11G13
  21121399.521    21121403.722     3502572.640 8   1180902.245 8
  20374135.338    20374136.849    -9149120.465 8  -8491341.848 8
  20999662.584    20999666.630     1021093.378 9   -780130.664 8
  21167996.493    21167999.637   -13865784.430 9 -12186538.425 8
 90  2 24  6  1 44.0800000  0  4G 6G 9G11G13
  21127429.456    21127431.741     3534258.829 9   1205592.778 8
  20372761.427    20372762.751    -9156342.998 8  -8496969.784 8
  21003416.433    21003418.495     1040818.986 9   -764760.048 8
  21163569.994    21163571.730   -13889047.145 9 -12204665.186 6
 90  2 24  6  1 59.0800000  0  4G 6G 9G11G13
  21133485.518    21133488.012     3566080.313 8   1230388.720 8
  20371415.503    20371415.725    -9163414.963 8  -8502480.414 7
  21007185.337    21007187.466     1060625.934 9   -749326.075 9
  21159164.423    21159167.197   -13912199.033 9 -12222705.615 8
 90  2 24  6  2 14.0800000  0  4G 6G 9G11G13
  21139566.387    21139568.902     3598036.893 8   1255289.953 8
  20370098.255    20370099.335    -9170336.388 8  -8507873.729 8
  21010970.440    21010973.670     1080513.850 9   -733828.993 8
  21154779.929    21154782.793   -13935240.240 8 -12240659.776 7
 90  2 24  6  2 29.0800000  0  4G 6G 9G11G13
  21145673.350    21145675.180     3630128.399 9   1280296.308 8
  20368809.539    20368810.993    -9177106.610 8  -8513149.225 7
  21014770.583    21014773.355     1100482.527 9   -718268.987 8
  21150416.497    21150418.284   -13958170.713 9 -12258527.670 8
 90  2 24  6  2 44.0800000  0  4G 6G 9G11G13
  21151806.806    21151807.614     3662354.588 9   1305407.615 8
  20367550.445    20367552.155    -9183725.945 9  -8518307.154 8
  21018585.293    21018588.278     1120531.636 9   -702646.300 9
  21146073.336    21146077.183   -13980990.221 9 -12276309.078 7
 90  2 24  6  2 59.0800000  0  4G 6G 9G11G13
  21157964.396    21157966.457     3694715.437 9   1330623.833 9
  20366318.224    20366321.606    -9190193.981 8  -8523347.178 6
  21022416.348    21022418.633     1140660.937 9   -686961.130 7
  21141752.651    21141754.912   -14003698.809 9 -12294004.067 7
 90  2 24  6  3 14.0800000  0  4G 6G 9G11G13
  21164146.473    21164149.423     3727210.720 9   1355944.825 8
  20365118.110    20365118.703    -9196510.599 8  -8528269.215 7
  21026261.492    21026264.439     1160870.105 9   -671213.735 7
  21137452.710    21137453.974   -14026296.400 9 -12311612.564 7
 90  2 24  6  3 29.0800000  0  4G 6G 9G11G13
  21170356.750    21170358.803     3759840.294 9   1381370.453 8
  20363944.640    20363944.720    -9202675.747 9  -8533073.237 7
  21030122.474    21030124.934     1181158.838 8   -655404.335 8
  21133172.853    21133176.084   -14048783.312 9 -12329134.822 7
 90  2 24  6  3 44.0800000  0  4G 6G 9G11G13
  21176590.525    21176592.982     3792604.065 9   1406900.649 8
  20362799.963    20362800.857    -9208688.999 9  -8537758.878 7
  21033997.970    21034001.451     1201526.800 9   -639533.188 8
  21128915.131    21128918.146   -14071159.609 9 -12346570.877 8
 90  2 24  6  3 59.0800000  0  4G 6G 9G11G13
  21182850.327    21182852.783     3825501.685 9   1432535.151 7
  20361684.732    20361684.539    -9214550.253 8  -8542326.078 7
  21037889.138    21037890.879     1221973.833 9   -623600.435 7
  21124678.286    21124681.759   -14093425.046 9 -12363920.550 8
 90  2 24  6  4 14.0800000  0  4G 6G 9G11G13
  21189136.962    21189139.438     3858533.136 9   1458273.921 8
  20360598.921    20360599.916    -9220259.273 8  -8546774.665 8
  21041795.164    21041797.759     1242499.641 8   -607606.294 8
  21120462.668    21120464.133   -14115579.707 9 -12381183.902 7
 90  2 24  6  4 29.0800000  0  4G 6G 9G11G13
  21195448.006    21195450.831     3891698.215 9   1484116.828 8
  20359541.413    20359540.993    -9225815.980 8  -8551104.577 7
  21045715.456    21045719.270     1263103.979 9   -591550.982 8
  21116267.335    21116270.184   -14137623.696 9 -12398361.027 7
 90  2 24  6  4 44.0800000  0  4G 6G 9G11G13
  21201784.429    21201787.037     3924996.843 8   1510063.807 8
  20358512.467    20358514.164    -9231220.033 9  -8555315.533 7
  21049651.679    21049653.996     1283786.537 9   -575434.690 9
  21112094.001    21112096.387   -14159557.319 9 -12415452.157 7
 90  2 24  6  4 59.0800000  0  4G 6G 9G11G13
  21208146.544    21208149.011     3958428.777 8   1536114.649 8
  20357513.027    20357513.965    -9236471.501 8  -8559407.583 7
  21053602.178    21053605.126     1304546.987 9   -559257.726 8
  21107941.066    21107943.257   -14181380.403 9 -12432457.136 7
 90  2 24  6  5 14.0800000  0  4G 6G 9G11G13
  21214533.200    21214537.488     3991993.961 9   1562269.313 7
  20356542.664    20356543.986    -9241569.989 8  -8563380.420 7
  21057567.398    21057570.170     1325385.059 9   -543020.264 8
  21103809.048    21103811.635   -14203092.822 9 -12449375.885 7
 90  2 24  6  5 29.0800000  0  4G 6G 9G11G13
  21220946.777    21220948.844     4025692.070 9   1588527.575 8
  20355602.349    20355604.315    -9246515.420 8  -8567234.002 8
  21061547.993    21061550.862     1346300.518 9   -526722.506 8
  21099698.532    21099700.848   -14224694.635 9 -12466208.457 8
 90  2 24  6  5 44.0800000  0  4G 6G 9G11G13
  21227382.786    21227384.849     4059522.871 8   1614889.228 9
  20354689.593    20354691.144    -9251307.685 8  -8570968.229 8
  21065541.853    21065544.782     1367293.132 9   -510364.631 9
  21095609.300    21095612.532   -14246185.889 9 -12482954.879 7
 90  2 24  6  5 59.0800000  0  4G 6G 9G11G13
  21233847.591    21233849.531     4093486.410 9   1641354.301 7
  20353806.228    20353807.095    -9255946.504 7  -8574582.899 7
  21069552.972    21069555.140     1388362.648 8   -493946.811 8
  21091539.996    21091543.146   -14267566.684 9 -12499615.213 7
 90  2 24  6  6 14.0800000  0  4G 6G 9G11G13
  21240335.162    21240338.409     4127582.509 9   1667922.689 8
  20352953.857    20352954.680    -9260431.734 8  -8578077.902 7
  21073575.951    21073578.777     1409508.723 9   -477469.354 8
  21087491.796    21087495.205   -14288837.053 9 -12516189.506 8
 90  2 24  6  6 29.0800000  0  4G 6G 9G11G13
  21246848.926    21246851.566     4161810.837 9   1694594.099 8
  20352129.733    20352130.785    -9264763.289 8  -8581453.121 8
  21077614.327    21077617.128     1430731.069 9   -460932.462 8
  21083466.201    21083468.154   -14309996.907 9 -12532677.684 8
 90  2 24  6  6 44.0800000  0  4G 6G 9G11G13
  21253387.110    21253390.366     4196171.271 9   1721368.447 7
  20351334.686    20351335.493    -9268941.166 9  -8584708.606 6
  21081667.475    21081670.352     1452029.412 9   -444336.356 8
  21079459.823    21079462.470   -14331046.137 9 -12549079.666 8
 90  2 24  6  6 59.0800000  0  4G 6G 9G11G13
  21259951.029    21259953.871     4230663.642 8   1748245.608 8
  20350568.598    20350569.779    -9272964.694 8  -8587843.831 8
  21085733.992    21085737.766     1473403.370 9   -427681.314 9
  21075475.810    21075478.983   -14351985.036 9 -12565395.679 8
 90  2 24  6  7 14.0800000  0  4G 6G 9G11G13
  21266539.704    21266542.523     4265287.836 9   1775225.490 8
  20349832.190    20349833.541    -9276834.114 9  -8590858.957 7
  21089815.778    21089819.999     1494852.820 9   -410967.467 8
  21071512.242    21071514.957   -14372813.592 9 -12581625.695 8
 90  2 24  6  7 29.0800000  0  4G 6G 9G11G13
  21273153.668    21273155.488     4300043.566 9   1802307.867 8
  20349125.343    20349126.538    -9280549.234 8  -8593753.850 7
  21093911.673    21093914.231     1516377.416 9   -394195.063 9
  21067569.111    21067572.164   -14393531.937 9 -12597769.856 8
 90  2 24  6  7 44.0800000  0  4G 6G 9G11G13
  21279792.332    21279796.217     4334930.717 8   1829492.652 9
  20348448.029    20348448.468    -9284109.783 8  -8596528.317 8
  21098022.532    21098025.200     1537976.805 8   -377364.357 7
  21063648.200    21063649.309   -14414140.180 9 -12613828.209 7
 90  2 24  6  7 59.0800000  0  4G 6G 9G11G13
  21286455.172    21286459.185     4369949.129 8   1856779.696 8
  20347800.844    20347800.469    -9287515.653 8  -8599182.234 7
  21102147.184    21102149.911     1559650.799 9   -360475.526 9
  21059747.470    21059749.367   -14434638.139 9 -12629800.629 8
 90  2 24  6  8 14.0800000  0  4G 6G 9G11G13
  21293146.212    21293147.329     4405098.704 9   1884168.970 8
  20347181.581    20347181.436    -9290766.634 8  -8601715.470 7
  21106285.432    21106288.543     1581399.119 8   -343528.794 9
  21055866.646    21055870.776   -14455025.906 9 -12645687.181 7
 90  2 24  6  8 29.0800000  0  4G 6G 9G11G13
  21299858.219    21299862.047     4440378.988 8   1911660.096 8
  20346591.759    20346593.649    -9293862.759 9  -8604128.033 7
  21110437.730    21110441.857     1603221.523 9   -326524.320 8
  21052008.390    21052012.973   -14475303.484 9 -12661487.893 7
 90  2 24  6  8 44.0800000  0  4G 6G 9G11G13
  21306597.067    21306599.901     4475789.968 9   1939253.049 8
  20346031.485    20346032.769    -9296803.506 8  -8606419.523 8
  21114604.766    21114607.677     1625117.696 9   -309462.369 9
  21048171.372    21048175.081   -14495471.049 9 -12677202.855 8
 90  2 24  6  8 59.0800000  0  4G 6G 9G11G13
  21313360.765    21313362.468     4511331.497 9   1966947.745 9
  20345502.156    20345502.800    -9299589.024 8  -8608590.054 7
  21118785.197    21118788.967     1647087.345 9   -292343.156 8
  21044353.843    21044357.654   -14515528.589 9 -12692832.094 7
 90  2 24  6  9 14.0800000  0  4G 6G 9G11G13
  21320149.115    21320151.534     4547003.308 8   1994743.946 8
  20345001.036    20345002.663    -9302219.325 9  -8610639.639 8
  21122980.623    21122983.535     1669130.187 9   -275166.916 9
  21040558.172    21040561.319   -14535476.190 9 -12708375.667 7
 90  2 24  6  9 29.0800000  0  4G 6G 9G11G13
  21326961.523    21326964.191     4582805.258 9   2022641.546 8
  20344530.621    20344533.896    -9304693.930 8  -8612567.893 7
  21127187.726    21127192.240     1691245.885 9   -257933.904 8
  21036782.966    21036785.470   -14555313.734 9 -12723833.476 7
 90  2 24  6  9 44.0800000  0  4G 6G 9G11G13
  21333799.984    21333800.286     4618737.088 9   2050640.377 8
  20344089.812    20344090.202    -9307012.745 9  -8614374.778 7
  21131410.568    21131413.222     1713434.294 8   -240644.245 9
  21033028.971    21033032.556   -14575041.311 9 -12739205.594 6
 90  2 24  6  9 59.0800000  0  4G 6G 9G11G13
  21340660.334    21340663.804     4654798.704 9   2078740.328 8
  20343677.223    20343678.755    -9309175.734 8  -8616060.227 8
  21135646.575    21135649.958     1735694.994 9   -223298.251 9
  21029296.565    21029299.150   -14594658.995 9 -12754492.086 8
 90  2 24  6 10 14.0800000  0  4G 6G 9G11G13
  21347549.285    21347550.488     4690989.818 9   2106941.171 7
  20343295.823    20343297.140    -9311182.740 9  -8617624.119 8
  21139896.778    21139899.675     1758027.705 9   -205896.132 8
  21025583.905    21025586.677   -14614166.763 9 -12769692.935 7
 90  2 24  6 10 29.0800000  0  4G 6G 9G11G13
  21354460.717    21354462.522     4727310.337 9   2135242.864 9
  20342944.140    20342945.387    -9313033.097 8  -8619065.969 7
  21144159.773    21144162.840     1780432.173 8   -188438.108 8
  21021892.018    21021895.002   -14633564.669 9 -12784808.180 7
 90  2 24  6 10 44.0800000  0  4G 6G 9G11G13
  21361396.039    21361399.137     4763760.004 9   2163645.192 8
  20342621.114    20342622.457    -9314727.666 8  -8620386.392 7
  21148437.504    21148440.271     1802908.161 8   -170924.359 8
  21018222.679    21018224.497   -14652852.821 9 -12799837.883 8
 90  2 24  6 10 59.0800000  0  4G 6G 9G11G13
  21368356.173    21368357.898     4800338.607 8   2192147.989 8
  20342327.856    20342330.821    -9316265.814 8  -8621584.956 7
  21152727.312    21152730.697     1825455.456 9   -153355.034 8
  21014572.719    21014576.077   -14672031.197 9 -12814782.052 7
 90  2 24  6 11 14.0800000  0  4G 6G 9G11G13
  21375342.513    21375344.545     4837046.009 9   2220751.142 8
  20342066.129    20342066.332    -9317647.262 8  -8622661.413 7
  21157032.262    21157035.947     1848073.659 9   -135730.468 8
  21010944.591    21010947.971   -14691099.845 9 -12829640.730 8
 90  2 24  6 11 29.0800000  0  4G 6G 9G11G13
  21382351.956    21382354.424     4873881.942 9   2249454.474 8
  20341832.514    20341833.178    -9318872.069 8  -8623615.807 7
  21161349.145    21161352.213     1870762.421 9   -118050.904 9
  21007336.398    21007339.871   -14710058.780 9 -12844413.911 8
 90  2 24  6 11 44.0800000  0  4G 6G 9G11G13
  21389384.423    21389387.937     4910846.244 9   2278257.793 9
  20341629.585    20341630.881    -9319940.329 8  -8624448.210 7
  21165681.080    21165683.835     1893521.478 9   -100316.573 8
  21003748.969    21003751.251   -14728908.383 9 -12859101.890 7
 90  2 24  6 11 59.0800000  0  4G 6G 9G11G13
  21396444.170    21396445.567     4947938.607 8   2307160.928 7
  20341457.500    20341457.275    -9320851.218 8  -8625158.009 7
  21170024.235    21170028.834     1916350.640 9    -82527.614 8
  21000183.088    21000187.211   -14747648.501 9 -12873704.568 7
 90  2 24  6 12 14.0800000  0  4G 6G 9G11G13
  21403525.517    21403529.474     4985158.994 9   2336163.793 9
  20341311.136    20341312.693    -9321605.342 8  -8625745.646 7
  21174382.386    21174384.454     1939249.667 9    -64684.225 9
  20996637.629    20996640.408   -14766279.168 9 -12888221.955 7
 90  2 24  6 12 29.0800000  0  4G 6G 9G11G13
  21410635.196    21410635.997     5022507.036 9   2365266.164 7
  20341199.086    20341199.078    -9322202.267 8  -8626210.775 7
  21178752.754    21178755.909     1962218.280 9    -46786.603 8
  20993113.393    20993116.832   -14784800.644 9 -12902654.266 7
 90  2 24  6 12 44.0800000  0  4G 6G 9G11G13
  21417764.549    21417767.570     5059982.606 8   2394467.896 7
  20341116.673    20341116.332    -9322641.768 8  -8626553.252 6
  21183136.805    21183139.903     1985256.199 9    -28834.986 8
  20989609.389    20989613.073   -14803212.835 9 -12917001.411 8
 90  2 24  6 12 59.0800000  0  4G 6G 9G11G13
  21424922.522    21424923.925     5097585.443 9   2423768.792 8
  20341061.524    20341062.232    -9322924.190 9  -8626773.322 7
  21187533.420    21187537.690     2008363.117 9    -10829.588 8
  20986126.878    20986129.507   -14821515.795 9 -12931263.447 8
 90  2 24  6 13 14.0800000  0  3G 6G11G13
  21432100.020    21432103.260     5135315.453 9   2453168.786 8
  21191943.970    21191946.458     2031538.774 8      7229.357 8
  20982664.668    20982667.899   -14839709.434 9 -12945440.296 7
 90  2 24  6 13 29.0800000  0  3G 6G11G13
  21439305.139    21439307.935     5173172.232 9   2482667.551 8
  21196368.037    21196370.908     2054782.787 9     25341.556 7
  20979223.356    20979226.414   -14857794.079 9 -12959532.216 7
 90  2 24  6 13 44.0800000  0  4G 6G12G11G13
  21446532.540    21446535.093     5211155.741 9   2512265.083 8
                  22139243.783   -35599304.393 7
  21200804.280    21200806.650     2078094.984 9     43506.912 8
  20975802.260    20975805.956   -14875769.595 9 -12973539.082 7
 90  2 24  6 13 59.0800000  0  4G 6G12G11G13
  21453786.240    21453786.906     5249265.713 9   2541961.168 8
  22131142.062    22131146.966   -35641639.731 9  45289359.584 9
  21205252.864    21205255.462     2101474.993 9     61725.099 8
  20972402.081    20972405.483   -14893636.159 9 -12987461.065 8
 90  2 24  6 14 14.0800000  0  4G 6G12G11G13
  21461059.888    21461064.003     5287501.910 9   2571755.577 8
  22123100.861    22123102.130   -35683904.199 9  45256426.243 9
  21209715.227    21209717.807     2124922.529 9     79995.908 8
  20969023.112    20969026.234   -14911393.880 9 -13001298.238 7
 90  2 24  6 14 29.0800000  0  4G 6G12G11G13
  21468361.182    21468364.021     5325864.097 9   2601648.187 7
  22115071.593    22115073.583   -35726097.763 9  45223548.165 9
  21214189.261    21214192.319     2148437.359 9     98319.144 9
  20965665.448    20965667.519   -14929042.762 9 -13015050.608 7
 90  2 24  6 14 44.0800000  0  4G 6G12G11G13
  21475685.055    21475685.719     5364352.122 8   2631638.847 8
  22107056.024    22107058.585   -35768220.070 9  45190725.589 9
  21218676.845    21218680.283     2172019.225 9    116694.631 9
  20962327.925    20962329.971   -14946582.944 9 -13028718.266 8
 90  2 24  6 14 59.0800000  0  4G 6G12G11G13
  21483032.452    21483034.463     5402965.733 9   2661727.361 9
  22099052.387    22099055.575   -35810270.796 9  45157958.810 9
  21223177.179    21223179.887     2195667.843 9    135122.106 9
  20959010.539    20959012.871   -14964014.415 9 -13042301.208 7
 90  2 24  6 15 14.0800000  0  4G 6G12G11G13
  21490405.349    21490407.502     5441704.732 9   2691913.576 8
  22091065.462    22091066.963   -35852249.513 9  45125248.147 9
  21227689.418    21227692.390     2219382.938 9    153601.399 9
  20955713.476    20955717.530   -14981337.009 9 -13055799.318 8
 90  2 24  6 15 29.0800000  0  4G 6G12G11G13
  21497800.855    21497803.005     5480568.867 9   2722197.319 7
  22083089.817    22083091.753   -35894155.887 9  45092593.819 8
  21232215.522    21232218.303     2243164.242 9    172132.286 8
  20952437.813    20952440.430   -14998551.030 9 -13069212.840 7
 90  2 24  6 15 44.0800000  0  4G 6G12G11G13
  21505218.110    21505224.125     5519557.910 9   2752578.356 8
  22075129.835    22075133.277   -35935989.492 9  45059996.218 8
  21236753.441    21236757.013     2267011.405 9    190714.483 9
  20949182.927    20949186.128   -15015656.540 8 -13082541.788 9
 90  2 24  6 15 59.0800000  0  4G 6G12G11G13
  21512664.670    21512665.518     5558671.640 9   2783056.575 8
  22067183.561    22067186.280   -35977750.033 9  45027455.569 9
  21241303.899    21241306.856     2290924.208 9    209347.834 8
  20945948.019    20945951.614   -15032653.508 9 -13095786.167 7
 90  2 24  6 16 14.0800000  0  4G 6G12G11G13
  21520130.690    21520131.626     5597909.806 9   2813631.774 8
  22059251.036    22059252.220   -36019437.139 9  44994972.130 8
  21245866.856    21245869.390     2314902.368 9    228032.115 8
  20942734.181    20942738.078   -15049541.970 9 -13108946.002 7
 90  2 24  6 16 29.0800000  0  4G 6G12G11G13
  21527618.690    21527623.690     5637272.204 9   2844303.749 8
  22051331.376    22051332.889   -36061050.387 9  44962546.213 8
  21250442.076    21250444.612     2338945.564 9    246767.062 8
  20939541.813    20939544.064   -15066322.315 9 -13122021.586 8
 90  2 24  6 16 44.0800000  0  4G 6G12G11G13
  21535135.022    21535136.616     5676758.685 9   2875072.420 8
  22043426.023    22043430.266   -36102589.515 9  44930178.084 9
  21255029.411    21255032.353     2363053.477 9    265552.450 8
  20936368.785    20936371.093   -15082994.638 9 -13135012.991 8
 90  2 24  6 16 59.0800000  0  4G 6G12G11G13
  21542672.217    21542673.668     5716368.916 9   2905937.531 8
  22035534.543    22035538.195   -36144054.017 9  44897868.084 8
  21259629.457    21259632.830     2387225.963 9    284388.156 8
  20933216.645    20933218.120   -15099558.762 9 -13147920.078 7
 90  2 24  6 17 14.0800000  0  4G 6G12G11G13
  21550233.165    21550235.919     5756102.724 9   2936898.913 9
  22027660.401    22027663.885   -36185443.532 9  44865616.539 8
  21264241.088    21264244.139     2411462.729 9    303273.938 8
  20930085.336    20930087.943   -15116014.739 9 -13160742.910 7
 90  2 24  6 17 29.0800000  0  4G 6G12G11G13
  21557817.293    21557818.586     5795959.932 9   2967956.476 9
  22019799.474    22019801.742   -36226757.752 9  44833423.653 8
  21268865.754    21268869.541     2435763.431 9    322209.535 9
  20926973.742    20926977.804   -15132362.674 9 -13173481.548 7
 90  2 24  6 17 44.0800000  0  4G 6G12G11G13
  21565425.575    21565427.386     5835940.107 8   2999109.841 8
  22011949.541    22011952.497   -36267996.261 9  44801289.750 9
  21273501.603    21273503.988     2460127.738 9    341194.711 9
  20923883.087    20923886.134   -15148602.805 9 -13186136.192 8
 90  2 24  6 17 59.0800000  0  4G 6G12G11G13
  21573056.610    21573058.835     5876043.113 9   3030358.920 8
  22004118.309    22004120.306   -36309158.764 9  44769215.092 9
  21278150.538    21278153.976     2484555.416 8    360229.260 8
  20920813.350    20920816.352   -15164735.210 9 -13198706.875 7
 90  2 24  6 18 14.0800000  0  4G 6G12G11G13
  21580711.713    21580712.851     5916268.781 9   3061703.583 9
  21996298.826    21996302.299   -36350244.907 9  44737199.922 8
  21282810.769    21282814.306     2509046.142 9    379312.935 8
  20917764.144    20917768.120   -15180759.943 9 -13211193.664 6
 90  2 24  6 18 29.0800000  0  4G 6G12G11G13
  21588389.883    21588391.492     5956616.780 9   3093143.578 9
  21988494.316    21988498.810   -36391254.417 9  44705244.469 9
  21287483.429    21287486.264     2533599.602 9    398445.502 8
  20914735.752    20914738.373   -15196677.024 9 -13223596.568 7
 90  2 24  6 18 44.0800000  0  4G 6G12G11G13
  21596091.260    21596094.616     5997086.937 9   3124678.737 9
  21980706.130    21980708.530   -36432186.811 9  44673349.122 9
  21292168.100    21292170.536     2558215.566 9    417626.769 9
  20911727.176    20911730.471   -15212486.438 9 -13235915.588 7
 90  2 24  6 18 59.0800000  0  4G 6G12G11G13
  21603815.734    21603817.385     6037679.005 9   3156308.908 9
  21972931.953    21972933.862   -36473041.728 9  44641514.121 9
  21296863.654    21296866.513     2582893.765 9    436856.536 8
  20908738.536    20908742.205   -15228188.384 9 -13248150.854 8
 90  2 24  6 19 14.0800000  0  4G 6G12G11G13
  21611560.555    21611565.484     6078392.713 9   3188033.862 9
  21965172.471    21965176.445   -36513818.657 9  44609739.896 9
  21301571.143    21301573.642     2607633.928 9    456134.582 8
  20905771.360    20905774.879   -15243782.862 9 -13260302.379 8
 90  2 24  6 19 29.0800000  0  4G 6G12G11G13
  21619334.653    21619337.120     6119227.813 9   3219853.400 9
  21957427.793    21957430.310   -36554517.266 9  44578026.723 9
  21306291.300    21306294.145     2632435.825 9    475460.731 8
  20902824.592    20902827.890   -15259270.201 9 -13272370.435 8
 90  2 24  6 19 44.0800000  0  4G 6G12G11G13
  21627125.836    21627129.791     6160184.054 8   3251767.349 8
  21949696.484    21949700.999   -36595137.372 9  44546374.703 9
  21311021.941    21311024.985     2657299.136 9    494834.740 7
  20899897.243    20899899.661   -15274650.251 9 -13284354.869 8
 90  2 24  6 19 59.0800000  0  4G 6G12G11G13
  21634944.750    21634946.430     6201261.300 9   3283775.576 9
  21941983.527    21941986.932   -36635678.499 9  44514784.226 9
  21315765.674    21315768.790     2682223.627 9    514256.408 9
  20896991.985    20896995.008   -15289923.092 8 -13296255.776 8
 90  2 24  6 20 14.0800000  0  4G 6G12G11G13
  21642782.496    21642787.081     6242459.170 9   3315877.799 8
  21934282.709    21934286.579   -36676140.405 9  44483255.472 9
  21320519.974    21320522.039     2707209.003 9    533725.543 8
  20894106.053    20894109.201   -15305088.805 9 -13308073.188 7
 90  2 24  6 20 29.0800000  0  4G 6G12G11G13
  21650646.683    21650648.536     6283777.470 9   3348073.860 8
  21926598.497    21926601.527   -36716522.758 9  44451788.725 9
  21325285.416    21325288.594     2732255.019 9    553241.910 8
  20891240.498    20891241.922   -15320147.728 8 -13319807.410 7
 90  2 24  6 20 44.0800000  0  4G 6G12G11G13
  21658531.877    21658534.459     6325215.929 9   3380363.557 8
  21918930.021    21918933.645   -36756825.150 9  44420384.283 9
  21330063.854    21330065.797     2757361.239 9    572805.192 8
  20888394.850    20888397.957   -15335099.715 9 -13331458.291 8
 90  2 24  6 20 59.0800000  0  4G 6G12G11G13
  21666440.225    21666442.891     6366774.356 9   3412746.719 9
  21911277.801    21911277.161   -36797047.146 9  44389042.471 9
  21334852.447    21334855.441     2782527.538 9    592415.290 8
  20885568.566    20885572.543   -15349945.121 9 -13343026.135 7
 90  2 24  6 21 14.0800000  0  4G 6G12G11G13
  21674371.666    21674371.873     6408452.440 9   3445223.149 9
  21903635.573    21903638.467   -36837188.461 9  44357763.528 9
  21339653.095    21339655.752     2807753.578 9    612071.950 8
  20882764.111    20882767.634   -15364683.873 9 -13354510.861 7
 90  2 24  6 21 29.0800000  0  4G 6G12G11G13
  21682324.714    21682326.551     6450249.960 9   3477792.631 8
  21896013.422    21896016.980   -36877248.698 9  44326547.762 9
  21344464.882    21344467.846     2833039.118 9    631774.964 7
  20879980.131    20879984.328   -15379316.021 8 -13365912.528 7
 90  2 24  6 21 44.0800000  0  4G 6G12G11G13
  21690301.545    21690304.913     6492166.638 9   3510454.958 8
  21888406.169    21888409.264   -36917227.475 9  44295395.496 8
  21349287.924    21349289.673     2858383.831 9    651524.092 8
  20877217.430    20877219.663   -15393841.734 9 -13377231.253 8
 90  2 24  6 21 59.0800000  0  4G 6G12G11G13
  21698300.125    21698303.966     6534202.255 9   3543209.964 9
  21880815.629    21880816.416   -36957124.481 9  44264306.930 9
  21354121.955    21354124.283     2883787.484 9    671319.137 9
  20874472.548    20874476.393   -15408261.157 9 -13388467.153 7
 90  2 24  6 22 14.0800000  0  4G 6G12G11G13
  21706322.059    21706324.725     6576356.486 9   3576057.398 9
  21873236.100    21873238.776   -36996939.246 9  44233282.433 9
  21358967.571    21358969.348     2909249.748 8    691159.862 8
  20871748.066    20871751.707   -15422574.219 9 -13399620.172 8
 90  2 24  6 22 29.0800000  0  4G 6G12G11G13
  21714367.029    21714369.366     6618629.128 9   3608997.101 9
  21865677.008    21865681.061   -37036671.425 9  44202322.318 8
  21363823.837    21363826.995     2934770.312 9    711046.005 8
  20869045.250    20869048.097   -15436780.897 9 -13410690.297 6
 90  2 24  6 22 44.0800000  0  4G 6G12G11G13
  21722433.234    21722436.375     6661019.964 9   3642028.903 9
  21858132.274    21858134.711   -37076320.557 9  44171426.905 9
  21368690.808    21368694.323     2960348.943 9    730977.405 8
  20866362.507    20866365.504   -15450881.426 9 -13421677.708 8
 90  2 24  6 22 59.0800000  0  4G 6G12G11G13
  21730522.105    21730522.643     6703528.693 9   3675152.576 9
  21850602.938    21850605.534   -37115886.394 9  44140596.390 9
  21373570.042    21373573.356     2985985.464 9    750953.910 8
  20863698.990    20863702.363   -15464876.116 9 -13432582.656 8
 90  2 24  6 23 14.0800000  0  4G 6G12G11G13
  21738633.414    21738636.682     6746155.070 9   3708367.911 9
  21843088.412    21843092.300   -37155368.574 9  44109831.058 9
  21378458.921    21378460.827     3011679.489 9    770975.221 8
  20861055.495    20861059.555   -15478765.056 9 -13443405.196 8
 90  2 24  6 23 29.0800000  0  4G 6G12G11G13
  21746767.587    21746770.971     6788898.782 9   3741674.671 9
  21835592.337    21835595.447   -37194766.679 9  44079131.257 9
  21383359.732    21383361.582     3037430.745 9    791041.144 8
  20858433.399    20858436.607   -15492548.205 9 -13454145.279 8
 90  2 24  6 23 44.0800000  0  4G 6G12G11G13
  21754924.428    21754925.980     6831759.625 9   3775072.725 9
  21828110.715    21828113.587   -37234080.419 9  44048497.188 9
  21388270.977    21388273.032     3063238.979 9    811151.453 9
  20855830.735    20855832.786   -15506225.763 8 -13464803.107 8
 90  2 24  6 23 59.0800000  0  4G 6G12G11G13
  21763102.072    21763104.740     6874737.313 9   3808561.824 8
  21820645.966    21820649.087   -37273309.391 9  44017929.162 9
  21393191.949    21393194.923     3089103.990 8    831305.990 7
  20853247.955    20853251.059   -15519797.577 9 -13475378.539 8
 90  2 24  6 24 14.0800000  0  4G 6G12G11G13
  21771301.927    21771305.151     6917831.640 9   3842141.799 8
  21813196.368    21813199.972   -37312453.171 9  43987427.526 9
  21398125.072    21398128.187     3115025.408 8    851504.491 8
  20850684.956    20850687.667   -15533263.974 9 -13485871.820 6
 90  2 24  6 24 29.0800000  0  4G 6G12G11G13
  21779525.934    21779527.772     6961042.188 9   3875812.344 9
  21805765.025    21805767.361   -37351511.441 9  43956992.517 9
  21403069.334    21403071.448     3141002.950 9    871746.726 9
  20848142.238    20848146.130   -15546625.216 9 -13496283.175 8
 90  2 24  6 24 44.0800000  0  4G 6G12G11G13
  21787770.604    21787771.855     7004368.844 9   3909573.356 9
  21798347.147    21798350.123   -37390483.847 9  43926624.419 9
  21408022.532    21408025.907     3167036.440 9    892032.559 7
  20845619.398    20845622.556   -15559881.037 9 -13506612.371 7
 90  2 24  6 24 59.0800000  0  4G 6G12G11G13
  21796036.367    21796039.291     7047811.312 8   3943424.616 8
  21790947.688    21790952.154   -37429370.090 9  43896323.464 8
  21412986.864    21412989.379     3193125.510 9    912361.697 8
  20843117.074    20843120.407   -15573031.685 9 -13516859.619 8
 90  2 24  6 25 14.0800000  0  4G 6G12G11G13
  21804327.026    21804328.547     7091369.343 9   3977365.922 9
  21783565.528    21783568.112   -37468169.698 9  43866090.013 9
  21417963.099    21417965.192     3219269.937 9    932733.980 8
  20840635.695    20840637.337   -15586077.446 9 -13527025.140 8
 90  2 24  6 25 29.0800000  0  4G 6G12G11G13
  21812636.802    21812639.684     7135042.613 9   4011397.022 9
  21776198.461    21776200.329   -37506882.373 9  43835924.302 9
  21422948.451    21422950.515     3245469.352 9    953149.102 9
  20838172.813    20838174.259   -15599018.393 9 -13537108.978 6
 90  2 24  6 25 44.0800000  0  4G 6G12G11G13
  21820969.645    21820972.054     7178830.814 9   4045517.684 9
  21768847.433    21768850.913   -37545507.811 9  43805826.562 8
  21427943.525    21427947.176     3271723.495 8    973606.889 9
  20835730.402    20835732.415   -15611854.534 9 -13547111.138 8
 90  2 24  6 25 59.0800000  0  4G 6G12G11G13
  21829324.838    21829326.791     7222733.744 9   4079727.733 8
  21761514.762    21761516.858   -37584045.737 9  43775797.025 9
  21432949.803    21432953.097     3298032.250 9    994107.202 9
  20833307.433    20833308.922   -15624585.987 9 -13557031.754 7
 90  2 24  6 26 14.0800000  0  4G 6G12G11G13
  21837699.781    21837703.691     7266751.137 9   4114026.985 9
  21754198.227    21754200.545   -37622495.812 9  43745835.927 9
  21437966.513    21437969.706     3324395.317 9   1014649.843 8
  20830904.218    20830906.739   -15637212.998 9 -13566870.979 7
 90  2 24  6 26 29.0800000  0  4G 6G12G11G13
  21846097.672    21846100.898     7310882.612 9   4148415.133 8
  21746898.486    21746901.122   -37660857.527 9  43715943.691 9
  21442993.847    21442996.640     3350812.370 9   1035234.558 8
  20828521.766    20828523.105   -15649735.245 9 -13576628.556 8
 90  2 24  6 26 44.0800000  0  4G 6G12G11G13
  21854518.058    21854519.769     7355128.011 9   4182892.051 8
  21739613.944    21739616.734   -37699130.459 9  43686120.641 8
  21448031.297    21448033.718     3377283.138 9   1055861.136 9
  20826159.308    20826160.477   -15662153.187 9 -13586304.855 8
 90  2 24  6 26 59.0800000  0  4G 6G12G11G13
  21862959.107    21862961.747     7399487.033 9   4217457.515 8
  21732349.228    21732350.960   -37737314.316 9  43656367.000 9
  21453078.722    21453081.169     3403807.222 9   1076529.245 8
  20823815.387    20823818.705   -15674466.981 9 -13595900.011 7
 90  2 24  6 27 14.0800000  0  4G 6G12G11G13
  21871421.422    21871424.533     7443959.374 9   4252111.259 9
  21725099.508    21725102.033   -37775408.765 9  43626683.018 9
  21458136.548    21458138.790     3430384.489 9   1097238.795 8
  20821491.587    20821493.071   -15686676.546 9 -13605413.946 7
 90  2 24  6 27 29.0800000  0  4G 6G12G11G13
  21879905.740    21879908.509     7488544.748 9   4286853.093 8
  21717867.541    21717870.493   -37813413.409 9  43597069.016 9
  21463203.977    21463206.577     3457014.627 9   1117989.541 8
  20819187.582    20819191.359   -15698782.227 9 -13614846.931 8
 90  2 24  6 27 44.0800000  0  4G 6G12G11G13
  21888411.840    21888414.151     7533242.890 9   4321682.795 9
  21710652.299    21710655.085   -37851327.832 9  43567525.329 9
  21468281.414    21468284.122     3483697.374 9   1138781.290 9
  20816903.479    20816907.951   -15710783.938 9 -13624198.907 7
 90  2 24  6 27 59.0800000  0  4G 6G12G11G13
  21896939.345    21896941.584     7578053.559 9   4356600.176 9
  21703454.678    21703456.885   -37889151.852 9  43538052.078 9
  21473368.761    21473370.754     3510432.425 9   1159613.794 8
  20814640.248    20814643.488   -15722681.716 9 -13633469.891 7
 90  2 24  6 28 14.0800000  0  4G 6G12G11G13
  21905487.742    21905491.254     7622976.404 9   4391604.976 8
  21696273.034    21696277.105   -37926884.913 9  43508649.705 8
  21478466.541    21478468.674     3537219.558 9   1180486.874 9
  20812395.811    20812397.850   -15734475.950 9 -13642660.183 8
 90  2 24  6 28 29.0800000  0  4G 6G12G11G13
  21914056.601    21914060.785     7668011.220 9   4426697.032 9
  21689111.451    21689113.929   -37964526.650 9  43479318.491 8
  21483573.776    21483575.389     3564058.493 9   1201400.334 8
  20810171.329    20810173.252   -15746166.803 9 -13651769.929 8
 90  2 24  6 28 44.0800000  0  4G 6G12G11G13
  21922647.983    21922651.266     7713157.703 9   4461876.090 9
  21681965.408    21681968.613   -38002076.851 9  43450058.597 9
  21488690.365    21488693.142     3590948.984 9   1222353.943 8
  20807966.085    20807968.506   -15757754.240 9 -13660799.102 8
 90  2 24  6 28 59.0800000  0  4G 6G12G11G13
  21931259.913    21931263.223     7758415.565 9   4497141.950 9
  21674837.726    21674840.539   -38039534.972 9  43420870.471 9
  21493815.846    21493819.568     3617890.732 8   1243347.518 9
  20805779.777    20805783.250   -15769238.422 9 -13669747.804 8
 90  2 24  6 29 14.0800000  0  4G 6G12G11G13
  21939893.764    21939896.674     7803784.508 9   4532494.352 8
  21667727.481    21667729.632   -38076900.724 9  43391754.316 9
  21498954.548    21498957.254     3644883.494 9   1264380.826 9
  20803614.476    20803617.311   -15780619.368 9 -13678616.060 7
 90  2 24  6 29 29.0800000  0  4G 6G12G11G13
  21948550.424    21948551.831     7849264.266 9   4567933.100 9
  21660634.365    21660637.344   -38114173.835 9  43362710.334 9
  21504099.324    21504102.840     3671926.928 9   1285453.634 8
  20801469.261    20801472.110   -15791897.193 9 -13687403.969 8
 90  2 24  6 29 44.0800000  0  4G 6G12G11G13
  21957223.968    21957226.807     7894854.524 9   4603457.972 9
  21653558.927    21653562.032   -38151354.002 9  43333738.790 8
  21509255.056    21509258.756     3699020.914 8   1306565.818 8
  20799342.159    20799343.790   -15803072.014 9 -13696111.609 7
 90  2 24  6 29 59.0800000  0  4G 6G12G11G13
  21965921.323    21965923.119     7940555.000 8   4639068.703 9
  21646501.758    21646504.220   -38188440.636 9  43304840.115 9
  21514421.910    21514424.332     3726165.150 9   1327717.174 9
  20797235.681    20797238.316   -15814144.127 9 -13704739.211 8
 90  2 24  6 30 14.0800000  0  4G 6G12G11G13
  21974639.342    21974640.508     7986365.460 9   4674765.161 8
  21639462.801    21639465.932   -38225433.507 9  43276014.516 8
  21519595.091    21519597.922     3753359.416 9   1348907.498 7
  20795147.333    20795150.677   -15825113.585 9 -13713286.827 7
 90  2 24  6 30 29.0800000  0  4G 6G12G11G13
  21983377.048    21983380.403     8032285.490 9   4710546.973 8
  21632439.738    21632442.509   -38262332.267 9  43247262.244 8
  21524779.926    21524782.856     3780603.209 8   1370136.422 9
  20793080.079    20793082.490   -15835980.578 8 -13721754.598 7
 90  2 24  6 30 44.0800000  0  4G 6G12G11G13
  21992136.592    21992138.932     8078314.940 9   4746414.061 8
  21625437.308    21625440.327   -38299136.520 9  43218583.620 8
  21529973.348    21529976.399     3807896.399 9   1391403.848 8
  20791030.764    20791034.103   -15846745.161 9 -13730142.583 7
 90  2 24  6 30 59.0800000  0  4G 6G12G11G13
  22000915.539    22000917.778     8124453.383 9   4782366.076 9
  21618452.165    21618454.111   -38335845.995 9  43189978.841 8
  21535177.264    21535179.649     3835238.619 8   1412709.458 9
  20789002.917    20789005.517   -15857407.465 9 -13738450.861 8
 90  2 24  6 31 14.0800000  0  4G 6G12G11G13
  22009716.379    22009719.003     8170700.664 9   4818402.902 8
  21611484.697    21611486.872   -38372460.271 9  43161448.247 9
  21540389.631    21540392.874     3862629.710 9   1434053.171 8
  20786993.166    20786995.521   -15867967.591 9 -13746679.508 8
 90  2 24  6 31 29.0800000  0  4G 6G12G11G13
  22018538.682    22018541.793     8217056.433 9   4854524.255 8
  21604533.925    21604537.566   -38408979.008 9  43132992.088 9
  21545610.862    21545614.263     3890069.443 9   1455434.766 8
  20785002.427    20785005.904   -15878425.629 8 -13754828.624 7
 90  2 24  6 31 44.0800000  0  4G 6G12G11G13
  22027379.158    22027382.655     8263520.383 9   4890729.899 8
  21597604.569    21597606.693   -38445401.816 9  43104610.705 8
  21550841.565    21550844.802     3917557.447 9   1476853.979 7
  20783032.366    20783033.922   -15888781.836 9 -13762898.385 7
 90  2 24  6 31 59.0800000  0  4G 6G12G11G13
  22036242.642    22036243.508     8310092.204 9   4927019.632 8
  21590691.304    21590694.006   -38481728.284 9  43076304.363 8
  21556081.470    21556085.043     3945093.437 9   1498310.601 8
  20781081.050    20781084.407   -15899036.341 9 -13770888.900 8
 90  2 24  6 32 14.0800000  0  4G 6G12G11G13
  22045125.503    22045127.598     8356771.635 9   4963393.209 8
  21583796.689    21583799.202   -38517958.126 9  43048073.320 9
  21561330.231    21561334.212     3972677.223 9   1519804.449 9
  20779149.176    20779151.977   -15909189.330 9 -13778800.298 8
 90  2 24  6 32 29.0800000  0  4G 6G12G11G13
  22054027.908    22054031.278     8403558.302 9   4999850.315 9
  21576920.580    21576923.844   -38554090.891 9  43019917.935 8
  21566588.530    21566592.068     4000308.646 9   1541335.416 8
  20777236.059    20777238.365   -15919240.834 9 -13786632.636 7
 90  2 24  6 32 44.0800000  0  4G 6G12G11G13
  22062951.578    22062954.489     8450452.082 9   5036390.898 8
  21570064.252    21570066.658   -38590126.356 9  42991838.366 9
  21571856.173    21571858.809     4027987.307 9   1562903.198 9
  20775342.070    20775344.497   -15929191.005 9 -13794386.007 8
 90  2 24  6 32 59.0800000  0  4G 6G12G11G13
  22071895.253    22071896.933     8497452.557 9   5073014.637 8
  21563224.439    21563227.650   -38626064.179 9  42963834.872 8
  21577131.592    21577134.786     4055712.937 9   1584507.583 8
  20773467.620    20773471.179   -15939039.777 9 -13802060.365 8
 90  2 24  6 33 14.0800000  0  4G 6G12G11G13
  22080859.331    22080862.286     8544559.370 9   5109721.219 8
  21556405.039    21556407.993   -38661904.007 9  42935907.732 8
  21582417.186    21582420.164     4083485.269 9   1606148.359 8
  20771613.406    20771615.083   -15948787.456 9 -13809655.957 8
 90  2 24  6 33 29.0800000  0  4G 6G12G11G13
  22089844.101    22089847.685     8591772.413 9   5146510.573 9
  21549602.703    21549605.432   -38697645.483 9  42908057.253 9
  21587710.964    21587713.643     4111304.065 9   1627825.315 8
  20769777.347    20769779.804   -15958434.142 9 -13817172.840 8
 90  2 24  6 33 44.0800000  0  4G 6G12G11G13
  22098849.075    22098850.055     8639091.164 8   5183382.314 9
  21542820.857    21542823.179   -38733288.277 9  42880283.652 9
  21593013.736    21593015.414     4139169.081 8   1649538.315 8
  20767961.520    20767963.527   -15967979.972 9 -13824611.147 8
 90  2 24  6 33 59.0800000  0  4G 6G12G11G13
  22107872.595    22107874.632     8686515.461 9   5220336.296 9
  21536056.919    21536059.360   -38768831.896 9  42852587.341 8
  21598324.199    21598326.556     4167079.978 9   1671287.056 8
  20766164.107    20766165.826   -15977425.037 9 -13831970.926 7
 90  2 24  6 34 14.0800000  0  4G 6G12G11G13
  22116917.034    22116920.604     8734044.956 9   5257372.239 8
  21529311.873    21529314.475   -38804276.050 9  42824968.521 9
  21603645.502    21603645.833     4195036.489 9   1693071.337 8
  20764385.710    20764386.493   -15986769.763 9 -13839252.526 8
 90  2 24  6 34 29.0800000  0  4G 6G12G11G13
  22125981.049    22125986.150     8781679.241 9   5294489.818 8
  21522586.402    21522588.996   -38839620.418 9  42797427.476 8
  21608972.893    21608975.670     4223038.337 9   1714890.955 9
  20762625.686    20762629.631   -15996014.222 9 -13846455.986 8
 90  2 24  6 34 44.0800000  0  4G 6G12G11G13
  22135067.241    22135068.667     8829418.180 9   5331688.988 8
  21515879.319    21515882.613   -38874864.573 9  42769964.506 8
  21614310.321    21614313.822     4251085.438 8   1736745.822 9
  20760886.064    20760889.530   -16005158.430 9 -13853581.332 8
 90  2 24  6 34 59.0800000  0  4G 6G12G11G13
  22144170.550    22144173.160     8877261.396 9   5368969.404 9
  21509191.947    21509194.286   -38910007.975 9  42742580.050 8
  21619656.284    21619658.462     4279177.504 9   1758635.740 8
  20759164.681    20759168.028   -16014202.483 9 -13860628.644 8
 90  2 24  6 35 14.0800000  0  4G 6G12G11G13
  22153294.031    22153298.560     8925208.692 9   5406330.883 9
  21502524.016    21502525.940   -38945050.462 9  42715274.221 8
  21625010.455    21625012.912     4307314.224 9   1780560.442 9
  20757462.698    20757466.397   -16023146.523 9 -13867598.016 8
 90  2 24  6 35 29.0800000  0  4G 6G12G11G13
  22162439.953    22162441.691     8973259.611 9   5443773.153 8
  21495875.084    21495876.365   -38979991.746 9  42688047.247 9
  21630373.476    21630375.210     4335495.287 9   1802519.713 8
  20755780.370    20755782.896   -16031990.798 9 -13874489.642 7
 90  2 24  6 35 44.0800000  0  4G 6G12G11G13
  22171602.671    22171603.393     9021413.864 9   5481295.948 8
  21489245.021    21489247.132   -39014831.594 9  42660899.327 8
  21635743.808    21635746.631     4363720.486 9   1824513.356 8
  20754116.408    20754119.269   -16040735.408 9 -13881303.607 8
 90  2 24  6 35 59.0800000  0  4G 6G12G11G13
  22180785.539    22180787.705     9069671.209 9   5518899.038 8
  21482633.840    21482636.673   -39049569.552 9  42633830.791 9
  21641123.306    21641126.363     4391989.589 9   1846541.235 8
  20752471.122    20752473.446   -16049380.373 9 -13888039.939 8
 90  2 24  6 36 14.0800000  0  4G 6G12G11G13
  22189989.268    22189992.150     9118031.311 8   5556582.210 8
  21476043.284    21476045.547   -39084205.179 9  42606842.009 9
  21646511.161    21646513.832     4420302.369 9   1868603.126 8
  20750844.838    20750848.244   -16057925.943 9 -13894698.822 8
 90  2 24  6 36 29.0800000  0  4G 6G12G11G13
  22199208.909    22199213.794     9166493.811 9   5594345.152 8
  21469471.150    21469474.319   -39118738.174 9  42579933.192 8
  21651908.215    21651910.014     4448658.453 9   1890698.767 8
  20749237.919    20749241.350   -16066372.315 9 -13901280.400 7
 90  2 24  6 36 44.0800000  0  4G 6G12G11G13
  22208453.762    22208452.867     9215058.488 9   5632187.766 8
  21462920.272    21462921.939   -39153168.093 9  42553104.686 8
  21657311.152    21657314.831     4477057.497 9   1912827.883 8
  20747650.114    20747651.616   -16074719.604 9 -13907784.759 8
 90  2 24  6 36 59.0800000  0  4G 6G12G11G13
  22217712.410    22217716.064     9263724.951 9   5670109.667 8
  21456387.443    21456390.662   -39187494.687 9  42526356.705 9
  21662723.468    21662727.227     4505499.345 9   1934990.343 9
  20746080.310    20746081.686   -16082968.103 9 -13914212.161 7
 90  2 24  6 37 14.0800000  0  4G 6G12G11G13
  22226991.548    22226995.575     9312492.884 9   5708110.615 8
  21449875.768    21449877.758   -39221717.598 9  42499689.513 9
  21668143.854    21668147.141     4533983.772 9   1957185.999 9
  20744528.094    20744530.737   -16091117.868 9 -13920562.613 8
 90  2 24  6 37 29.0800000  0  4G 6G12G11G13
  22236293.811    22236294.490     9361362.029 9   5746190.446 7
  21443383.033    21443385.558   -39255836.483 9  42473103.376 9
  21673573.590    21673575.124     4562510.506 8   1979414.610 8
  20742997.258    20742999.597   -16099168.805 9 -13926836.070 8
 90  2 24  6 37 44.0800000  0  4G 6G12G11G13
  22245609.638    22245612.936     9410332.054 8   5784348.900 8
  21436909.866    21436913.071   -39289850.973 9  42446598.583 8
  21679009.159    21679011.529     4591079.377 9   2001676.073 8
  20741483.222    20741484.861   -16107121.171 9 -13933032.701 8
 90  2 24  6 37 59.0800000  0  4G 6G12G11G13
  22254947.874    22254951.442     9459402.567 9   5822585.634 7
  21430457.500    21430459.277   -39323760.743 9  42420175.396 9
  21684453.470    21684456.013     4619689.999 9   2023970.060 8
  20739988.881    20739990.913   -16114975.309 9 -13939152.792 8
 90  2 24  6 38 14.0800000  0  4G 6G12G11G13
  22264305.856    22264308.294     9508573.325 9   5860900.490 8
  21424024.987    21424026.954   -39357565.336 9  42393834.168 9
  21689906.173    21689908.194     4648342.098 8   2046296.360 9
  20738512.755    20738515.573   -16122731.333 9 -13945196.447 8
 90  2 24  6 38 29.0800000  0  4G 6G12G11G13
  22273680.865    22273683.749     9557844.022 9   5899293.231 8
  21417610.798    21417614.277   -39391264.487 9  42367575.091 8
  21695366.003    21695367.845     4677035.425 9   2068654.796 9
  20737056.458    20737057.235   -16130389.239 9 -13951163.626 8
 90  2 24  6 38 44.0800000  0  4G 6G12G11G13
  22283075.651    22283079.493     9607214.305 8   5937763.556 8
  21411220.224    21411221.965   -39424857.949 9  42341398.382 9
  21700834.261    21700836.688     4705769.760 9   2091045.175 8
  20735616.728    20735618.706   -16137949.259 9 -13957054.550 7
 90  2 24  6 38 59.0800000  0  4G 6G12G11G13
  22292491.415    22292492.966     9656683.885 9   5976311.255 8
  21404846.318    21404849.588   -39458345.305 9  42315304.344 8
  21706310.038    21706312.087     4734544.864 9   2113467.330 9
  20734196.855    20734199.259   -16145411.393 9 -13962869.183 8
 90  2 24  6 39 14.0800000  0  4G 6G12G11G13
  22301922.204    22301924.855     9706252.403 8   6014936.068 9
  21398495.522    21398497.175   -39491726.126 9  42289293.327 8
  21711792.569    21711796.013     4763360.611 9   2135921.141 9
  20732795.086    20732797.640   -16152775.952 9 -13968607.795 8
 90  2 24  6 39 29.0800000  0  4G 6G12G11G13
  22311372.821    22311376.777     9755919.572 8   6053637.722 8
  21392162.411    21392165.246   -39525000.193 9  42263365.492 8
  21717284.544    21717288.317     4792216.512 8   2158406.259 8
  20731412.239    20731414.463   -16160043.101 9 -13974270.495 7
 90  2 24  6 39 44.0800000  0  4G 6G12G11G13
  22320844.363    22320847.533     9805685.094 9   6092416.020 8
  21385851.884    21385852.939   -39558167.178 9  42237521.090 8
  21722783.017    21722786.188     4821112.431 8   2180922.537 8
  20730048.625    20730050.445   -16167213.144 9 -13979857.553 8
 90  2 24  6 39 59.0800000  0  4G 6G12G11G13
  22330334.132    22330335.642     9855548.586 8   6131270.672 8
  21379559.642    21379564.088   -39591226.706 9  42211760.428 8
  21728289.830    21728292.372     4850048.054 9   2203469.771 8
  20728702.610    20728704.448   -16174286.170 9 -13985368.984 7
 90  2 24  6 40 14.0800000  0  4G 6G12G11G13
  22339839.901    22339841.440     9905509.752 9   6170201.460 8
  21373289.678    21373291.851   -39624178.336 9  42186083.841 8
  21733802.009    21733805.411     4879023.166 9   2226047.771 9
  20727374.762    20727376.418   -16181262.090 9 -13990804.755 7
 90  2 24  6 40 29.0800000  0  4G 6G12G11G13
  22349366.416    22349370.315     9955568.259 9   6209208.061 7
  21367039.860    21367042.148   -39657021.782 9  42160491.559 8
  21739324.205    21739328.014     4908037.611 9   2248656.403 8
  20726066.043    20726068.749   -16188141.199 9 -13996165.093 8
 90  2 24  6 40 44.0800000  0  4G 6G12G11G13
  22358910.990    22358914.976    10005723.770 9   6248290.237 9
  21360811.017    21360812.173   -39689756.630 9  42134983.892 8
  21744852.590    21744855.933     4937091.086 9   2271295.474 9
  20724775.103    20724777.571   -16194923.633 9 -14001450.098 8
 90  2 24  6 40 59.0800000  0  4G 6G12G11G13
  22368471.848    22368475.103    10055976.049 9   6287447.846 8
  21354602.466    21354604.323   -39722382.484 9  42109561.150 9
  21750388.159    21750391.902     4966183.202 9   2293964.647 9
  20723502.361    20723504.100   -16201609.515 9 -14006659.880 7
 90  2 24  6 41 14.0800000  0  4G 6G12G11G13
  22378055.858    22378055.078    10106324.626 9   6326680.496 8
  21348414.494    21348417.096   -39754899.228 9  42084223.445 9
  21755931.790    21755935.384     4995313.799 9   2316663.795 8
  20722248.911    20722250.696   -16208199.162 9 -14011794.654 7
 90  2 24  6 41 29.0800000  0  4G 6G12G11G13
  22387654.035    22387656.660    10156769.217 9   6365987.946 8
  21342247.812    21342249.085   -39787306.409 9  42058971.104 8
  21761482.569    21761486.242     5024482.613 8   2339392.729 8
  20721013.344    20721015.967   -16214692.493 9 -14016854.389 8
 90  2 24  6 41 44.0800000  0  4G 6G12G11G13
  22397270.584    22397273.954    10207309.636 9   6405370.066 8
  21336101.705    21336103.401   -39819603.643 9  42033804.425 8
  21767041.432    21767044.818     5053689.397 9   2362151.258 8
  20719795.792    20719798.435   -16221089.814 9 -14021839.314 8
 90  2 24  6 41 59.0800000  0  4G 6G12G11G13
  22406906.737    22406908.976    10257945.394 9   6444826.474 8
  21329977.110    21329978.651   -39851790.678 9  42008723.627 8
  21772606.290    21772609.219     5082933.896 9   2384939.179 8
  20718596.996    20718600.333   -16227391.289 9 -14026749.550 7
 90  2 24  6 42 14.0800000  0  4G 6G12G11G13
  22416561.349    22416563.945    10308676.204 9   6484356.985 9
  21323872.604    21323874.919   -39883866.978 9  41983729.118 8
  21778178.926    21778180.239     5112215.898 9   2407756.326 8
  20717415.128    20717417.368   -16233596.906 9 -14031585.073 8
 90  2 24  6 42 29.0800000  0  4G 6G12G11G13
  22426231.443    22426234.855    10359501.658 9   6523961.194 8
  21317790.024    21317792.431   -39915832.395 9  41958821.005 8
  21783757.107    21783760.629     5141535.158 9   2430602.483 8
  20716252.852    20716255.666   -16239707.035 9 -14036346.203 8
 90  2 24  6 42 44.0800000  0  4G 6G12G11G13
  22435921.398    22435924.497    10410421.629 9   6563639.063 8
  21311728.152    21311730.295   -39947686.576 9  41933999.570 8
  21789343.236    21789345.407     5170891.495 8   2453477.535 9
  20715108.829    20715109.819   -16245721.714 9 -14041032.971 8
 90  2 24  6 42 59.0800000  0  4G 6G12G11G13
  22445629.613    22445632.352    10461435.638 9   6603390.241 8
  21305687.780    21305690.187   -39979429.227 9  41909265.048 8
  21794937.602    21794939.966     5200284.639 9   2476381.278 8
  20713981.450    20713984.373   -16251641.455 9 -14045645.738 8
 90  2 24  6 43 14.0800000  0  4G 6G12G11G13
  22455355.685    22455358.224    10512543.341 9   6643214.406 8
  21299667.777    21299669.891   -40011060.109 9  41884617.611 8
  21800537.547    21800540.490     5229714.340 9   2499313.495 8
  20712873.002    20712875.474   -16257466.064 9 -14050184.385 8
 90  2 24  6 43 29.0800000  0  4G 6G12G11G13
  22465098.327    22465101.968    10563744.479 9   6683111.363 9
  21293670.694    21293672.758   -40042578.675 9  41860057.693 9
  21806144.661    21806148.234     5259180.241 9   2522273.938 8
  20711782.671    20711785.180   -16263195.691 9 -14054649.035 8
 90  2 24  6 43 44.0800000  0  4G 6G12G11G13
  22474858.970    22474862.183    10615038.648 9   6723080.817 9
  21287694.595    21287695.894   -40073984.660 9  41835585.515 8
  21811758.178    21811761.250     5288682.098 8   2545262.383 9
  20710710.782    20710713.662   -16268830.743 9 -14059039.967 7
 90  2 24  6 43 59.0800000  0  4G 6G12G11G13
  22484639.246    22484639.294    10666425.592 9   6763122.585 9
  21281739.846    21281741.905   -40105277.573 9  41811201.426 8
  21817379.307    21817382.044     5318219.647 9   2568278.651 8
  20709655.966    20709657.969   -16274371.363 9 -14063357.322 8
 90  2 24  6 44 14.0800000  0  4G 6G12G11G13
  22494434.917    22494437.956    10717904.923 9   6803236.350 9
  21275805.766    21275807.820   -40136457.225 9  41786905.596 8
  21823007.622    21823010.249     5347792.645 9   2591322.527 7
  20708619.698    20708621.975   -16279817.798 9 -14067601.304 7
 90  2 24  6 44 29.0800000  0  4G 6G12G11G13
  22504245.757    22504252.646    10769476.430 8   6843421.860 9
  21269894.614    21269896.875   -40167523.415 9  41762698.183 8
  21828641.243    21828644.544     5377400.974 9   2614393.943 8
  20707601.405    20707604.725   -16285169.975 9 -14071771.822 7
 90  2 24  6 44 44.0800000  0  4G 6G12G11G13
  22514080.865    22514080.943    10821139.557 9   6883678.825 8
  21264004.224    21264006.070   -40198475.718 9  41738579.513 9
  21834281.569    21834285.792     5407044.320 8   2637492.654 8
  20706600.598    20706603.366   -16290428.031 9 -14075869.001 7
 90  2 24  6 44 59.0800000  0  4G 6G12G11G13
  22523929.395    22523929.558    10872894.026 9   6924007.002 8
  21258136.577    21258139.775   -40229313.777 9  41714549.855 9
  21839929.400    21839932.122     5436722.543 9   2660618.526 9
  20705617.821    20705620.393   -16295592.173 9 -14079893.013 8
 90  2 24  6 45 14.0800000  0  4G 6G12G11G13
  22533792.606    22533797.219    10924739.673 9   6964406.161 9
  21252289.969    21252292.173   -40260037.218 9  41690609.516 8
  21845583.628    21845586.570     5466435.367 9   2683771.362 7
  20704652.570    20704656.099   -16300662.615 9 -14083843.992 7
 90  2 24  6 45 29.0800000  0  4G 6G12G11G13
  22543676.823    22543680.708    10976676.002 9   7004875.966 9
  21246465.000    21246467.792   -40290645.735 9  41666758.732 7
  21851244.529    21851247.829     5496182.448 9   2706950.907 9
  20703706.079    20703707.833   -16305639.597 8 -14087722.156 7
 90  2 24  6 45 44.0800000  0  4G 6G12G11G13
  22553578.441    22553578.975    11028702.710 9   7045416.266 8
  21240662.730    21240665.055   -40321138.952 9  41642997.787 9
  21856911.906    21856914.255     5525963.527 9   2730156.940 8
  20702777.234    20702780.016   -16310523.329 9 -14091527.653 7
 90  2 24  6 45 59.0800000  0  4G 6G12G11G13
  22563494.567    22563496.105    11080819.498 9   7086026.764 8
  21234882.654    21234884.874   -40351516.633 9  41619326.881 7
  21862585.859    21862588.221     5555778.375 9   2753389.271 8
  20701865.137    20701867.391   -16315313.906 9 -14095260.561 8
 90  2 24  6 46 14.0800000  0  4G 6G12G11G13
  22573426.406    22573432.522    11133026.026 9   7126707.111 9
  21229122.812    21229125.445   -40381778.345 9  41595746.322 8
  21868266.013    21868269.621     5585626.857 9   2776647.817 8
  20700971.191    20700974.130   -16320011.441 9 -14098920.972 8
 90  2 24  6 46 29.0800000  0  4G 6G12G11G13
  22583382.743    22583385.768    11185321.944 9   7167457.128 9
  21223386.483    21223389.119   -40411923.837 9  41572256.339 8
  21873951.442    21873953.950     5615508.706 9   2799932.367 8
  20700095.454    20700098.029   -16324616.159 9 -14102509.062 7
 90  2 24  6 46 44.0800000  0  4G 6G12G11G13
  22593350.152    22593353.965    11237706.808 9   7208276.497 9
  21217672.210    21217674.142   -40441952.728 9  41548857.202 7
  21879644.497    21879646.704     5645423.744 9   2823242.771 9
  20699235.732    20699239.176   -16329128.237 9 -14106024.969 8
 90  2 24  6 46 59.0800000  0  4G 6G12G11G13
  22603332.101    22603335.428    11290180.407 9   7249164.994 8
  21211980.331    21211981.845   -40471864.735 9  41525549.152 7
  21885343.605    21885346.555     5675371.608 9   2846578.766 8
  20698395.868    20698398.605   -16333547.988 9 -14109468.918 7
 90  2 24  6 47 14.0800000  0  4G 6G12G11G13
  22613338.514    22613338.908    11342742.328 9   7290122.324 8
  21206310.113    21206312.867   -40501659.501 9  41502332.441 7
  21891049.288    21891051.423     5705352.127 9   2869940.204 8
  20697572.792    20697574.834   -16337875.268 9 -14112840.825 8
 90  2 24  6 47 29.0800000  0  4G 6G12G11G13
  22623357.284    22623360.200    11395392.231 9   7331148.209 9
  21200663.305    21200665.373   -40531336.699 9  41479207.364 8
  21896758.891    21896762.006     5735365.094 9   2893326.925 9
  20696766.516    20696768.172   -16342110.378 9 -14116140.907 8
 90  2 24  6 47 44.0800000  0  4G 6G12G11G13
  22633389.230    22633396.811    11448129.871 9   7372242.389 9
  21195038.046    21195040.429   -40560896.060 9  41456174.098 8
  21902477.597    21902480.697     5765410.286 9   2916738.743 9
  20695977.170    20695980.022   -16346253.623 9 -14119369.400 7
 90  2 24  6 47 59.0800000  0  4G 6G12G11G13
  22643444.625    22643446.029    11500954.707 9   7413404.592 8
  21189435.882    21189437.578   -40590337.216 9  41433232.948 8
  21908201.508    21908203.036     5795487.432 9   2940175.474 9
  20695207.015    20695208.833   -16350304.962 9 -14122526.280 7
 90  2 24  6 48 14.0800000  0  4G 6G12G11G13
  22653513.907    22653514.209    11553866.581 9   7454634.666 9
  21183856.041    21183857.780   -40619659.787 9  41410384.196 7
  21913930.179    21913933.637     5825596.138 9   2963636.793 9
  20694452.517    20694455.705   -16354264.734 9 -14125611.826 7
 90  2 24  6 48 29.0800000  0  4G 6G12G11G13
  22663596.303    22663601.442    11606865.104 9   7495932.163 9
  21178298.636    21178300.288   -40648863.469 9  41387628.075 8
  21919666.827    21919669.019     5855736.291 9   2987122.629 9
  20693717.066    20693718.934   -16358132.868 9 -14128625.943 7
 90  2 24  6 48 44.0800000  0  4G 6G12G11G13
  22673700.023    22673703.883    11659949.933 9   7537296.911 9
  21172764.411    21172766.466   -40677947.948 9  41364964.850 7
  21925407.560    21925409.925     5885907.617 9   3010632.732 9
  20692998.424    20693001.425   -16361909.783 9 -14131568.998 8
 90  2 24  6 48 59.0800000  0  4G 6G12G11G13
  22683816.300    22683819.983    11713120.734 9   7578728.689 8
  21167251.681    21167253.837   -40706912.789 9  41342394.856 8
  21931154.504    21931158.162     5916109.889 8   3034166.978 9
  20692297.891    20692299.000   -16365595.766 9 -14134441.182 8
 90  2 24  6 49 14.0800000  0  4G 6G12G11G13
  22693952.666    22693953.552    11766377.044 9   7620227.113 7
  21161762.389    21161765.172   -40735757.765 9  41319918.244 9
  21936906.541    21936910.715     5946342.829 9   3057725.102 8
  20691612.710    20691616.061   -16369190.945 9 -14137242.604 8
 90  2 24  6 49 29.0800000  0  4G 6G12G11G13
  22704101.600    22704106.203    11819718.589 9   7661791.940 9
  21156296.248    21156298.615   -40764482.644 9  41297535.231 8
  21942666.792    21942669.614     5976606.157 9   3081306.900 9
  20690946.066    20690948.558   -16372695.337 9 -14139973.300 8
 90  2 24  6 49 44.0800000  0  4G 6G12G11G13
  22714269.279    22714272.865    11873144.983 9   7703422.845 9
  21150854.375    21150857.100   -40793087.119 9  41275246.045 7
  21948430.507    21948433.579     6006899.764 8   3104912.303 9
  20690295.787    20690299.530   -16376109.309 8 -14142633.543 8
 90  2 24  6 49 59.0800000  0  4G 6G12G11G13
  22724453.933    22724456.793    11926655.833 9   7745119.601 9
  21145433.050    21145435.949   -40821570.815 9  41253050.942 8
  21954200.896    21954204.333     6037223.481 9   3128541.157 9
  20689664.148    20689666.822   -16379432.924 9 -14145223.369 7
 90  2 24  6 50 14.0800000  0  4G 6G12G11G13
  22734648.774    22734653.526    11980250.944 8   7786881.997 8
  21140036.424    21140038.948   -40849933.470 9  41230950.192 8
  21959977.867    21959980.517     6067577.044 9   3152193.280 9
  20689048.408    20689050.496   -16382666.284 8 -14147742.851 7
 90  2 24  6 50 29.0800000  0  4G 6G12G11G13
  22744865.339    22744867.667    12033929.899 9   7828709.731 9
  21134661.605    21134664.173   -40878174.630 9  41208944.085 8
  21965758.909    21965762.545     6097960.091 9   3175868.370 9
  20688450.194    20688452.672   -16385809.731 9 -14150192.275 7
 90  2 24  6 50 44.0800000  0  4G 6G12G11G13
  22755098.857    22755099.923    12087692.312 9   7870602.503 9
  21129310.711    21129313.751   -40906294.028 9  41187032.872 8
  21971546.813    21971549.454     6128372.400 9   3199566.267 9
  20687869.398    20687870.868   -16388863.331 9 -14152571.709 7
 90  2 24  6 50 59.0800000  0  4G 6G12G11G13
  22765342.730    22765346.445    12141537.850 9   7912560.045 8
  21123982.253    21123985.837   -40934291.458 9  41165216.698 8
  21977340.262    21977341.973     6158813.751 9   3223286.789 9
  20687305.441    20687307.417   -16391827.387 9 -14154881.353 7
 90  2 24  6 51 14.0800000  0  4G 6G12G11G13
  22775603.614    22775607.832    12195466.254 9   7954582.131 9
  21118679.725    21118681.791   -40962166.542 9  41143495.864 8
  21983137.652    21983141.418     6189284.021 9   3247029.859 9
  20686757.742    20686760.960   -16394701.991 9 -14157121.301 8
 90  2 24  6 51 29.0800000  0  4G 6G12G11G13
  22785884.317    22785885.909    12249476.992 9   7996668.412 9
  21113396.999    21113400.884   -40989918.934 9  41121870.622 8
  21988941.145    21988944.375     6219782.907 9   3270795.200 9
  20686227.949    20686231.676   -16397487.488 9 -14159291.823 8
 90  2 24  6 51 44.0800000  0  4G 6G12G11G13
  22796178.136    22796180.545    12303569.835 9   8038818.678 9
  21108139.688    21108142.268   -41017548.428 9  41100341.157 9
  21994750.890    21994753.864     6250310.221 8   3294582.707 9
  20685715.232    20685716.723   -16400183.895 9 -14161392.910 6
 90  2 24  6 51 59.0800000  0  4G 6G12G11G13
  22806483.634    22806489.160    12357744.445 8   8081032.613 9
  21102905.441    21102908.853   -41045054.625 9  41078907.757 8
  22000564.674    22000568.182     6280865.734 9   3318392.187 9
  20685218.818    20685220.199   -16402791.431 9 -14163424.736 7
 90  2 24  6 52 14.0800000  0  4G 6G12G11G13
  22816808.843    22816813.896    12412000.444 9   8123309.949 9
  21097695.178    21097698.204   -41072437.266 9  41057570.634 8
  22006386.474    22006387.995     6311449.265 8   3342223.508 9
  20684739.006    20684741.992   -16405310.337 8 -14165387.528 8
 90  2 24  6 52 29.0800000  0  4G 6G12G11G13
  22827151.876    22827152.670    12466337.386 9   8165650.428 8
  21092508.494    21092511.192   -41099696.118 9  41036329.978 9
  22012210.531    22012212.966     6342060.460 9   3366076.372 9
  20684276.665    20684279.929   -16407740.830 8 -14167281.410 8
 90  2 24  6 52 44.0800000  0  4G 6G12G11G13
  22837506.384    22837507.374    12520755.007 8   8208053.800 9
  21087344.307    21087346.132   -41126830.717 9  41015186.139 8
  22018040.969    22018043.468     6372699.093 8   3389950.626 9
  20683832.782    20683833.024   -16410082.818 9 -14169106.329 7
 90  2 24  6 52 59.0800000  0  4G 6G12G11G13
  22847874.033    22847879.659    12575252.918 8   8250519.639 9
  21082204.359    21082207.029   -41153840.885 9  40994139.253 8
  22023876.136    22023879.514     6403364.954 9   3413846.093 9
  20683402.947    20683405.230   -16412336.581 9 -14170862.503 8
 90  2 24  6 53 14.0800000  0  4G 6G12G11G13
  22858262.546    22858265.758    12629830.816 9   8293047.830 9
  21077088.536    21077090.417   -41180726.099 9  40973189.745 8
  22029715.609    22029719.712     6434057.829 9   3437762.605 9
  20682991.190    20682991.948   -16414502.484 9 -14172550.218 7
 90  2 24  6 53 29.0800000  0  4G 6G12G11G13
  22868664.970    22868667.344    12684488.288 9   8335638.066 8
  21071995.923    21071998.534   -41207486.046 9  40952337.841 9
  22035561.523    22035564.881     6464777.590 9   3461700.061 8
  20682594.965    20682596.604   -16416580.406 9 -14174169.373 8
 90  2 24  6 53 44.0800000  0  4G 6G12G11G13
  22879078.216    22879080.594    12739225.041 8   8378290.063 9
  21066928.321    21066931.262   -41234120.561 9  40931583.679 9
  22041413.560    22041416.031     6495523.988 9   3485658.297 9
  20682215.752    20682217.752   -16418570.680 8 -14175720.222 8
 90  2 24  6 53 59.0800000  0  4G 6G12G11G13
  22889510.361    22889514.313    12794040.720 8   8421003.542 9
  21061883.501    21061885.726   -41260629.422 9  40910927.423 8
  22047268.930    22047271.188     6526296.753 9   3509637.070 9
  20681853.794    20681856.519   -16420473.426 9 -14177202.868 7
 90  2 24  6 54 14.0800000  0  4G 6G12G11G13
  22899956.632    22899960.593    12848934.904 9   8463778.197 9
  21056862.462    21056865.874   -41287012.317 9  40890369.328 9
  22053130.956    22053132.212     6557095.609 9   3533636.164 8
  20681508.316    20681510.757   -16422289.042 9 -14178617.630 7
 90  2 24  6 54 29.0800000  0  4G 6G12G11G13
  22910417.947    22910420.719    12903907.268 9   8506613.786 9
  21051866.349    21051868.216   -41313268.971 9  40869909.607 8
  22058996.008    22058998.078     6587920.265 9   3557655.379 9
  20681179.548    20681181.723   -16424017.839 9 -14179964.746 7
 90  2 24  6 54 44.0800000  0  4G 6G12G11G13
  22920890.694    22920894.717    12958957.398 9   8549509.971 8
  21046893.904    21046895.758   -41339398.840 9  40849548.674 9
  22064866.962    22064869.747     6618770.698 9   3581694.667 8
  20680867.277    20680869.630   -16425659.728 9 -14181244.137 8
 90  2 24  6 54 59.0800000  0  4G 6G12G11G13
  22931384.811    22931386.943    13014085.010 9   8592466.535 9
  21041945.843    21041948.883   -41365401.745 9  40829286.675 8
  22070741.157    22070745.124     6649646.594 9   3605753.782 9
  20680570.676    20680573.769   -16427214.971 8 -14182456.009 7
 90  2 24  6 55 14.0800000  0  4G 6G12G11G13
  22941888.613    22941892.788    13069289.657 9   8635483.119 9
  21037021.906    21037024.233   -41391277.335 9  40809123.872 8
  22076621.676    22076624.950     6680547.725 8   3629832.576 9
  20680290.585    20680294.092   -16428683.844 9 -14183600.572 8
 90  2 24  6 55 29.0800000  0  4G 6G12G11G13
  22952407.247    22952412.579    13124571.126 9   8678559.526 9
  21032121.751    21032123.818   -41417025.425 9  40789060.435 9
  22082507.047    22082510.734     6711473.875 9   3653930.861 9
  20680028.085    20680030.746   -16430066.502 9 -14184677.973 7
 90  2 24  6 55 44.0800000  0  4G 6G12G11G13
  22962943.388    22962945.196    13179928.880 9   8721695.437 8
  21027246.008    21027248.919   -41442645.582 9  40769096.671 8
  22088396.610    22088399.783     6742424.930 9   3678048.559 8
  20679782.931    20679783.943   -16431362.950 9 -14185688.187 7
 90  2 24  6 55 59.0800000  0  4G 6G12G11G13
  22973492.738    22973494.741    13235362.609 9   8764890.565 9
  21022395.163    21022398.733   -41468137.498 9  40749232.847 8
  22094290.861    22094294.005     6773400.628 9   3702185.453 8
  20679550.983    20679554.107   -16432573.222 9 -14186631.251 8
 90  2 24  6 56 14.0800000  0  4G 6G12G11G13
  22984052.411    22984058.302    13290872.077 9   8808144.624 9
  21017569.330    21017572.127   -41493501.029 9  40729469.066 9
  22100190.590    22100193.891     6804400.722 8   3726341.360 9
  20679337.840    20679339.296   -16433697.924 9 -14187507.632 8
 90  2 24  6 56 29.0800000  0  4G 6G12G11G13
  22994631.725    22994634.190    13346456.740 9   8851457.328 9
  21012766.906    21012770.019   -41518735.874 9  40709805.555 9
  22106094.413    22106097.213     6835424.962 9   3750516.095 8
  20679139.526    20679142.612   -16434737.187 9 -14188317.447 7
 90  2 24  6 56 44.0800000  0  4G 6G12G11G13
  23005224.330    23005225.825    13402116.302 9   8894828.410 9
  21007989.610    21007991.678   -41543841.683 9  40690242.584 7
  22112002.987    22112005.821     6866473.060 9   3774709.406 9
  20678958.849    20678961.255   -16435691.204 8 -14189060.825 8
 90  2 24  6 56 59.0800000  0  4G 6G12G11G13
  23015830.299    23015832.967    13457850.503 9   8938257.630 8
  21003237.298    21003240.239   -41568818.188 9  40670780.386 8
  22117915.236    22117918.753     6897544.781 9   3798921.127 9
  20678792.583    20678795.665   -16436560.320 8 -14189738.071 8
 90  2 24  6 57 14.0800000  0  4G 6G12G11G13
  23026449.481    23026453.270    13513658.928 9   8981744.687 9
  20998508.653    20998511.522   -41593665.088 9  40651419.168 8
  22123832.859    22123835.266     6928640.163 8   3823151.287 8
  20678642.699    20678645.524   -16437344.692 9 -14190349.267 7
 90  2 24  6 57 29.0800000  0  4G 6G12G11G13
  23037083.109    23037086.795    13569541.095 9   9025289.215 9
  20993805.507    20993807.219   -41618382.172 9  40632159.113 8
  22129753.853    22129758.299     6959758.832 9   3847399.587 9
  20678509.977    20678512.827   -16438044.296 9 -14190894.403 7
 90  2 24  6 57 44.0800000  0  4G 6G12G11G13
  23047729.291    23047735.436    13625496.797 7   9068891.025 9
  20989127.116    20989129.112   -41642968.967 9  40613000.574 8
  22135679.274    22135683.535     6990900.587 8   3871665.866 8
  20678393.084    20678396.344   -16438659.346 9 -14191373.656 9
 90  2 24  6 57 59.0800000  0  4G 6G12G11G13
  23058393.205    23058397.285    13681525.583 9   9112549.794 9
  20984473.222    20984473.804   -41667425.176 9  40593943.790 9
  22141610.743    22141614.416     7022065.217 9   3895949.995 9
  20678292.351    20678294.568   -16439190.319 8 -14191787.399 8
 90  2 24  6 58 14.0800000  0  4G 6G12G11G13
  23069069.633    23069072.008    13737627.183 9   9156265.312 8
  20979843.712    20979845.879   -41691750.676 9  40574988.862 8
  22147545.867    22147548.817     7053252.440 9   3920251.717 9
  20678207.157    20678209.743   -16439637.167 9 -14192135.587 8
 90  2 24  6 58 29.0800000  0  4G 6G12G11G13
  23079757.565    23079762.072    13793801.128 8   9200037.179 9
  20975239.471    20975242.440   -41715945.129 9  40556136.045 8
  22153484.037    22153487.074     7084461.998 9   3944570.852 9
  20678137.853    20678140.797   -16440000.121 9 -14192418.401 8
 90  2 24  6 58 44.0800000  0  4G 6G12G11G13
  23090463.123    23090465.854    13850047.133 9   9243865.202 9
  20970660.300    20970663.312   -41740008.156 9  40537385.634 9
  22159427.790    22159431.085     7115693.789 8   3968907.306 9
  20678084.966    20678087.966   -16440279.332 9 -14192635.962 8
 90  2 24  6 58 59.0800000  0  4G 6G12G11G13
  23101180.009    23101182.197    13906364.655 8   9287748.997 9
  20966106.742    20966108.539   -41763939.757 9  40518737.641 8
  22165374.526    22165377.964     7146947.493 9   3993260.818 8
  20678047.753    20678049.362   -16440474.963 8 -14192788.402 7
 90  2 24  6 59 14.0800000  0  4G 6G12G11G13
  23111906.731    23111913.233    13962753.664 8   9331688.429 8
  20961576.651    20961579.191   -41787739.359 9  40500192.509 8
  22171326.212    22171329.887     7178223.114 9   4017631.426 8
  20678026.115    20678029.021   -16440587.100 9 -14192875.769 7
 90  2 24  6 59 29.0800000  0  4G 6G12G11G13
  23122653.589    23122655.963    14019213.204 9   9375682.856 8
  20957074.293    20957076.018   -41811407.037 9  40481750.157 9
  22177282.199    22177285.572     7209520.016 8   4042018.605 9
  20678020.617    20678023.288   -16440616.298 9 -14192898.522 8
 90  2 24  6 59 44.0800000  0  4G 6G12G11G13
  23133411.339    23133413.710    14075743.300 9   9419732.259 9
  20952595.286    20952597.826   -41834942.173 9  40463411.100 8
  22183242.794    22183245.078     7240838.346 9   4066422.470 9
  20678030.955    20678032.661   -16440562.625 9 -14192856.694 8
 90  2 24  6 59 59.0800000  0  4G 6G12G11G13
  23144181.742    23144185.090    14132343.783 9   9463836.504 9
  20948141.435    20948145.033   -41858344.357 9  40445175.637 9
  22189205.513    22189209.464     7272178.077 9   4090843.033 9
  20678057.011    20678060.340   -16440426.127 9 -14192750.336 7
 90  2 24  7  0 14.0800000  0  4G 6G12G11G13
  23154964.939    23154968.833    14189014.130 9   9507995.181 8
  20943712.769    20943715.694   -41881613.517 9  40427043.827 8
  22195173.676    22195176.319     7303538.684 9   4115279.847 9
  20678098.759    20678100.554   -16440207.037 9 -14192579.597 8
 90  2 24  7  0 29.0800000  0  4G 6G12G11G13
  23165762.776    23165766.055    14245753.867 9   9552207.942 9
  20939310.773    20939313.399   -41904749.404 9  40409015.858 8
  22201145.859    22201148.195     7334919.913 8   4139732.762 8
  20678156.657    20678158.924   -16439905.591 9 -14192344.718 7
 90  2 24  7  0 44.0800000  0  4G 6G12G11G13
  23176572.985    23176575.942    14302562.681 9   9596474.528 8
  20934933.962    20934936.704   -41927751.612 9  40391092.080 8
  22207120.656    22207123.785     7366321.697 9   4164201.678 9
  20678228.264    20678231.832   -16439521.884 9 -14192045.706 9
 90  2 24  7  0 59.0800000  0  4G 6G12G11G13
  23187395.552    23187398.056    14359440.237 9   9640794.674 8
  20930582.080    20930585.421   -41950619.881 9  40373272.641 8
  22213099.637    22213103.861     7397743.778 9   4188686.411 9
  20678317.448    20678319.887   -16439056.446 9 -14191683.021 8
 90  2 24  7  1 14.0800000  0  4G 6G12G11G13
  23198233.433    23198236.198    14416386.081 9   9685168.037 9
  20926256.381    20926257.819   -41973354.002 9  40355557.746 7
  22219083.192    22219086.514     7429186.009 8   4213186.825 9
  20678420.923    20678425.500   -16438509.154 9 -14191256.557 7
 90  2 24  7  1 29.0800000  0  4G 6G12G11G13
  23209083.550    23209086.393    14473399.887 9   9729594.342 9
  20921955.895    20921958.222   -41995953.604 9  40337947.665 9
  22225070.649    22225074.281     7460648.215 8   4237702.826 8
  20678541.956    20678545.384   -16437880.102 9 -14190766.392 8
 90  2 24  7  1 44.0800000  0  4G 6G12G11G13
  23219944.917    23219948.621    14530481.280 8   9774073.328 8
  20917680.109    20917682.605   -42018418.497 9  40320442.561 8
  22231060.170    22231064.294     7492130.112 8   4262234.151 9
  20678677.016    20678678.438   -16437169.683 9 -14190212.794 7
 90  2 24  7  1 59.0800000  0  4G 6G12G11G13
  23230818.718    23230821.065    14587629.983 9   9818604.747 8
  20913431.051    20913436.036   -42040748.395 9  40303042.645 7
  22237055.307    22237059.338     7523631.432 9   4286780.610 9
  20678828.167    20678829.977   -16436378.226 9 -14189596.070 8
 90  2 24  7  2 14.0800000  0  4G 6G12G11G13
  23241708.603    23241709.366    14644845.477 9   9863188.239 9
  20909207.777    20909210.519   -42062943.002 9  40285748.161 7
  22243054.894    22243057.336     7555151.993 9   4311342.077 9
  20678993.250    20678996.335   -16435505.961 9 -14188916.391 8
 90  2 24  7  2 29.0800000  0  4G 6G12G11G13
  23252607.215    23252609.682    14702127.419 9   9907823.501 9
  20905010.204    20905012.515   -42085002.146 9  40268559.211 8
  22249056.448    22249059.133     7586691.652 9   4335918.435 9
  20679173.934    20679177.561   -16434553.011 9 -14188173.821 8
 90  2 24  7  2 44.0800000  0  4G 6G12G11G13
  23263519.128    23263523.990    14759475.536 8   9952510.311 8
  20900838.214    20900840.913   -42106925.551 9  40251476.048 8
  22255061.187    22255064.172     7618250.271 9   4360509.559 8
  20679371.808    20679373.836   -16433519.568 9 -14187368.542 8
 90  2 24  7  2 59.0800000  0  4G 6G12G11G13
  23274445.530    23274450.255    14816889.374 9   9997248.291 9
  20896691.783    20896694.395   -42128713.009 9  40234498.813 8
  22261071.182    22261073.353     7649827.550 9   4385115.207 9
  20679583.709    20679585.940   -16432405.619 9 -14186500.522 8
 90  2 24  7  3 14.0800000  0  4G 6G12G11G13
  23285385.173    23285387.104    14874368.567 8  10042037.271 8
  20892572.509    20892574.519   -42150364.108 9  40217627.830 9
  22267081.981    22267085.897     7681423.138 8   4409735.133 9
  20679810.827    20679813.554   -16431211.506 9 -14185570.034 7
 90  2 24  7  3 29.0800000  0  4G 6G12G11G13
  23296334.894    23296336.519    14931912.798 9  10086876.929 8
  20888478.277    20888480.846   -42171878.672 9  40200863.244 8
  22273099.089    22273101.495     7713036.972 9   4434369.278 9
  20680053.601    20680055.465   -16429937.351 9 -14184577.181 7
 90  2 24  7  3 44.0800000  0  4G 6G12G11G13
  23307297.796    23307300.893    14989521.634 9  10131766.913 8
  20884409.944    20884411.711   -42193256.408 9  40184205.268 8
  22279117.607    22279120.850     7744668.974 9   4459017.576 9
  20680311.162    20680313.208   -16428583.627 9 -14183522.325 7
 90  2 24  7  3 59.0800000  0  4G 6G12G11G13
  23318273.286    23318277.246    15047194.583 9  10176706.831 8
  20880368.712    20880370.565   -42214497.117 9  40167654.076 8
  22285141.203    22285144.254     7776318.828 9   4483679.789 9
  20680583.187    20680586.602   -16427150.536 9 -14182405.633 7
 90  2 24  7  4 14.0800000  0  4G 6G12G11G13
  23329257.995    23329264.215    15104931.582 8  10221696.648 9
  20876351.149    20876354.475   -42235600.329 9  40151210.015 8
  22291166.275    22291169.862     7807986.508 9   4508355.896 9
  20680871.266    20680873.783   -16425638.026 9 -14181227.032 7
 90  2 24  7  4 29.0800000  0  4G 6G12G11G13
  23340257.217    23340263.512    15162732.006 9  10266735.891 8
  20872362.118    20872364.629   -42256566.104 9  40134873.050 8
  22297196.991    22297198.933     7839671.551 9   4533045.521 8
  20681173.652    20681175.890   -16424046.465 9 -14179986.862 8
 90  2 24  7  4 44.0800000  0  4G 6G12G11G13
  23351270.039    23351272.035    15220595.582 9  10311824.386 9
  20868399.071    20868401.024   -42277393.929 9  40118643.573 8
  22303230.355    22303232.147     7871373.916 9   4557748.668 9
  20681492.410    20681493.829   -16422375.853 9 -14178685.079 8
 90  2 24  7  4 59.0800000  0  4G 6G12G11G13
  23362292.475    23362295.961    15278521.960 9  10356961.817 8
  20864462.184    20864463.678   -42298083.657 9  40102521.714 7
  22309265.521    22309267.756     7903093.323 9   4582465.082 9
  20681825.417    20681827.165   -16420626.600 9 -14177322.020 8
 90  2 24  7  5 14.0800000  0  4G 6G12G11G13
  23373327.699    23373331.678    15336510.551 8  10402147.717 8
  20860551.680    20860553.175   -42318635.071 9  40086507.629 8
  22315305.115    22315308.424     7934829.636 8   4607194.663 9
  20682172.768    20682174.632   -16418798.799 9 -14175897.765 8
 90  2 24  7  5 29.0800000  0  4G 6G12G11G13
  23384373.011    23384379.109    15394561.246 9  10447381.949 8
  20856667.305    20856668.230   -42339047.762 9  40070601.637 8
  22321347.129    22321349.457     7966582.585 8   4631937.203 8
  20682535.827    20682537.152   -16416892.585 9 -14174412.395 7
 90  2 24  7  5 44.0800000  0  4G 6G12G11G13
  23395433.579    23395435.153    15452673.503 9  10492664.211 8
  20852808.632    20852810.684   -42359321.546 9  40054803.886 8
  22327392.499    22327395.464     7998352.116 9   4656692.661 9
  20682912.976    20682916.148   -16414908.410 9 -14172866.270 8
 90  2 24  7  5 59.0800000  0  4G 6G12G11G13
  23406503.653    23406505.912    15510847.061 9  10537994.247 8
  20848978.061    20848978.954   -42379456.246 9  40039114.520 8
  22333440.550    22333443.644     8030137.933 9   4681460.821 9
  20683305.636    20683307.407   -16412846.374 9 -14171259.486 7
 90  2 24  7  6 14.0800000  0  4G 6G12G11G13
  23417583.129    23417586.690    15569081.500 8  10583371.715 9
  20845172.730    20845174.726   -42399451.541 9  40023533.766 8
  22339492.216    22339495.603     8061939.892 8   4706241.558 9
  20683712.682    20683716.129   -16410706.635 9 -14169592.147 9
 90  2 24  7  6 29.0800000  0  4G 6G12G11G13
  23428675.739    23428682.254    15627376.511 8  10628796.316 9
  20841394.129    20841395.510   -42419307.149 9  40008061.864 8
  22345546.821    22345549.592     8093757.744 8   4731034.680 9
  20684135.243    20684137.252   -16408489.500 9 -14167864.517 7
 90  2 24  7  6 44.0800000  0  4G 6G12G11G13
  23439781.434    23439786.656    15685731.647 9  10674267.797 9
  20837641.486    20837644.041   -42439022.867 9  39992698.976 7
  22351604.659    22351608.635     8125591.223 9   4755839.965 8
  20684570.890    20684573.848   -16406195.092 9 -14166076.657 8
 90  2 24  7  6 59.0800000  0  4G 6G12G11G13
  23450898.156    23450900.460    15744146.488 9  10719785.858 9
  20833916.660    20833919.358   -42458598.408 9  39977445.312 8
  22357665.090    22357668.812     8157440.189 8   4780657.332 9
  20685022.810    20685024.136   -16403823.627 9 -14164228.746 8
 90  2 24  7  7 14.0800000  0  4G 6G12G11G13
  23462024.477    23462026.694    15802620.734 9  10765350.193 8
  20830218.791    20830221.188   -42478033.561 9  39962301.036 8
  22363728.996    22363731.662     8189304.499 9   4805486.644 9
  20685488.034    20685491.120   -16401375.527 9 -14162321.145 8
 90  2 24  7  7 29.0800000  0  4G 6G12G11G13
  23473163.124    23473167.668    15861153.932 8  10810960.443 9
  20826547.224    20826547.963   -42497328.091 9  39947266.334 7
  22369796.002    22369799.173     8221183.963 8   4830327.777 9
  20685968.550    20685970.674   -16398850.655 9 -14160353.705 8
 90  2 24  7  7 44.0800000  0  4G 6G12G11G13
  23484313.657    23484318.407    15919745.796 9  10856616.385 9
  20822901.700    20822904.768   -42516481.801 9  39932341.370 8
  22375864.931    22375868.094     8253078.375 8   4855180.553 8
  20686464.084    20686466.705   -16396249.261 9 -14158326.638 8
 90  2 24  7  7 59.0800000  0  4G 6G12G11G13
  23495474.495    23495477.910    15978395.893 9  10902317.706 9
  20819285.136    20819287.275   -42535494.445 9  39917526.316 7
  22381937.128    22381940.265     8284987.564 8   4880044.840 9
  20686973.685    20686975.971   -16393571.531 9 -14156240.100 7
 90  2 24  7  8 14.0800000  0  4G 6G12G11G13
  23506645.036    23506648.212    16037103.832 9  10948064.152 8
  20815693.900    20815696.055   -42554365.756 9  39902821.404 8
  22388011.710    22388015.295     8316911.272 8   4904920.451 9
  20687497.268    20687500.694   -16390817.735 9 -14154094.272 7
 90  2 24  7  8 29.0800000  0  4G 6G12G11G13
  23517827.716    23517830.960    16095869.280 9  10993855.387 9
  20812128.479    20812132.035   -42573095.396 9  39888226.874 8
  22394089.510    22394093.712     8348849.461 8   4929807.330 8
  20688036.528    20688039.207   -16387988.067 9 -14151889.334 8
 90  2 24  7  8 44.0800000  0  4G 6G12G11G13
  23529022.831    23529025.746    16154691.862 9  11039691.104 9
  20808592.248    20808595.130   -42591683.100 9  39873742.940 7
  22400169.393    22400173.467     8380801.791 9   4954705.232 9
  20688588.118    20688590.746   -16385082.850 9 -14149625.520 8
 90  2 24  7  8 59.0800000  0  4G 6G12G11G13
  23540228.123    23540231.542    16213571.127 9  11085571.021 8
  20805081.400    20805083.898   -42610128.648 9  39859369.800 8
  22406251.709    22406256.325     8412768.065 8   4979614.004 8
  20689156.134    20689157.996   -16382102.421 9 -14147303.118 8
 90  2 24  7  9 14.0800000  0  4G 6G12G11G13
  23551443.986    23551445.045    16272506.737 8  11131494.867 8
  20801598.885    20801602.298   -42628431.794 9  39845107.617 7
  22412338.230    22412341.990     8444748.202 9   5004533.567 8
  20689737.138    20689740.865   -16379046.798 9 -14144922.107 7
 90  2 24  7  9 29.0800000  0  4G 6G12G11G13
  23562663.433    23562671.207    16331498.373 7  11177462.328 9
  20798143.129    20798145.684   -42646592.372 9  39830956.524 9
  22418426.721    22418430.092     8476741.932 8   5029463.740 9
  20690332.304    20690334.692   -16375916.287 9 -14142482.742 7
 90  2 24  7  9 44.0800000  0  4G 6G12G11G13
  23573903.299    23573906.801    16390545.609 8  11223473.119 9
  20794715.047    20794716.013   -42664610.065 9  39816916.760 8
  22424517.656    22424520.256     8508749.105 8   5054404.389 8
  20690943.356    20690944.375   -16372710.972 9 -14139985.088 8
 90  2 24  7  9 59.0800000  0  4G 6G12G11G13
  23585150.439    23585154.288    16449648.046 8  11269526.933 9
  20791312.692    20791314.904   -42682484.760 9  39802988.418 8
  22430610.330    22430613.747     8540769.349 9   5079355.203 9
  20691567.144    20691568.564   -16369430.862 9 -14137429.162 8
 90  2 24  7 10 14.0800000  0  4G 6G12G11G13
  23596409.888    23596411.726    16508805.270 9  11315623.456 9
  20787938.898    20787941.438   -42700216.185 9  39789171.727 7
  22436705.940    22436710.457     8572802.577 9   5104316.147 9
  20692205.648    20692208.075   -16366076.209 9 -14134815.141 9
 90  2 24  7 10 29.0800000  0  4G 6G12G11G13
  23607674.207    23607677.671    16568017.012 8  11361762.433 8
  20784592.035    20784594.861   -42717804.165 9  39775466.810 8
  22442804.896    22442808.418     8604848.664 9   5129287.120 8
  20692858.161    20692860.227   -16362647.481 9 -14132143.386 7
 90  2 24  7 10 44.0800000  0  4G 6G12G11G13
  23618954.835    23618956.756    16627282.807 8  11407943.529 8
  20781272.330    20781275.799   -42735248.461 8  39761873.845 8
  22448905.893    22448908.149     8636907.420 8   5154267.962 9
  20693524.222    20693525.716   -16359144.813 9 -14129414.040 8
 90  2 24  7 10 59.0800000  0  4G 6G12G11G13
  23630242.781    23630246.490    16686602.298 9  11454166.488 9
  20777979.585    20777982.740   -42752548.749 9  39748393.114 8
  22455009.179    22455012.007     8668978.827 9   5179258.651 8
  20694204.676    20694207.813   -16355568.550 9 -14126627.341 8
 90  2 24  7 11 14.0800000  0  4G 6G12G11G13
  23641541.952    23641544.896    16745975.060 8  11500430.932 9
  20774716.515    20774718.440   -42769704.996 9  39735024.615 8
  22461113.987    22461117.282     8701062.546 9   5204258.950 9
  20694898.601    20694902.062   -16351918.991 9 -14123783.532 8
 90  2 24  7 11 29.0800000  0  4G 6G12G11G13
  23652848.261    23652851.918    16805400.849 7  11546736.720 8
  20771478.717    20771479.927   -42786716.928 9  39721768.559 8
  22467222.424    22467225.410     8733158.418 8   5229268.693 9
  20695607.228    20695610.757   -16348196.225 9 -14120882.666 7
 90  2 24  7 11 44.0800000  0  4G 6G12G11G13
  23664165.420    23664170.034    16864879.179 8  11593083.417 8
  20768268.564    20768270.631   -42803584.268 9  39708625.181 8
  22473331.090    22473334.843     8765266.317 8   5254287.833 8
  20696329.995    20696332.535   -16344400.221 9 -14117924.746 8
 90  2 24  7 11 59.0800000  0  4G 6G12G11G13
  23675494.689    23675499.649    16924409.636 8  11639470.752 9
  20765086.799    20765088.065   -42820306.790 9  39695594.636 9
  22479443.755    22479445.861     8797386.046 9   5279316.167 9
  20697066.012    20697068.445   -16340531.228 9 -14114909.933 8
 90  2 24  7 12 14.0800000  0  4G 6G12G11G13
  23686833.550    23686837.512    16983991.908 9  11685898.458 8
  20761931.994    20761934.205   -42836884.278 9  39682677.121 8
  22485558.130    22485561.359     8829517.317 8   5304353.499 9
  20697816.441    20697818.313   -16336589.482 9 -14111838.445 8
 90  2 24  7 12 29.0800000  0  4G 6G12G11G13
  23698181.473    23698185.950    17043625.637 9  11732366.282 9
  20758804.834    20758807.374   -42853316.452 9  39669872.834 8
  22491674.779    22491678.143     8861659.965 8   5329399.708 9
  20698580.555    20698583.454   -16332575.165 9 -14108710.401 8
 90  2 24  7 12 44.0800000  0  4G 6G12G11G13
  23709538.106    23709543.286    17103310.402 9  11778873.854 9
  20755704.947    20755708.074   -42869603.154 9  39657181.892 8
  22497793.821    22497797.406     8893814.000 9   5354454.785 9
  20699358.062    20699361.062   -16328488.562 9 -14105526.033 8
 90  2 24  7 12 59.0800000  0  4G 6G12G11G13
  23720904.386    23720909.626    17163045.925 8  11825420.961 8
  20752632.791    20752637.048   -42885744.134 9  39644604.497 9
  22503914.241    22503917.606     8925979.136 8   5379518.513 9
  20700148.852    20700152.343   -16324329.927 9 -14102285.533 9
 90  2 24  7 13 14.0800000  0  3G12G11G13
  20749589.755    20749592.585   -42901739.268 9  39632140.768 8
  22510036.929    22510040.695     8958155.229 8   5404590.772 9
  20700954.492    20700957.345   -16320099.308 9 -14098988.935 8
 90  2 24  7 13 29.0800000  0  3G12G11G13
  20746574.386    20746576.353   -42917588.305 9  39619790.861 7
  22516162.649    22516165.112     8990342.015 9   5429671.378 9
  20701772.520    20701775.714   -16315797.190 9 -14095636.643 8
 90  2 24  7 13 44.0800000  0  4G 3G12G11G13
                  23281607.520   -57168691.657 7
  20743586.224    20743588.578   -42933290.958 9  39607555.037 7
  22522289.137    22522292.500     9022539.344 8   5454760.181 8
  20702605.387    20702608.208   -16311423.738 9 -14092228.756 7
 90  2 24  7 13 59.0800000  0  4G 3G12G11G13
  23275760.089    23275765.277   -57199447.628 8  72659738.260 8
  20740626.081    20740628.034   -42948846.987 9  39595433.468 8
  22528417.335    22528421.079     9054746.993 9   5479857.024 9
  20703450.899    20703453.525   -16306979.176 9 -14088765.445 8
 90  2 24  7 14 14.0800000  0  4G 3G12G11G13
  23269920.418    23269923.266   -57230142.755 8  72635819.999 8
  20737693.612    20737696.008   -42964256.208 9  39583426.278 8
  22534549.281    22534551.679     9086964.873 9   5504961.845 9
  20704309.797    20704313.105   -16302463.557 9 -14085246.777 8
 90  2 24  7 14 29.0800000  0  4G 3G12G11G13
  23264089.978    23264093.422   -57260777.126 7  72611949.077 8
  20734788.446    20734791.943   -42979518.405 9  39571533.657 8
  22540682.287    22540685.558     9119192.836 9   5530074.526 9
  20705184.023    20705185.727   -16297876.996 9 -14081672.842 8
 90  2 24  7 14 44.0800000  0  4G 3G12G11G13
  23258272.761    23258275.758   -57291350.744 8  72588125.500 7
  20731912.926    20731916.437   -42994633.446 9  39559755.703 8
  22546816.329    22546820.359     9151430.635 9   5555194.877 9
  20706069.259    20706072.189   -16293219.807 9 -14078043.862 8
 90  2 24  7 14 59.0800000  0  4G 3G12G11G13
  23252467.521    23252470.043   -57321863.598 9  72564349.265 9
  20729064.795    20729067.119   -43009601.064 9  39548092.626 8
  22552953.563    22552956.956     9183678.121 9   5580322.769 9
  20706968.748    20706971.438   -16288492.441 9 -14074360.190 9
 90  2 24  7 15 14.0800000  0  4G 3G12G11G13
  23246670.992    23246675.075   -57352315.878 8  72540620.222 9
  20726245.082    20726247.793   -43024421.138 9  39536544.530 8
  22559091.219    22559094.769     9215935.076 9   5605458.058 9
  20707882.597    20707884.329   -16283694.920 9 -14070621.867 7
 90  2 24  7 15 29.0800000  0  4G 3G12G11G13
  23240889.069    23240891.655   -57382707.592 8  72516938.397 8
  20723452.587    20723454.452   -43039093.375 9  39525111.612 9
  22565231.387    22565235.059     9248201.429 9   5630600.650 9
  20708807.947    20708811.498   -16278827.416 9 -14066829.004 8
 90  2 24  7 15 44.0800000  0  4G 3G12G11G13
  23235117.088    23235118.974   -57413038.717 9  72493303.783 8
  20720688.336    20720690.959   -43053617.659 9  39513793.984 8
  22571373.086    22571376.185     9280476.904 9   5655750.361 9
  20709747.921    20709749.827   -16273890.157 9 -14062981.786 8
 90  2 24  7 15 59.0800000  0  4G 3G12G11G13
  23229356.075    23229358.892   -57443309.306 8  72469716.309 9
  20717952.560    20717954.998   -43067993.803 9  39502591.793 8
  22577516.314    22577520.315     9312761.368 9   5680907.073 9
  20710700.506    20710702.676   -16268883.379 9 -14059080.405 8
 90  2 24  7 16 14.0800000  0  4G 3G12G11G13
  23223608.315    23223610.203   -57473519.356 8  72446176.041 9
  20715245.719    20715248.372   -43082221.570 9  39491505.224 8
  22583661.917    22583664.633     9345054.658 8   5706070.655 9
  20711666.632    20711668.961   -16263807.192 9 -14055124.929 9
 90  2 24  7 16 29.0800000  0  4G 3G12G11G13
  23217870.829    23217873.091   -57503669.109 9  72422682.745 8
  20712566.263    20712569.735   -43096300.746 9  39480534.446 8
  22589808.668    22589811.748     9377356.655 9   5731241.020 9
  20712645.950    20712648.218   -16258661.953 9 -14051115.655 8
 90  2 24  7 16 44.0800000  0  4G 3G12G11G13
  23212144.916    23212147.031   -57533758.273 9  72399236.665 9
  20709915.571    20709917.824   -43110231.210 9  39469679.526 8
  22595957.450    22595959.936     9409667.186 9   5756418.048 8
  20713637.535    20713639.418   -16253447.741 9 -14047052.635 7
 90  2 24  7 16 59.0800000  0  4G 3G12G11G13
  23206430.315    23206433.006   -57563787.139 9  72375837.559 9
  20707292.782    20707294.977   -43124012.746 8  39458940.679 7
  22602108.049    22602110.799     9441986.021 9   5781601.551 9
  20714642.966    20714646.012   -16248164.769 9 -14042936.037 8
 90  2 24  7 17 14.0800000  0  4G 3G12G11G13
  23200728.453    23200730.244   -57593755.526 9  72352485.580 9
  20704697.550    20704701.406   -43137645.128 9  39448318.043 8
  22608259.278    22608262.127     9474313.030 8   5806791.411 9
  20715661.504    20715663.332   -16242813.390 9 -14038766.117 7
 90  2 24  7 17 29.0800000  0  4G 3G12G11G13
  23195036.391    23195038.971   -57623663.694 9  72329180.526 8
  20702133.086    20702135.469   -43151128.141 9  39437811.801 9
  22614411.794    22614415.780     9506647.961 9   5831987.449 9
  20716692.803    20716695.102   -16237393.530 9 -14034542.860 7
 90  2 24  7 17 44.0800000  0  4G 3G12G11G13
  23189356.926    23189359.830   -57653511.350 9  72305922.633 8
  20699595.436    20699598.776   -43164461.780 9  39427421.946 8
  22620567.822    22620570.264     9538990.676 9   5857189.536 9
  20717737.024    20717739.094   -16231905.840 9 -14030266.730 7
 90  2 24  7 17 59.0800000  0  4G 3G12G11G13
  23183687.474    23183691.896   -57683298.925 8  72282711.554 9
  20697086.376    20697090.504   -43177645.663 9  39417148.798 8
  22626723.093    22626726.702     9571341.042 9   5882397.592 9
  20718794.248    20718796.693   -16226350.620 9 -14025937.987 9
 90  2 24  7 18 14.0800000  0  4G 3G12G11G13
  23178031.010    23178032.577   -57713026.301 9  72259547.388 8
  20694606.048    20694609.360   -43190679.575 9  39406992.496 8
  22632880.154    22632883.539     9603698.900 7   5907611.497 9
  20719864.764    20719866.345   -16220727.734 9 -14021556.516 8
 90  2 24  7 18 29.0800000  0  4G 3G12G11G13
  23172385.768    23172387.541   -57742693.534 8  72236430.072 9
  20692154.711    20692156.951   -43203563.455 9  39396953.117 8
  22639039.366    22639042.366     9636064.129 9   5932831.137 9
  20720946.599    20720948.818   -16215037.466 9 -14017122.541 7
 90  2 24  7 18 44.0800000  0  4G 3G12G11G13
  23166751.087    23166754.061   -57772300.753 9  72213359.527 8
  20689731.105    20689734.661   -43216297.114 9  39387030.777 8
  22645199.122    22645202.695     9668436.580 9   5958056.408 9
  20722043.338    20722045.051   -16209279.929 9 -14012636.141 7
 90  2 24  7 18 59.0800000  0  4G 3G12G11G13
  23161128.784    23161131.223   -57801847.672 8  72190335.978 8
  20687335.661    20687340.403   -43228880.419 9  39377225.607 8
  22651361.104    22651363.539     9700816.026 9   5983287.128 9
  20723150.759    20723154.080   -16203455.387 9 -14008097.540 8
 90  2 24  7 19 14.0800000  0  4G 3G12G11G13
  23155517.129    23155519.608   -57831334.591 8  72167359.169 8
  20684971.323    20684974.305   -43241313.119 9  39367537.792 8
  22657523.243    22657527.673     9733202.334 8   6008523.193 9
  20724272.008    20724273.937   -16197564.270 9 -14003507.057 7
 90  2 24  7 19 29.0800000  0  4G 3G12G11G13
  23149918.211    23149920.099   -57860761.501 8  72144429.134 9
  20682634.230    20682637.398   -43253595.055 9  39357967.459 8
  22663689.025    22663690.772     9765595.331 9   6033764.466 9
  20725405.655    20725407.785   -16191606.593 9 -13998864.714 8
 90  2 24  7 19 44.0800000  0  4G 3G12G11G13
  23144328.873    23144331.989   -57890128.414 9  72121545.830 8
  20680326.413    20680327.610   -43265726.029 9  39348514.743 8
  22669853.374    22669857.210     9797994.870 8   6059010.845 9
  20726551.520    20726554.503   -16185582.492 9 -13994170.606 8
 90  2 24  7 19 59.0800000  0  4G 3G12G11G13
  23138752.532    23138756.421   -57919435.493 9  72098709.163 9
  20678045.757    20678048.083   -43277705.954 9  39339179.741 9
  22676021.187    22676024.315     9830400.872 9   6084262.253 9
  20727711.551    20727713.929   -16179492.454 9 -13989425.124 8
 90  2 24  7 20 14.0800000  0  4G 3G12G11G13
  23133186.927    23133190.624   -57948682.404 9  72075919.385 8
  20675795.064    20675797.732   -43289534.664 8  39329962.560 8
  22682187.977    22682191.184     9862813.081 8   6109518.505 8
  20728881.740    20728884.266   -16173336.451 9 -13984628.238 8
 90  2 24  7 20 29.0800000  0  4G 3G12G11G13
  23127633.489    23127636.550   -57977869.722 8  72053176.034 9
  20673573.333    20673575.342   -43301211.783 9  39320863.509 9
  22688356.569    22688360.419     9895231.367 8   6134779.474 9
  20730066.182    20730068.575   -16167114.582 9 -13979780.023 7
 90  2 24  7 20 44.0800000  0  4G 3G12G11G13
  23122090.652    23122093.021   -58006997.134 9  72030479.365 9
  20671380.247    20671382.787   -43312737.098 9  39311882.746 8
  22694527.335    22694531.116     9927655.531 9   6160045.020 8
  20731262.624    20731264.464   -16160827.098 9 -13974880.686 7
 90  2 24  7 20 59.0800000  0  4G 3G12G11G13
  23116558.424    23116561.100   -58036064.915 9  72007829.161 9
  20669215.695    20669218.077   -43324110.534 9  39303020.320 9
  22700697.246    22700701.404     9960085.402 8   6185315.024 9
  20732471.695    20732474.725   -16154474.265 9 -13969930.427 8
 90  2 24  7 21 14.0800000  0  4G 3G12G11G13
  23111038.890    23111040.960   -58065072.946 8  71985225.524 9
  20667080.192    20667082.701   -43335332.028 9  39294276.301 9
  22706869.872    22706874.346     9992520.908 8   6210589.412 9
  20733693.471    20733695.882   -16148056.419 9 -13964929.509 8
 90  2 24  7 21 29.0800000  0  4G 3G12G11G13
  23105529.189    23105533.331   -58094021.328 8  71962668.341 8
  20664973.877    20664977.347   -43346401.332 9  39285650.876 8
  22713044.310    22713048.355    10024961.930 8   6235868.105 9
  20734926.455    20734928.150   -16141573.677 9 -13959877.995 7
 90  2 24  7 21 44.0800000  0  4G 3G12G11G13
  23100030.388    23100035.628   -58122909.958 8  71940157.734 8
  20662896.640    20662898.994   -43357318.449 9  39277144.038 9
  22719217.268    22719222.671    10057408.251 9   6261150.938 8
  20736172.396    20736175.128   -16135026.584 9 -13954776.382 8
 90  2 24  7 21 59.0800000  0  4G 3G12G11G13
  23094545.781    23094549.684   -58151739.033 8  71917693.544 8
  20660848.107    20660850.759   -43368083.176 8  39268755.932 8
  22725394.282    22725397.065    10089859.641 9   6286437.726 9
  20737430.587    20737432.232   -16128414.985 9 -13949624.488 8
 90  2 24  7 22 14.0800000  0  4G 3G12G11G13
  23089070.790    23089074.882   -58180508.484 9  71895275.804 9
  20658828.164    20658831.589   -43378695.298 9  39260486.736 8
  22731569.786    22731573.099    10122315.977 9   6311728.359 9
  20738700.786    20738702.076   -16121738.930 9 -13944422.366 8
 90  2 24  7 22 29.0800000  0  4G 3G12G11G13
  23083608.811    23083610.868   -58209218.530 9  71872904.361 8
  20656837.553    20656840.607   -43389154.596 9  39252336.634 8
  22737747.678    22737749.733    10154777.187 9   6337022.798 9
  20739983.484    20739985.092   -16114998.835 9 -13939170.340 8
 90  2 24  7 22 44.0800000  0  4G 3G12G11G13
  23078156.248    23078159.071   -58237869.186 9  71850579.196 8
  20654876.478    20654880.232   -43399460.980 9  39244305.677 9
  22743926.015    22743929.651    10187243.165 9   6362320.934 9
  20741277.932    20741281.434   -16108195.155 9 -13933868.787 8
 90  2 24  7 22 59.0800000  0  4G 3G12G11G13
  23072714.731    23072718.222   -58266460.458 9  71828300.300 8
  20652944.736    20652947.161   -43409614.181 9  39236394.096 8
  22750105.068    22750108.490    10219713.717 9   6387622.648 9
  20742585.433    20742587.055   -16101327.781 9 -13928517.580 7
 90  2 24  7 23 14.0800000  0  4G 3G12G11G13
  23067286.146    23067288.422   -58294992.315 8  71806067.709 8
  20651041.269    20651044.553   -43419614.185 8  39228601.892 8
  22756283.212    22756287.308    10252188.623 9   6412927.742 9
  20743903.722    20743906.612   -16094397.149 9 -13923117.078 8
 90  2 24  7 23 29.0800000  0  4G 3G12G11G13
  23061867.447    23061870.447   -58323464.810 7  71783881.365 8
  20649166.937    20649170.763   -43429460.814 9  39220929.176 8
  22762463.939    22762468.054    10284667.713 9   6438236.110 9
  20745234.691    20745237.287   -16087403.417 9 -13917667.418 7
 90  2 24  7 23 44.0800000  0  4G 3G12G11G13
  23056460.380    23056462.152   -58351878.293 8  71761741.009 8
  20647323.798    20647326.079   -43439153.872 8  39213376.151 7
  22768645.576    22768649.354    10317150.967 9   6463547.720 9
  20746578.706    20746579.980   -16080346.672 9 -13912168.664 7
 90  2 24  7 23 59.0800000  0  4G 3G12G11G13
  23051065.751    23051068.542   -58380232.430 9  71739646.896 8
  20645508.103    20645510.398   -43448693.180 9  39205942.910 8
  22774828.706    22774832.219    10349638.220 9   6488862.446 9
  20747932.820    20747934.194   -16073227.200 9 -13906621.022 8
 90  2 24  7 24 14.0800000  0  4G 3G12G11G13
  23045680.706    23045684.072   -58408527.391 8  71717598.883 8
  20643722.058    20643724.668   -43458078.538 9  39198629.644 9
  22781011.486    22781014.513    10382129.322 8   6514180.158 9
  20749298.744    20749301.606   -16066045.317 9 -13901024.756 8
 90  2 24  7 24 29.0800000  0  4G 3G12G11G13
  23040308.699    23040310.030   -58436763.353 9  71695596.834 8
  20641965.089    20641968.315   -43467310.005 9  39191436.295 8
  22787195.274    22787198.267    10414624.120 9   6539500.753 9
  20750677.813    20750680.845   -16058801.243 9 -13895380.023 8
 90  2 24  7 24 44.0800000  0  4G 3G12G11G13
  23034946.078    23034948.801   -58464940.256 9  71673640.823 8
  20640237.968    20640241.152   -43476387.418 9  39184362.972 8
  22793379.114    22793382.770    10447122.358 9   6564824.040 9
  20752068.108    20752070.329   -16051495.126 9 -13889686.956 8
 90  2 24  7 24 59.0800000  0  4G 3G12G11G13
  23029595.074    23029597.641   -58493058.165 8  71651730.765 8
  20638539.410    20638542.306   -43485310.534 9  39177409.902 9
  22799564.247    22799567.169    10479623.866 9   6590149.877 9
  20753469.855    20753472.414   -16044127.078 9 -13883945.612 7
 90  2 24  7 25 14.0800000  0  4G 3G12G11G13
  23024256.289    23024258.812   -58521117.108 8  71629866.672 8
  20636870.871    20636874.656   -43494079.338 9  39170577.070 8
  22805748.629    22805752.295    10512128.668 9   6615478.271 9
  20754883.457    20754885.244   -16036697.160 9 -13878156.069 8
 90  2 24  7 25 29.0800000  0  4G 3G12G11G13
  23018926.287    23018930.493   -58549117.155 9  71608048.469 8
  20635232.267    20635235.223   -43502693.496 9  39163864.739 7
  22811935.717    22811938.516    10544636.454 9   6640809.001 9
  20756309.781    20756311.127   -16029205.672 9 -13872318.548 7
 90  2 24  7 25 44.0800000  0  4G 3G12G11G13
  23013609.912    23013613.868   -58577058.363 9  71586276.132 9
  20633622.454    20633624.850   -43511152.958 9  39157272.949 8
  22818121.453    22818125.147    10577147.193 9   6666142.010 9
  20757746.393    20757747.805   -16021652.957 9 -13866433.325 7
 90  2 24  7 25 59.0800000  0  4G 3G12G11G13
  23008303.831    23008308.002   -58604940.876 8  71564549.511 8
  20632042.232    20632044.871   -43519457.679 9  39150801.735 8
  22824308.812    22824312.226    10609660.811 9   6691477.291 9
  20759195.284    20759197.833   -16014039.367 9 -13860500.657 8
 90  2 24  7 26 14.0800000  0  4G 3G12G11G13
  23003010.239    23003013.221   -58632764.542 9  71542868.764 9
  20630490.399    20630493.810   -43527607.346 9  39144451.328 7
  22830497.186    22830499.985    10642177.180 8   6716814.687 9
  20760655.833    20760658.304   -16006364.768 9 -13854520.444 7
 90  2 24  7 26 29.0800000  0  4G 3G12G11G13
  22997726.083    22997728.956   -58660529.667 9  71521233.622 9
  20628970.649    20628973.660   -43535601.982 9  39138221.740 9
  22836684.382    22836688.740    10674696.091 9   6742154.078 9
  20762127.998    20762130.708   -15998629.549 9 -13848493.009 8
 90  2 24  7 26 44.0800000  0  4G 3G12G11G13
  22992455.305    22992456.726   -58688236.101 9  71499644.204 9
  20627478.141    20627480.867   -43543441.464 9  39132113.043 8
  22842873.072    22842876.614    10707217.402 9   6767495.328 9
  20763611.279    20763613.999   -15990833.871 9 -13842418.445 7
 90  2 24  7 26 59.0800000  0  4G 3G12G11G13
  22987192.282    22987195.290   -58715883.850 9  71478100.513 8
  20626016.513    20626018.682   -43551125.637 9  39126125.370 8
  22849062.841    22849066.213    10739741.016 8   6792838.375 9
  20765105.504    20765107.514   -15982978.096 9 -13836297.068 8
 90  2 24  7 27 14.0800000  0  4G 3G12G11G13
  22981943.454    22981945.118   -58743473.207 8  71456602.334 9
  20624583.391    20624586.630   -43558654.422 9  39120258.782 9
  22855251.961    22855255.004    10772266.762 9   6818183.070 9
  20766611.561    20766615.273   -15975062.300 9 -13830128.919 7
 90  2 24  7 27 29.0800000  0  4G 3G12G11G13
  22976702.712    22976707.905   -58771004.019 9  71435149.754 8
  20623180.717    20623183.042   -43566027.641 9  39114513.425 8
  22861441.374    22861445.804    10804794.343 8   6843529.219 9
  20768129.509    20768133.450   -15967086.503 9 -13823914.027 8
 90  2 24  7 27 44.0800000  0  4G 3G12G11G13
  22971476.097    22971478.537   -58798476.424 9  71413742.705 8
  20621806.404    20621809.931   -43573245.248 9  39108889.304 7
  22867631.357    22867634.995    10837323.826 8   6868876.844 9
  20769659.858    20769661.553   -15959050.839 9 -13817652.466 7
 90  2 24  7 27 59.0800000  0  4G 3G12G11G13
  22966258.700    22966262.319   -58825890.574 9  71392381.044 8
  20620463.228    20620465.509   -43580306.957 9  39103386.666 8
  22873822.608    22873825.164    10869855.037 8   6894225.826 9
  20771199.884    20771201.887   -15950956.083 9 -13811344.861 8
 90  2 24  7 28 14.0800000  0  4G 3G12G11G13
  22961054.300    22961055.527   -58853246.486 9  71371064.763 8
  20619148.871    20619151.052   -43587212.644 9  39098005.597 8
  22880012.765    22880017.217    10902387.752 8   6919575.961 9
  20772751.691    20772754.300   -15942802.223 9 -13804991.204 8
 90  2 24  7 28 29.0800000  0  4G 3G12G11G13
  22955860.206    22955861.592   -58880544.188 9  71349793.840 8
  20617864.276    20617867.831   -43593962.189 9  39092746.203 8
  22886203.838    22886206.866    10934921.918 9   6944927.232 9
  20774314.598    20774317.509   -15934589.385 9 -13798591.603 8
 90  2 24  7 28 44.0800000  0  4G 3G12G11G13
  22950675.284    22950677.996   -58907783.843 9  71328568.145 8
  20616610.018    20616613.088   -43600555.516 9  39087608.538 8
  22892394.339    22892398.854    10967457.445 8   6970279.571 8
  20775888.742    20775891.859   -15926317.875 8 -13792146.269 8
 90  2 24  7 28 59.0800000  0  4G 3G12G11G13
  22945503.610    22945505.832   -58934965.256 9  71307387.833 8
  20615384.379    20615387.861   -43606992.480 9  39082592.713 8
  22898585.968    22898590.950    10999994.093 9   6995632.761 9
  20777473.263    20777477.208   -15917987.833 9 -13785655.329 8
 90  2 24  7 29 14.0800000  0  4G 3G12G11G13
  22940342.130    22940343.814   -58962088.634 9  71286252.749 8
  20614189.331    20614192.685   -43613273.038 9  39077698.776 8
  22904779.608    22904782.507    11032531.758 8   7020986.767 9
  20779069.584    20779073.277   -15909599.547 9 -13779119.008 8
 90  2 24  7 29 29.0800000  0  4G 3G12G11G13
  22935190.556    22935194.079   -58989154.100 9  71265162.785 9
  20613024.590    20613027.572   -43619397.018 9  39072926.822 9
  22910971.089    22910974.217    11065070.287 9   7046341.434 8
  20780677.127    20780679.869   -15901153.321 9 -13772537.534 8
 90  2 24  7 29 44.0800000  0  4G 3G12G11G13
  22930051.960    22930054.155   -59016161.609 9  71244117.986 9
  20611888.727    20611891.451   -43625364.429 9  39068276.884 8
  22917162.676    22917166.048    11097609.578 8   7071696.711 8
  20782295.074    20782298.474   -15892649.142 9 -13765910.902 8
 90  2 24  7 29 59.0800000  0  4G 3G12G11G13
  22924923.723    22924925.975   -59043111.166 9  71223118.358 8
  20610783.083    20610786.122   -43631175.073 8  39063749.119 7
  22923354.965    22923358.946    11130149.433 8   7097052.398 8
  20783924.808    20783928.269   -15884087.163 9 -13759239.232 8
 90  2 24  7 30 14.0800000  0  4G 3G12G11G13
  22919806.195    22919808.107   -59070003.101 9  71202163.617 8
  20609706.860    20609710.341   -43636828.802 9  39059343.611 7
  22929547.820    22929550.210    11162689.756 8   7122408.480 9
  20785565.808    20785567.110   -15875467.647 9 -13752522.714 7
 90  2 24  7 30 29.0800000  0  4G 3G12G11G13
  22914699.985    22914702.968   -59096837.133 9  71181254.002 8
  20608660.857    20608663.195   -43642325.625 9  39055060.351 8
  22935740.136    22935742.585    11195230.492 9   7147764.864 9
  20787216.673    20787218.009   -15866790.682 9 -13745761.465 8
 90  2 24  7 30 44.0800000  0  4G 3G12G11G13
  22909604.649    22909607.103   -59123613.617 9  71160389.218 8
  20607645.505    20607647.585   -43647665.406 9  39050899.474 9
  22941930.858    22941935.853    11227771.616 9   7173121.557 8
  20788878.116    20788880.417   -15858056.618 9 -13738955.692 8
 90  2 24  7 30 59.0800000  0  4G 3G12G11G13
  22904520.296    22904522.539   -59150332.510 9  71139569.312 9
  20606659.056    20606661.624   -43652848.147 9  39046860.970 8
  22948124.148    22948128.221    11260312.951 9   7198478.431 9
  20790550.667    20790552.978   -15849265.852 9 -13732105.749 9
 90  2 24  7 31 14.0800000  0  4G 3G12G11G13
  22899446.529    22899448.334   -59176993.697 8  71118794.379 8
  20605702.314    20605705.411   -43657873.658 9  39042944.979 8
  22954316.285    22954320.710    11292854.287 8   7223835.287 9
  20792234.494    20792237.434   -15840418.650 9 -13725211.833 8
 90  2 24  7 31 29.0800000  0  4G 3G12G11G13
  22894384.376    22894385.765   -59203597.413 9  71098064.218 8
  20604775.250    20604778.718   -43662741.957 9  39039151.495 8
  22960509.792    22960512.790    11325395.463 8   7249192.015 9
  20793929.064    20793930.775   -15831515.077 9 -13718273.990 8
 90  2 24  7 31 44.0800000  0  4G 3G12G11G13
  22889332.777    22889334.719   -59230143.694 9  71077378.806 7
  20603879.952    20603882.703   -43667452.881 9  39035480.639 7
  22966701.335    22966706.023    11357936.476 9   7274548.625 9
  20795633.875    20795635.982   -15822555.018 9 -13711292.118 8
 90  2 24  7 31 59.0800000  0  4G 3G12G11G13
  22884290.431    22884294.213   -59256632.701 9  71056738.061 9
  20603013.158    20603015.253   -43672006.301 9  39031932.517 7
  22972892.802    22972897.147    11390477.029 8   7299904.881 9
  20797349.662    20797352.092   -15813538.941 9 -13704266.616 8
 90  2 24  7 32 14.0800000  0  4G 3G12G11G13
  22879262.581    22879263.933   -59283064.378 9  71036141.965 8
  20602176.783    20602179.994   -43676402.073 9  39028507.222 7
  22979086.120    22979089.964    11423017.041 9   7325260.716 8
  20799075.639    20799078.129   -15804467.269 9 -13697197.777 7
 90  2 24  7 32 29.0800000  0  4G 3G12G11G13
  22874244.029    22874246.376   -59309438.778 9  71015590.498 9
  20601369.774    20601372.068   -43680640.183 9  39025204.803 8
  22985278.260    22985281.080    11455556.409 9   7350616.055 8
  20800813.422    20800815.936   -15795339.976 9 -13690085.596 8
 90  2 24  7 32 44.0800000  0  4G 3G12G11G13
  22869236.474    22869237.508   -59335756.101 9  70995083.503 9
  20600593.901    20600596.412   -43684720.511 9  39022025.331 8
  22991470.139    22991473.632    11488094.992 9   7375970.779 8
  20802560.869    20802563.775   -15786157.238 9 -13682930.231 8
 90  2 24  7 32 59.0800000  0  4G 3G12G11G13
  22864238.649    22864240.923   -59362016.191 9  70974621.108 9
  20599847.160    20599849.370   -43688642.906 9  39018968.898 8
  22997661.913    22997664.641    11520632.721 9   7401324.844 9
  20804318.770    20804320.757   -15776919.268 9 -13675731.810 8
 90  2 24  7 33 14.0800000  0  4G 3G12G11G13
  22859251.250    22859254.635   -59388219.370 9  70954203.062 8
  20599130.984    20599134.224   -43692407.253 9  39016035.641 8
  23003854.667    23003857.530    11553169.516 9   7426678.160 9
  20806086.925    20806089.360   -15767626.276 9 -13668490.528 8
 90  2 24  7 33 29.0800000  0  4G 3G12G11G13
  22854275.286    22854279.280   -59414365.478 9  70933829.494 8
  20598444.342    20598447.310   -43696013.558 9  39013225.526 9
  23010044.959    23010048.037    11585705.265 9   7452030.665 9
  20807864.817    20807868.532   -15758278.587 9 -13661206.623 8
 90  2 24  7 33 44.0800000  0  4G 3G12G11G13
  22849311.853    22849313.587   -59440454.704 9  70913500.238 9
  20597788.723    20597791.763   -43699461.743 9  39010538.618 8
  23016235.754    23016239.338    11618239.752 9   7477382.204 9
  20809654.263    20809657.982   -15748876.295 9 -13653880.159 8
 90  2 24  7 33 59.0800000  0  4G 3G12G11G13
  22844358.440    22844360.439   -59466487.119 9  70893215.256 8
  20597162.667    20597165.233   -43702751.740 9  39007974.984 9
  23022426.310    23022429.996    11650772.980 9   7502732.740 9
  20811453.565    20811455.481   -15739419.662 9 -13646511.354 8
 90  2 24  7 34 14.0800000  0  4G 3G12G11G13
  22839414.398    22839417.607   -59492462.699 9  70872974.548 8
  20596567.546    20596570.127   -43705883.515 9  39005534.619 8
  23028616.931    23028621.520    11683304.763 9   7528082.153 9
  20813263.058    20813266.796   -15729908.795 9 -13639100.303 8
 90  2 24  7 34 29.0800000  0  4G 3G12G11G13
  22834481.268    22834485.629   -59518381.672 9  70852777.972 8
  20596000.530    20596003.555   -43708856.950 8  39003217.658 9
  23034807.926    23034811.426    11715834.917 9   7553430.299 9
  20815084.962    20815087.553   -15720343.926 9 -13631647.164 7
 90  2 24  7 34 44.0800000  0  4G 3G12G11G13
  22829560.108    22829563.853   -59544244.005 9  70832625.522 8
  20595465.652    20595468.191   -43711671.966 8  39001024.132 7
  23040997.137    23041001.453    11748363.240 9   7578777.015 9
  20816913.950    20816917.394   -15710725.172 8 -13624152.027 8
 90  2 24  7 34 59.0800000  0  4G 3G12G11G13
  22824650.162    22824652.699   -59570049.801 8  70812517.128 8
  20594959.535    20594962.675   -43714328.473 9  38998954.119 7
  23047186.729    23047190.229    11780889.820 9   7604122.376 9
  20818754.640    20818756.735   -15701053.018 9 -13616615.291 8
 90  2 24  7 35 14.0800000  0  4G 3G12G11G13
  22819751.410    22819752.209   -59595799.185 8  70792452.688 8
  20594484.039    20594486.535   -43716826.343 9  38997007.719 8
  23053376.184    23053379.799    11813414.469 8   7629466.230 9
  20820605.197    20820607.436   -15691327.413 9 -13609036.905 7
 90  2 24  7 35 29.0800000  0  4G 3G12G11G13
  22814861.509    22814864.295   -59621492.049 8  70772432.274 8
  20594039.337    20594041.748   -43719165.453 9  38995185.035 8
  23059565.166    23059568.189    11845936.969 9   7654808.417 9
  20822466.226    20822468.210   -15681548.755 9 -13601417.167 7
 90  2 24  7 35 44.0800000  0  4G 3G12G11G13
  22809982.105    22809985.439   -59647128.595 9  70752455.767 9
  20593623.912    20593626.952   -43721345.757 8  38993486.088 8
  23065753.584    23065758.044    11878457.304 8   7680148.919 9
  20824337.391    20824339.841   -15671717.165 9 -13593756.208 8
 90  2 24  7 35 59.0800000  0  4G 3G12G11G13
  22805114.288    22805118.854   -59672708.875 9  70732523.098 8
  20593240.224    20593242.592   -43723367.345 9  38991910.823 8
  23071941.260    23071944.832    11910975.323 9   7705487.615 9
  20826218.510    20826221.192   -15661832.873 9 -13586054.157 8
 90  2 24  7 36 14.0800000  0  4G 3G12G11G13
  22800257.288    22800261.016   -59698233.004 9  70712634.170 9
  20592885.299    20592888.766   -43725230.114 9  38990459.314 8
  23078129.606    23078133.377    11943491.022 9   7730824.496 9
  20828109.530    20828111.812   -15651895.807 9 -13578310.992 8
 90  2 24  7 36 29.0800000  0  4G 3G12G11G13
  22795410.801    22795414.443   -59723700.998 9  70692788.993 9
  20592561.367    20592563.419   -43726934.095 9  38989131.527 8
  23084315.805    23084319.421    11976004.226 8   7756159.445 9
  20830010.745    20830012.212   -15641906.496 9 -13570527.110 6
 90  2 24  7 36 44.0800000  0  4G 3G12G11G13
  22790574.307    22790578.787   -59749112.952 9  70672987.492 8
  20592267.283    20592270.124   -43728479.244 9  38987927.509 8
  23090501.942    23090507.009    12008514.861 9   7781492.378 9
  20831921.391    20831923.944   -15631865.018 9 -13562702.588 7
 90  2 24  7 36 59.0800000  0  4G 3G12G11G13
  22785749.702    22785752.236   -59774468.826 9  70653229.700 9
  20592003.451    20592006.505   -43729865.423 9  38986847.366 9
  23096688.513    23096693.031    12041022.793 9   7806823.204 9
  20833841.262    20833842.930   -15621771.607 9 -13554837.601 7
 90  2 24  7 37 14.0800000  0  4G 3G12G11G13
  22780936.179    22780938.984   -59799768.881 9  70633515.384 9
  20591769.667    20591772.719   -43731092.544 8  38985891.164 7
  23102873.884    23102878.542    12073527.972 8   7832151.894 8
  20835771.830    20835775.063   -15611626.657 9 -13546932.434 8
 90  2 24  7 37 29.0800000  0  4G 3G12G11G13
  22776133.438    22776134.687   -59825012.888 9  70613844.752 8
  20591566.846    20591570.030   -43732160.428 9  38985059.042 8
  23109058.267    23109063.454    12106030.353 8   7857478.392 9
  20837712.665    20837715.178   -15601430.132 9 -13538987.093 8
 90  2 24  7 37 44.0800000  0  4G 3G12G11G13
  22771338.542    22771341.507   -59850201.295 8  70594217.444 9
  20591392.760    20591396.000   -43733069.134 9  38984350.948 7
  23115242.856    23115247.481    12138529.686 8   7882802.519 8
  20839663.485    20839664.783   -15591182.243 9 -13531001.719 7
 90  2 24  7 37 59.0800000  0  4G 3G12G11G13
  22766556.840    22766559.146   -59875334.026 9  70574633.505 8
  20591251.155    20591253.208   -43733818.546 9  38983766.983 8
  23121427.003    23121431.713    12171025.838 7   7908124.146 9
  20841622.947    20841624.020   -15580883.080 9 -13522976.416 7
 90  2 24  7 38 14.0800000  0  4G 3G12G11G13
  22761784.033    22761786.619   -59900410.960 9  70555093.048 8
  20591138.370    20591141.624   -43734408.690 9  38983307.122 8
  23127610.078    23127614.336    12203518.749 8   7933443.266 9
  20843592.389    20843593.984   -15570533.028 9 -13514911.451 8
 90  2 24  7 38 29.0800000  0  4G 3G12G11G13
  22757021.905    22757025.418   -59925432.445 9  70535595.789 8
  20591056.406    20591059.346   -43734839.563 9  38982971.371 8
  23133793.450    23133797.016    12236008.231 8   7958759.726 9
  20845571.916    20845572.347   -15560132.434 9 -13506807.092 8
 90  2 24  7 38 44.0800000  0  4G 3G12G11G13
  22752270.622    22752275.255   -59950398.402 9  70516141.807 9
  20591005.007    20591007.202   -43735111.208 9  38982759.699 7
  23139975.079    23139979.309    12268494.240 8   7984073.470 9
  20847559.845    20847562.606   -15549681.416 9 -13498663.444 8
 90  2 24  7 38 59.0800000  0  4G 3G12G11G13
  22747531.436    22747533.899   -59975309.212 9  70496730.805 9
  20590983.800    20590986.712   -43735223.474 9  38982672.209 9
  23146156.435    23146160.380    12300976.608 9   8009384.390 9
  20849558.813    20849561.210   -15539180.007 9 -13490480.531 8
 90  2 24  7 39 14.0800000  0  4G 3G12G11G13
  22742801.583    22742803.640   -60000164.762 9  70477362.856 8
  20590992.585    20590994.765   -43735176.316 9  38982708.958 8
  23152337.420    23152341.643    12333455.146 8   8034692.330 9
  20851565.674    20851568.689   -15528628.801 9 -13482258.822 8
 90  2 24  7 39 29.0800000  0  4G 3G12G11G13
  22738083.498    22738084.754   -60024964.692 9  70458038.261 9
  20591031.848    20591035.516   -43734969.387 9  38982870.190 7
  23158517.338    23158520.910    12365930.200 9   8059997.553 9
  20853583.249    20853585.076   -15518027.454 9 -13473998.016 7
 90  2 24  7 39 44.0800000  0  4G 3G12G11G13
  22733374.349    22733375.942   -60049709.532 8  70438756.576 8
  20591101.849    20591104.002   -43734603.010 9  38983155.671 8
  23164694.974    23164698.682    12398401.371 9   8085299.749 8
  20855610.184    20855612.585   -15507376.291 9 -13465698.426 8
 90  2 24  7 39 59.0800000  0  4G 3G12G11G13
  22728676.509    22728678.812   -60074399.461 9  70419517.696 9
  20591201.210    20591203.978   -43734077.024 9  38983565.524 8
  23170873.591    23170877.979    12430868.527 9   8110598.818 8
  20857647.148    20857649.605   -15496675.592 9 -13457360.217 8
 90  2 24  7 40 14.0800000  0  4G 3G12G11G13
  22723987.511    22723989.815   -60099034.130 8  70400321.849 9
  20591332.253    20591335.779   -43733391.524 8  38984099.671 8
  23177050.962    23177055.635    12463331.557 8   8135894.660 9
  20859692.543    20859694.837   -15485925.601 9 -13448983.600 8
 90  2 24  7 40 29.0800000  0  4G 3G12G11G13
  22719309.970    22719311.557   -60123614.076 9  70381168.643 8
  20591493.317    20591495.657   -43732546.438 9  38984758.182 9
  23183227.553    23183232.284    12495790.370 9   8161187.224 9
  20861747.092    20861748.913   -15475126.552 9 -13440568.756 8
 90  2 24  7 40 44.0800000  0  4G 3G12G11G13
  22714642.668    22714646.131   -60148139.242 8  70362058.138 8
  20591684.087    20591686.739   -43731541.821 9  38985540.997 9
  23189405.075    23189408.325    12528244.793 8   8186476.361 9
  20863811.730    20863814.161   -15464278.652 9 -13432115.863 8
 90  2 24  7 40 59.0800000  0  4G 3G12G11G13
  22709984.830    22709990.278   -60172609.484 9  70342990.419 8
  20591906.365    20591908.490   -43730377.475 9  38986448.280 8
  23195579.225    23195583.034    12560694.900 9   8211762.149 9
  20865884.852    20865887.932   -15453382.055 9 -13423625.007 8
 90  2 24  7 41 14.0800000  0  4G 3G12G11G13
  22705339.293    22705343.195   -60197024.983 8  70323965.370 6
  20592157.633    20592160.831   -43729053.473 9  38987479.952 8
  23201754.022    23201757.173    12593140.587 8   8237044.472 9
  20867967.387    20867970.587   -15442436.891 9 -13415096.302 7
 90  2 24  7 41 29.0800000  0  4G 3G12G11G13
  22700703.491    22700707.625   -60221385.953 9  70304982.824 8
  20592440.641    20592443.251   -43727569.868 8  38988635.995 8
  23207926.864    23207930.851    12625581.561 9   8262323.127 8
  20870059.827    20870061.765   -15431443.572 9 -13406530.095 8
 90  2 24  7 41 44.0800000  0  4G 3G12G11G13
  22696079.006    22696081.903   -60245692.457 9  70286042.709 8
  20592753.810    20592756.507   -43725926.607 8  38989916.458 8
  23214099.936    23214103.016    12658017.849 9   8287598.139 8
  20872160.972    20872162.899   -15420402.198 9 -13397926.415 8
 90  2 24  7 41 59.0800000  0  4G 3G12G11G13
  22691465.270    22691467.189   -60269944.372 9  70267145.114 8
  20593095.885    20593099.339   -43724123.527 9  38991321.460 8
  23220270.132    23220275.083    12690449.431 9   8312869.485 9
  20874270.889    20874273.661   -15409312.772 9 -13389285.301 8
 90  2 24  7 42 14.0800000  0  4G 3G12G11G13
  22686859.618    22686863.154   -60294141.888 8  70248289.920 8
  20593469.840    20593472.122   -43722160.569 8  38992851.026 9
  23226440.733    23226445.178    12722876.224 9   8338137.087 9
  20876391.215    20876392.744   -15398175.656 9 -13380607.045 8
 90  2 24  7 42 29.0800000  0  4G 3G12G11G13
  22682265.854    22682268.392   -60318285.177 9  70229476.980 8
  20593873.789    20593875.269   -43720037.820 9  38994505.106 8
  23232611.323    23232615.275    12755297.938 9   8363400.748 9
  20878519.736    20878522.232   -15386990.983 9 -13371891.717 8
 90  2 24  7 42 44.0800000  0  4G 3G12G11G13
  22677680.777    22677684.966   -60342374.030 8  70210706.462 9
  20594307.270    20594310.940   -43717755.261 9  38996283.712 8
  23238780.001    23238783.981    12787714.592 9   8388660.458 9
  20880656.989    20880658.790   -15375758.918 9 -13363139.464 8
 90  2 24  7 42 59.0800000  0  4G 3G12G11G13
  22673107.485    22673111.362   -60366408.753 9  70191978.111 8
  20594772.319    20594775.043   -43715312.796 9  38998186.920 8
  23244948.209    23244951.121    12820126.220 9   8413916.258 9
  20882803.256    20882805.598   -15364479.646 9 -13354350.429 8
 90  2 24  7 43 14.0800000  0  4G 3G12G11G13
  22668543.997    22668546.663   -60390389.393 9  70173291.906 8
  20595266.786    20595270.171   -43712710.556 9  39000214.636 7
  23251115.026    23251118.912    12852532.576 9   8439167.941 9
  20884957.664    20884960.941   -15353153.475 9 -13345524.844 8
 90  2 24  7 43 29.0800000  0  4G 3G12G11G13
  22663990.955    22663993.420   -60414316.140 9  70154647.683 8
  20595793.278    20595795.746   -43709948.516 9  39002366.866 7
  23257280.170    23257284.343    12884933.665 9   8464415.525 9
  20887122.325    20887125.244   -15341780.516 9 -13336662.790 9
 90  2 24  7 43 44.0800000  0  4G 3G12G11G13
  22659448.147    22659450.962   -60438188.919 9  70136045.532 8
  20596349.475    20596351.255   -43707026.622 8  39004643.659 8
  23263444.964    23263448.178    12917329.265 9   8489658.837 9
  20889294.733    20889299.081   -15330360.937 9 -13327764.423 8
 90  2 24  7 43 59.0800000  0  4G 3G12G11G13
  22654916.884    22654918.963   -60462007.919 9  70117485.281 8
  20596936.494    20596939.006   -43703944.906 9  39007044.992 7
  23269608.863    23269612.850    12949719.270 8   8514897.780 9
  20891477.470    20891479.214   -15318894.904 9 -13318829.852 7
 90  2 24  7 44 14.0800000  0  4G 3G12G11G13
  22650393.237    22650395.333   -60485773.148 9  70098966.932 8
  20597553.534    20597555.259   -43700703.289 8  39009570.925 8
  23275770.888    23275774.703    12982103.652 9   8540132.347 9
  20893668.539    20893671.107   -15307382.702 9 -13309859.303 8
 90  2 24  7 44 29.0800000  0  4G 3G12G11G13
  22645880.568    22645884.256   -60509484.821 9  70080490.306 8
  20598200.510    20598201.990   -43697301.844 8  39012221.392 8
  23281931.674    23281936.928    13014482.439 9   8565362.541 9
  20895867.795    20895869.446   -15295824.564 9 -13300852.971 8
 90  2 24  7 44 44.0800000  0  4G 3G12G11G13
  22641379.203    22641381.861   -60533142.889 9  70062055.446 7
  20598878.365    20598880.416   -43693740.426 9  39014996.530 8
  23288093.606    23288096.935    13046855.436 9   8590588.241 9
  20898075.262    20898077.676   -15284220.862 9 -13291811.123 9
 90  2 24  7 44 59.0800000  0  4G 3G12G11G13
  22636887.874    22636889.587   -60556747.465 9  70043662.281 9
  20599586.240    20599588.135   -43690019.073 9  39017896.269 8
  23294252.813    23294255.896    13079222.448 9   8615809.251 9
  20900292.722    20900295.968   -15272571.510 8 -13282733.709 8
 90  2 24  7 45 14.0800000  0  4G 3G12G11G13
  22632404.736    22632406.696   -60580298.588 9  70025310.759 7
  20600323.993    20600327.504   -43686137.981 9  39020920.487 7
  23300410.535    23300414.560    13111583.580 9   8641025.676 9
  20902517.407    20902519.566   -15260876.872 9 -13273620.995 8
 90  2 24  7 45 29.0800000  0  4G 3G12G11G13
  22627934.263    22627936.039   -60603796.317 9  70007000.842 9
  20601093.484    20601095.306   -43682096.959 9  39024069.337 8
  23306567.438    23306571.175    13143938.630 9   8666237.398 9
  20904751.161    20904753.451   -15249136.904 8 -13264472.981 8
 90  2 24  7 45 44.0800000  0  4G 3G12G11G13
  22623473.634    22623475.390   -60627240.801 9  69988732.420 8
  20601892.137    20601895.162   -43677896.167 9  39027342.676 8
  23312723.582    23312727.139    13176287.527 9   8691444.329 9
  20906994.403    20906996.226   -15237352.037 9 -13255289.965 8
 90  2 24  7 45 59.0800000  0  4G 3G12G11G13
  22619022.060    22619023.972   -60650632.319 9  69970505.267 8
  20602721.468    20602725.194   -43673535.512 9  39030740.568 9
  23318878.438    23318882.089    13208630.227 9   8716646.408 9
  20909245.196    20909247.966   -15225522.356 9 -13246072.029 8
 90  2 24  7 46 14.0800000  0  4G 3G12G11G13
  22614579.548    22614583.062   -60673970.652 9  69952319.554 8
  20603582.994    20603586.105   -43669015.080 9  39034262.986 8
  23325031.211    23325035.757    13240966.638 8   8741843.594 9
  20911505.526    20911507.040   -15213648.045 9 -13236819.310 8
 90  2 24  7 46 29.0800000  0  4G 3G12G11G13
  22610148.506    22610151.248   -60697256.108 9  69934175.044 8
  20604474.283    20604475.078   -43664334.776 9  39037909.967 9
  23331183.463    23331187.780    13273296.634 8   8767035.774 9
  20913773.356    20913774.877   -15201729.287 9 -13227531.982 7
 90  2 24  7 46 44.0800000  0  4G 3G12G11G13
  22605728.389    22605730.556   -60720488.557 8  69916071.850 8
  20605394.049    20605397.103   -43659494.689 9  39041681.462 8
  23337334.155    23337338.614    13305620.298 8   8792223.033 9
  20916049.206    20916052.874   -15189766.303 9 -13218210.166 8
 90  2 24  7 46 59.0800000  0  4G 3G12G11G13
  22601316.890    22601320.879   -60743668.179 9  69898009.807 9
  20606345.811    20606348.779   -43654494.857 8  39045577.436 8
  23343481.979    23343487.267    13337937.496 9   8817405.237 9
  20918334.340    20918336.767   -15177759.260 9 -13208854.026 8
 90  2 24  7 47 14.0800000  0  4G 3G12G11G13
  22596917.374    22596920.061   -60766795.174 9  69879988.771 9
  20607327.963    20607330.745   -43649335.336 8  39049597.820 8
  23349630.881    23349636.513    13370247.890 9   8842582.132 9
  20920627.589    20920630.456   -15165708.324 9 -13199463.698 8
 90  2 24  7 47 29.0800000  0  4G 3G12G11G13
  22592525.326    22592528.123   -60789869.526 9  69862008.762 8
  20608339.738    20608342.449   -43644016.153 9  39053742.635 8
  23355779.848    23355784.015    13402551.644 9   8867753.859 9
  20922928.800    20922932.032   -15153613.696 9 -13190039.313 7
 90  2 24  7 47 44.0800000  0  4G 3G12G11G13
  22588144.179    22588147.546   -60812891.273 9  69844069.745 8
  20609382.790    20609384.915   -43638537.278 9  39058011.890 8
  23361925.791    23361930.055    13434848.754 8   8892920.398 9
  20925238.968    20925242.062   -15141475.736 9 -13180581.164 8
 90  2 24  7 47 59.0800000  0  4G 3G12G11G13
  22583772.925    22583776.405   -60835860.526 9  69826171.650 9
  20610456.009    20610458.333   -43632898.683 9  39062405.591 8
  23368070.164    23368074.639    13467139.010 8   8918081.588 9
  20927557.576    20927559.997   -15129294.464 9 -13171089.252 8
 90  2 24  7 48 14.0800000  0  4G 3G12G11G13
  22579412.681    22579415.923   -60858777.560 9  69808314.215 8
  20611559.046    20611561.271   -43627100.417 8  39066923.715 8
  23374212.929    23374218.261    13499422.252 8   8943237.336 9
  20929883.735    20929885.527   -15117070.211 9 -13161563.869 7
 90  2 24  7 48 29.0800000  0  4G 3G12G11G13
  22575062.065    22575064.269   -60881642.230 9  69790497.590 9
  20612692.764    20612695.975   -43621142.542 8  39071566.202 8
  23380355.349    23380360.495    13531698.403 8   8968387.557 9
  20932217.135    20932220.424   -15104803.060 9 -13152005.051 7
 90  2 24  7 48 44.0800000  0  4G 3G12G11G13
  22570721.442    22570723.424   -60904454.775 9  69772721.579 9
  20613855.699    20613859.255   -43615025.208 8  39076332.946 8
  23386495.639    23386500.270    13563967.482 8   8993532.268 9
  20934560.126    20934561.810   -15092493.220 9 -13142412.961 7
 90  2 24  7 48 59.0800000  0  4G 3G12G11G13
  22566389.960    22566391.520   -60927215.102 9  69754986.276 8
  20615051.030    20615053.555   -43608748.339 9  39081224.012 8
  23392634.504    23392638.756    13596229.377 8   9018671.374 9
  20936910.027    20936913.202   -15080140.879 9 -13132787.755 8
 90  2 24  7 49 14.0800000  0  4G 3G12G11G13
  22562067.689    22562070.167   -60949923.502 9  69737291.413 8
  20616275.438    20616278.936   -43602311.954 8  39086239.365 8
  23398772.281    23398777.485    13628483.963 9   9043804.795 9
  20939269.408    20939271.404   -15067746.063 9 -13123129.466 8
 90  2 24  7 49 29.0800000  0  4G 3G12G11G13
  22557756.391    22557759.864   -60972579.713 9  69719637.219 8
  20617530.784    20617534.867   -43595716.066 9  39091379.017 8
  23404910.426    23404914.612    13660731.215 9   9068932.507 9
  20941636.053    20941639.121   -15055308.938 9 -13113438.208 7
 90  2 24  7 49 44.0800000  0  4G 3G12G11G13
  22553455.767    22553457.985   -60995184.265 9  69702023.300 8
  20618816.377    20618819.963   -43588960.784 9  39096642.862 8
  23411045.548    23411048.884    13692971.004 9   9094054.387 9
  20944011.332    20944012.644   -15042829.685 9 -13103714.101 8
 90  2 24  7 49 59.0800000  0  4G 3G12G11G13
  22549164.114    22549167.072   -61017737.019 9  69684449.732 8
  20620131.565    20620135.277   -43582046.166 9  39102030.863 8
  23417178.153    23417182.619    13725203.231 9   9119170.389 9
  20946393.284    20946396.192   -15030308.736 9 -13093957.537 8
 90  2 24  7 50 14.0800000  0  4G 3G12G11G13
  22544882.502    22544885.494   -61040238.115 9  69666916.408 8
  20621478.716    20621481.885   -43574972.145 9  39107543.069 8
  23423311.073    23423315.224    13757427.864 9   9144280.475 9
  20948783.887    20948786.226   -15017746.286 9 -13084168.598 7
 90  2 24  7 50 29.0800000  0  4G 3G12G11G13
  22540610.472    22540611.585   -61062687.805 9  69649423.153 8
  20622854.401    20622857.670   -43567738.851 9  39113179.415 8
  23429441.174    23429445.554    13789644.855 9   9169384.596 9
  20951182.215    20951184.757   -15005142.481 9 -13074347.470 8
 90  2 24  7 50 44.0800000  0  4G 3G12G11G13
  22536347.077    22536350.448   -61085085.875 9  69631970.113 8
  20624261.367    20624264.492   -43560346.235 9  39118939.878 8
  23435570.539    23435574.954    13821854.110 9   9194482.696 9
  20953588.506    20953590.995   -14992497.725 8 -13064494.405 8
 90  2 24  7 50 59.0800000  0  4G 3G12G11G13
  22532095.342    22532098.555   -61107432.565 9  69614557.110 9
  20625698.810    20625701.406   -43552794.361 9  39124824.453 8
  23441699.108    23441703.101    13854055.559 9   9219574.728 9
  20956002.474    20956005.773   -14979811.801 9 -13054609.282 8
 90  2 24  7 51 14.0800000  0  4G 3G12G11G13
  22527852.617    22527855.211   -61129727.895 9  69597184.130 8
  20627166.818    20627168.584   -43545083.262 8  39130833.094 8
  23447825.380    23447829.181    13886249.217 8   9244660.661 8
  20958424.925    20958426.221   -14967084.934 9 -13044692.233 9
 90  2 24  7 51 29.0800000  0  4G 3G12G11G13
  22523618.806    22523622.508   -61151972.101 9  69579850.986 8
  20628663.988    20628665.298   -43537212.987 9  39136965.757 7
  23453949.193    23453953.257    13918434.934 9   9269740.434 8
  20960853.834    20960855.649   -14954317.493 9 -13034743.590 8
 90  2 24  7 51 44.0800000  0  4G 3G12G11G13
  22519396.915    22519399.072   -61174165.107 8  69562557.743 8
  20630191.952    20630195.092   -43529183.659 8  39143222.365 8
  23460072.369    23460077.478    13950612.600 9   9294813.924 8
  20963291.093    20963293.581   -14941509.616 9 -13024763.434 8
 90  2 24  7 51 59.0800000  0  4G 3G12G11G13
  22515182.495    22515186.004   -61196307.006 9  69545304.320 8
  20631749.822    20631752.445   -43520995.396 9  39149602.825 8
  23466194.398    23466198.650    13982782.182 8   9319881.122 9
  20965735.936    20965738.839   -14928661.389 9 -13014751.821 8
 90  2 24  7 52 14.0800000  0  4G 3G12G11G13
  22510978.466    22510982.504   -61218397.938 8  69528090.620 9
  20633337.969    20633341.238   -43512648.113 9  39156107.197 7
  23472314.332    23472318.885    14014943.616 8   9344941.944 9
  20968189.025    20968191.285   -14915772.989 9 -13004708.916 7
 90  2 24  7 52 29.0800000  0  4G 3G12G11G13
  22506784.366    22506787.884   -61240438.046 8  69510916.525 8
  20634956.509    20634959.949   -43504142.002 9  39162735.318 8
  23478432.936    23478437.230    14047096.884 9   9369996.418 9
  20970649.261    20970650.868   -14902844.543 9 -12994634.812 8
 90  2 24  7 52 44.0800000  0  4G 3G12G11G13
  22502600.926    22502602.833   -61262427.270 9  69493782.072 9
  20636606.273    20636608.825   -43495477.107 8  39169487.187 7
  23484548.670    23484555.125    14079241.887 9   9395044.449 9
  20973116.821    20973119.778   -14889876.116 9 -12984529.557 8
 90  2 24  7 52 59.0800000  0  4G 3G12G11G13
  22498425.876    22498427.671   -61284365.760 9  69476687.153 9
  20638285.313    20638287.649   -43486653.449 8  39176362.757 8
  23490666.273    23490670.051    14111378.557 9   9420086.002 9
  20975592.419    20975595.519   -14876867.975 9 -12974393.341 8
 90  2 24  7 53 14.0800000  0  4G 3G12G11G13
  22494261.493    22494262.237   -61306253.785 9  69459631.565 9
  20639994.173    20639997.226   -43477671.138 8  39183361.942 8
  23496778.801    23496783.446    14143506.864 9   9445121.026 8
  20978075.548    20978077.255   -14863820.604 9 -12964226.568 7
 90  2 24  7 53 29.0800000  0  4G 3G12G11G13
  22490106.422    22490107.828   -61328091.346 9  69442615.281 9
  20641734.084    20641736.351   -43468530.266 9  39190484.693 8
  23502890.801    23502896.491    14175626.687 9   9470149.438 8
  20980566.403    20980568.552   -14850734.106 9 -12954029.293 8
 90  2 24  7 53 44.0800000  0  4G 3G12G11G13
  22485959.950    22485962.565   -61349878.485 9  69425638.300 8
  20643502.443    20643506.756   -43459230.816 9  39197730.997 8
  23509002.843    23509005.101    14207737.954 9   9495171.177 8
  20983063.465    20983065.525   -14837608.465 9 -12943801.516 8
 90  2 24  7 53 59.0800000  0  4G 3G12G11G13
  22481823.556    22481826.339   -61371615.387 9  69408700.470 9
  20645302.738    20645306.750   -43449772.830 9  39205100.852 8
  23515111.403    23515116.047    14239840.570 9   9520186.190 9
  20985567.838    20985569.973   -14824443.969 9 -12933543.480 7
 90  2 24  7 54 14.0800000  0  4G 3G12G11G13
  22477696.628    22477698.541   -61393301.990 9  69391801.826 8
  20647133.111    20647136.509   -43440156.452 9  39212594.122 8
  23521217.914    23521222.467    14271934.501 9   9545194.417 8
  20988080.857    20988083.332   -14811240.870 9 -12923255.363 8
 90  2 24  7 54 29.0800000  0  4G 3G12G11G13
  22473579.305    22473580.998   -61414938.452 9  69374942.255 8
  20648992.590    20648996.461   -43430381.809 9  39220210.710 8
  23527323.969    23527327.748    14304019.756 8   9570195.894 7
  20990600.302    20990604.321   -14797999.193 9 -12912937.170 7
 90  2 24  7 54 44.0800000  0  4G 3G12G11G13
  22469470.535    22469473.667   -61436524.821 9  69358121.711 8
  20650884.465    20650886.375   -43420448.814 9  39227950.704 9
  23533427.798    23533431.170    14336096.316 8   9595190.590 8
  20993127.731    20993130.166   -14784719.205 9 -12902589.139 8
 90  2 24  7 54 59.0800000  0  4G 3G12G11G13
  22465373.447    22465375.017   -61458061.248 9  69341340.077 9
  20652803.557    20652806.810   -43410357.562 9  39235814.010 8
  23539529.867    23539534.406    14368164.124 9   9620178.464 9
  20995662.690    20995663.891   -14771401.029 9 -12892211.337 7
 90  2 24  7 55 14.0800000  0  4G 3G12G11G13
  22461284.752    22461286.724   -61479547.879 9  69324597.253 8
  20654754.671    20654757.453   -43400108.154 8  39243800.550 9
  23545631.458    23545633.950    14400222.928 9   9645159.344 9
  20998204.678    20998206.348   -14758044.714 9 -12881803.822 8
 90  2 24  7 55 29.0800000  0  4G 3G12G11G13
  22457205.187    22457207.348   -61500984.765 9  69307893.200 8
  20656735.320    20656737.517   -43389700.723 9  39251910.228 8
  23551731.358    23551735.074    14432272.740 9   9670133.197 8
  21000752.626    21000755.892   -14744650.662 9 -12871366.903 8
 90  2 24  7 55 44.0800000  0  4G 3G12G11G13
  22453135.514    22453137.369   -61522371.952 9  69291227.868 8
  20658745.017    20658746.985   -43379135.303 9  39260143.022 8
  23557825.529    23557830.018    14464313.544 9   9695100.023 8
  21003307.876    21003311.113   -14731219.146 9 -12860900.791 8
 90  2 24  7 55 59.0800000  0  4G 3G12G11G13
  22449074.390    22449076.231   -61543709.649 9  69274601.104 8
  20660786.222    20660788.247   -43368412.010 9  39268498.817 9
  23563923.656    23563927.256    14496345.281 9   9720059.811 9
  21005871.893    21005873.655   -14717750.293 9 -12850405.573 8
 90  2 24  7 56 14.0800000  0  4G 3G12G11G13
  22445023.438    22445025.069   -61564997.681 9  69258013.032 9
  20662856.734    20662858.985   -43357530.776 9  39276977.697 9
  23570016.004    23570020.304    14528367.922 7   9745012.493 9
  21008442.253    21008444.067   -14704243.960 9 -12839881.162 8
 90  2 24  7 56 29.0800000  0  4G 3G12G11G13
  22440982.579    22440983.992   -61586236.449 9  69241463.347 8
  20664957.180    20664959.689   -43346491.839 9  39285579.451 7
  23576107.133    23576112.235    14560381.526 8   9769958.138 8
  21011019.539    21011021.713   -14690700.433 9 -12829327.767 8
 90  2 24  7 56 44.0800000  0  4G 3G12G11G13
  22436949.986    22436953.229   -61607425.635 8  69224952.295 8
  20667087.159    20667090.913   -43335295.229 9  39294304.079 8
  23582198.970    23582201.677    14592385.938 9   9794896.623 8
  21013603.697    21013606.389   -14677119.767 9 -12818745.432 8
 90  2 24  7 56 59.0800000  0  4G 3G12G11G13
  22432927.748    22432930.682   -61628565.678 8  69208479.541 8
  20669248.190    20669250.487   -43323941.003 9  39303151.510 7
  23588286.852    23588291.083    14624381.114 8   9819827.903 8
  21016193.775    21016196.991   -14663502.322 9 -12808134.441 8
 90  2 24  7 57 14.0800000  0  4G 3G12G11G13
  22428914.915    22428917.662   -61649656.676 9  69192045.008 9
  20671438.498    20671441.936   -43312429.351 8  39312121.633 7
  23594374.439    23594377.239    14656366.957 8   9844751.915 9
  21018792.464    21018795.743   -14649848.380 9 -12797495.010 8
 90  2 24  7 57 29.0800000  0  4G 3G12G11G13
  22424910.058    22424913.284   -61670698.667 9  69175648.653 8
  20673659.197    20673662.381   -43300760.364 9  39321214.328 8
  23600458.931    23600462.452    14688343.412 8   9869668.625 9
  21021398.700    21021400.642   -14636157.817 9 -12786827.054 7
 90  2 24  7 57 44.0800000  0  4G 3G12G11G13
  22420914.903    22420917.710   -61691691.591 9  69159290.543 8
  20675910.547    20675912.400   -43288934.216 8  39330429.499 8
  23606541.332    23606546.463    14720310.375 8   9894577.912 9
  21024009.872    21024012.725   -14622431.090 9 -12776130.885 7
 90  2 24  7 57 59.0800000  0  4G 3G12G11G13
  22416930.321    22416932.098   -61712635.799 9  69142970.393 8
  20678191.030    20678192.740   -43276950.876 9  39339767.158 9
  23612622.245    23612626.490    14752267.816 9   9919479.786 9
  21026629.555    21026631.109   -14608668.170 9 -12765406.557 7
 90  2 24  7 58 14.0800000  0  4G 3G12G11G13
  22412952.995    22412955.048   -61733531.236 9  69126688.242 9
  20680501.450    20680502.889   -43264810.501 9  39349227.186 8
  23618702.171    23618707.796    14784215.611 8   9944374.140 8
  21029255.305    21029257.214   -14594869.266 9 -12754654.148 7
 90  2 24  7 58 29.0800000  0  4G 3G12G11G13
  22408985.671    22408987.206   -61754377.909 9  69110444.071 8
  20682840.544    20682843.769   -43252513.081 9  39358809.579 8
  23624779.892    23624785.740    14816153.865 9   9969261.097 9
  21031887.115    21031888.901   -14581034.742 9 -12743874.012 8
 90  2 24  7 58 44.0800000  0  4G 3G12G11G13
  22405028.529    22405030.625   -61775176.185 9  69094237.634 9
  20685210.691    20685213.901   -43240058.797 9  39368514.217 8
  23630855.318    23630859.427    14848082.496 8   9994140.524 9
  21034527.905    21034529.011   -14567164.626 9 -12733066.134 8
 90  2 24  7 58 59.0800000  0  4G 3G12G11G13
  22401078.562    22401082.649   -61795925.785 9  69078069.124 8
  20687610.312    20687613.694   -43227447.706 9  39378341.029 8
  23636929.571    23636934.480    14880001.488 8  10019012.438 9
  21037173.862    21037175.773   -14553259.083 9 -12722230.659 8
 90  2 24  7 59 14.0800000  0  4G 3G12G11G13
  22397139.903    22397142.683   -61816627.098 9  69061938.237 8
  20690040.814    20690043.911   -43214679.967 9  39388289.909 8
  23643001.998    23643007.407    14911910.841 8  10043876.849 9
  21039825.992    21039829.268   -14539318.292 9 -12711367.714 7
 90  2 24  7 59 29.0800000  0  4G 3G12G11G13
  22393210.269    22393211.769   -61837280.234 9  69045844.906 9
  20692500.362    20692501.815   -43201755.774 9  39398360.700 7
  23649072.244    23649077.318    14943810.368 9  10068733.609 9
  21042485.851    21042486.513   -14525342.465 9 -12700477.455 7
 90  2 24  7 59 44.0800000  0  4G 3G12G11G13
  22389289.285    22389290.423   -61857885.101 9  69029789.158 8
  20694988.616    20694991.156   -43188675.252 9  39408553.309 7
  23655142.045    23655145.933    14975700.023 8  10093582.681 9
  21045151.632    21045153.828   -14511331.863 9 -12689560.107 8
 90  2 24  7 59 59.0800000  0  4G 3G12G11G13
  22385377.320    22385378.792   -61878441.819 9  69013770.938 8
  20697507.977    20697509.902   -43175438.387 9  39418867.737 8
  23661207.304    23661210.834    15007579.898 8  10118424.118 9
  21047824.156    21047827.822   -14497286.387 9 -12678615.596 8
 90  2 24  8  0 14.0800000  0  4G 3G12G11G13
  22381475.514    22381476.870   -61898950.617 9  68997790.073 8
  20700056.502    20700058.654   -43162045.398 9  39429303.819 8
  23667271.326    23667276.686    15039449.902 8  10143257.855 9
  21050504.415    21050505.490   -14483206.179 9 -12667643.992 8
 90  2 24  8  0 29.0800000  0  4G 3G12G11G13
  22377581.231    22377584.326   -61919411.394 9  68981846.606 8
  20702634.960    20702637.383   -43148496.275 9  39439861.575 7
  23673334.875    23673339.692    15071309.952 9  10168083.851 8
  21053189.989    21053192.506   -14469091.338 9 -12656645.429 8
 90  2 24  8  0 44.0800000  0  4G 3G12G11G13
  22373696.747    22373699.079   -61939824.452 9  68965940.339 8
  20705242.266    20705245.606   -43134791.227 8  39450540.831 7
  23679394.460    23679399.161    15103160.051 9  10192902.084 8
  21055881.873    21055884.023   -14454942.280 9 -12645620.187 7
 90  2 24  8  0 59.0800000  0  4G 3G12G11G13
  22369820.992    22369822.848   -61960189.730 9  68950071.313 9
  20707880.221    20707883.176   -43120930.349 9  39461341.506 7
  23685455.833    23685460.206    15135000.054 9  10217712.469 9
  21058581.069    21058582.968   -14440759.239 9 -12634568.466 7
 90  2 24  8  1 14.0800000  0  4G 3G12G11G13
  22365955.364    22365955.995   -61980507.372 9  68934239.377 8
  20710547.254    20710550.393   -43106913.811 9  39472263.477 8
  23691511.097    23691515.586    15166830.038 8  10242515.041 9
  21061286.162    21061288.583   -14426542.139 9 -12623490.221 8
 90  2 24  8  1 29.0800000  0  4G 3G12G11G13
  22362097.920    22362098.335   -62000777.543 9  68918444.439 8
  20713244.936    20713246.273   -43092741.746 9  39483306.633 9
  23697566.718    23697571.220    15198649.987 9  10267309.767 9
  21063998.078    21064000.049   -14412291.234 9 -12612385.620 8
 90  2 24  8  1 44.0800000  0  4G 3G12G11G13
  22358249.602    22358251.046   -62021000.340 9  68902686.413 7
  20715971.323    20715973.306   -43078414.166 9  39494470.983 7
  23703620.801    23703625.140    15230459.722 8  10292096.559 9
  21066716.266    21066719.628   -14398006.924 9 -12601254.991 8
 90  2 24  8  1 59.0800000  0  4G 3G12G11G13
  22354410.848    22354411.684   -62041175.702 9  68886965.362 7
  20718726.357    20718729.397   -43063931.184 9  39505756.407 7
  23709671.909    23709676.175    15262259.323 8  10316875.448 9
  21069441.836    21069443.220   -14383689.108 9 -12590098.256 8
 90  2 24  8  2 14.0800000  0  4G 3G12G11G13
  22350578.984    22350581.738   -62061303.911 9  68871281.050 8
  20721511.670    20721515.468   -43049293.014 8  39517162.770 8
  23715719.518    23715725.622    15294048.551 9  10341646.257 8
  21072172.348    21072174.375   -14369338.005 9 -12578915.580 7
 90  2 24  8  2 29.0800000  0  4G 3G12G11G13
  22346758.283    22346760.307   -62081384.963 9  68855633.485 8
  20724327.431    20724329.512   -43034499.810 9  39528689.928 8
  23721767.770    23721772.279    15325827.437 8  10366408.997 8
  21074909.541    21074912.006   -14354953.616 9 -12567706.974 7
 90  2 24  8  2 44.0800000  0  4G 3G12G11G13
  22342945.864    22342948.336   -62101419.074 9  68840022.503 8
  20727171.297    20727174.594   -43019551.709 9  39540337.787 8
  23727811.430    23727818.556    15357596.021 9  10391163.713 9
  21077652.819    21077654.636   -14340536.295 8 -12556472.701 7
 90  2 24  8  2 59.0800000  0  4G 3G12G11G13
  22339141.702    22339144.110   -62121406.313 9  68824448.028 8
  20730045.355    20730048.825   -43004448.767 9  39552106.306 7
  23733858.844    23733861.615    15389354.210 9  10415910.340 9
  21080403.234    21080404.728   -14326086.114 9 -12545212.807 8
 90  2 24  8  3 14.0800000  0  3G 3G12G13
  22335347.639    22335350.474   -62141346.615 9  68808910.155 8
  20732949.988    20732951.664   -42989191.185 9  39563995.330 7
  21083158.615    21083161.141   -14311603.388 8 -12533927.586 8
 90  2 24  8  3 29.0800000  0  3G 3G12G13
  22331562.952    22331564.991   -62161240.128 9  68793408.711 7
  20735881.196    20735885.106   -42973779.240 9  39576004.626 8
  21085920.636    21085923.433   -14297088.171 9 -12522617.030 7
 90  2 24  8  3 44.0800000  0  4G 3G12G19G13
  22327786.039    22327787.564   -62181087.118 9  68777943.544 8
  20738844.321    20738847.684   -42958212.826 8  39588134.304 7
                  23129070.483   -75155195.506 7
  21088688.485    21088692.385   -14282540.739 9 -12511281.374 8
 90  2 24  8  3 59.0800000  0  4G 3G12G19G13
  22324019.259    22324020.598   -62200887.555 9  68762514.618 7
  20741836.504    20741838.052   -42942492.143 9  39600384.169 8
  23124154.918    23124153.709   -75181061.256 9  95458199.706 8
  21091462.487    21091467.340   -14267960.971 9 -12499920.519 8
 90  2 24  8  4 14.0800000  0  4G 3G12G19G13
  22320258.489    22320260.270   -62220641.512 9  68747121.936 8
  20744856.302    20744858.313   -42926617.363 8  39612754.105 7
  23119253.618    23119257.581   -75206806.447 8  95438137.996 8
  21094243.549    21094246.801   -14253349.124 9 -12488534.660 8
 90  2 24  8  4 29.0800000  0  4G 3G12G19G13
  22316508.478    22316510.044   -62240349.206 9  68731765.310 8
  20747906.806    20747909.544   -42910588.651 9  39625244.020 7
  23114379.462    23114381.803   -75232431.018 9  95418170.798 9
  21097029.749    21097033.987   -14238705.673 9 -12477124.187 8
 90  2 24  8  4 44.0800000  0  4G 3G12G19G13
  22312766.453    22312768.863   -62260010.660 9  68716444.693 8
  20750986.040    20750989.837   -42894406.164 8  39637853.731 7
  23109524.947    23109527.637   -75257934.566 9  95398297.901 9
  21099822.560    21099825.671   -14224030.613 8 -12465689.078 8
 90  2 24  8  4 59.0800000  0  4G 3G12G19G13
  22309034.300    22309035.967   -62279625.869 9  68701160.129 9
  20754095.886    20754096.438   -42878070.017 9  39650583.195 7
  23104692.483    23104696.217   -75283316.924 8  95378519.438 9
  21102620.884    21102623.469   -14209323.879 9 -12454229.292 8
 90  2 24  8  5 14.0800000  0  4G 3G12G19G13
  22305311.449    22305313.115   -62299195.083 9  68685911.398 9
  20757232.394    20757236.588   -42861580.396 9  39663432.233 8
  23099885.952    23099890.223   -75308578.165 8  95358835.356 8
  21105425.793    21105428.987   -14194585.655 9 -12442744.953 8
 90  2 24  8  5 29.0800000  0  4G 3G12G19G13
  22301596.068    22301597.891   -62318718.364 9  68670698.453 8
  20760399.817    20760402.459   -42844937.578 9  39676400.645 7
  23095103.096    23095105.723   -75333718.117 8  95339245.807 8
  21108236.664    21108239.830   -14179816.306 9 -12431236.384 8
 90  2 24  8  5 44.0800000  0  4G 3G12G19G13
  22297889.213    22297890.122   -62338195.689 9  68655521.335 8
  20763596.493    20763599.534   -42828141.587 9  39689488.440 7
  23090344.017    23090343.430   -75358736.725 9  95319750.784 9
  21111052.732    21111056.477   -14165015.956 9 -12419703.641 7
 90  2 24  8  5 59.0800000  0  4G 3G12G19G13
  22294190.631    22294192.269   -62357627.342 9  68640379.802 9
  20766821.554    20766824.544   -42811192.492 9  39702695.510 8
  23085605.814    23085606.565   -75383633.363 9  95300350.773 7
  21113874.718    21113877.592   -14150184.747 9 -12408146.860 8
 90  2 24  8  6 14.0800000  0  4G 3G12G19G13
  22290501.721    22290504.016   -62377013.495 9  68625273.712 8
  20770076.779    20770078.194   -42794090.579 8  39716021.671 7
  23080888.681    23080895.184   -75408408.157 8  95281045.713 7
  21116703.417    21116705.981   -14135322.746 9 -12396566.086 7
 90  2 24  8  6 29.0800000  0  4G 3G12G19G13
  22286821.538    22286824.621   -62396354.054 9  68610203.147 8
  20773359.424    20773361.996   -42776835.896 8  39729466.868 8
  23076198.234    23076201.847   -75433060.714 9  95261835.965 9
  21119538.125    21119540.249   -14120430.140 9 -12384961.454 9
 90  2 24  8  6 44.0800000  0  4G 3G12G19G13
  22283150.000    22283152.453   -62415649.122 9  68595168.036 8
  20776671.657    20776675.093   -42759428.698 8  39743030.900 6
  23071531.125    23071532.987   -75457590.805 9  95242721.606 9
  21122377.645    21122379.984   -14105507.041 9 -12373333.083 8
 90  2 24  8  6 59.0800000  0  4G 3G12G19G13
  22279486.360    22279487.598   -62434898.762 9  68580168.329 8
  20780012.972    20780015.211   -42741869.265 9  39756713.576 9
  23066887.369    23066889.373   -75481998.589 9  95223702.554 9
  21125222.516    21125225.177   -14090553.609 9 -12361681.054 8
 90  2 24  8  7 14.0800000  0  4G 3G12G19G13
  22275832.279    22275834.218   -62454103.299 9  68565203.747 8
  20783384.230    20783386.635   -42724157.543 8  39770514.906 7
  23062264.563    23062268.055   -75506283.684 9  95204779.104 8
  21128074.231    21128076.942   -14075570.069 9 -12350005.576 9
 90  2 24  8  7 29.0800000  0  4G 3G12G19G13
  22272186.325    22272189.209   -62473262.634 9  68550274.398 8
  20786782.701    20786786.002   -42706293.768 9  39784434.723 7
  23057666.347    23057669.144   -75530446.023 8  95185951.316 9
  21130931.542    21130933.998   -14060556.530 9 -12338306.709 9
 90  2 24  8  7 44.0800000  0  4G 3G12G19G13
  22268547.698    22268551.596   -62492376.995 9  68535380.099 9
  20790211.462    20790214.673   -42688278.049 9  39798472.943 7
  23053092.435    23053095.073   -75554485.208 8  95167219.460 9
  21133794.377    21133797.127   -14045513.017 9 -12326584.496 7
 90  2 24  8  7 59.0800000  0  4G 3G12G19G13
  22264919.574    22264922.027   -62511446.335 9  68520520.886 8
  20793668.696    20793671.418   -42670110.680 9  39812629.326 9
  23048541.138    23048544.078   -75578401.293 9  95148583.557 9
  21136661.935    21136664.549   -14030440.086 9 -12314839.357 8
 90  2 24  8  8 14.0800000  0  4G 3G12G19G13
  22261300.235    22261301.989   -62530470.772 9  68505696.661 8
  20797153.576    20797157.762   -42651791.897 9  39826903.691 7
  23044016.249    23044018.036   -75602194.089 9  95130043.729 8
  21139536.772    21139539.638   -14015337.610 9 -12303071.195 8
 90  2 24  8  8 29.0800000  0  4G 3G12G19G13
  22257687.822    22257691.278   -62549450.456 8  68490907.306 8
  20800668.792    20800672.401   -42633321.738 9  39841296.012 7
  23039510.269    23039511.607   -75625863.296 9  95111600.184 9
  21142415.785    21142418.813   -14000205.587 9 -12291280.010 8
 90  2 24  8  8 44.0800000  0  4G 3G12G19G13
  22254084.338    22254086.892   -62568385.565 8  68476152.679 8
  20804212.396    20804216.172   -42614700.417 9  39855806.122 8
  23035028.987    23035030.153   -75649408.774 9  95093253.048 8
  21145299.906    21145303.526   -13985044.407 9 -12279466.106 8
 90  2 24  8  8 59.0800000  0  4G 3G12G19G13
  22250490.240    22250492.223   -62587276.042 8  68461432.827 9
  20807785.119    20807787.801   -42595928.012 8  39870433.961 7
  23030572.223    23030575.043   -75672830.285 9  95075002.497 9
  21148191.216    21148194.041   -13969854.181 9 -12267629.574 7
 90  2 24  8  9 14.0800000  0  4G 3G12G19G13
  22246903.698    22246906.567   -62606122.298 9  68446747.462 8
  20811385.656    20811388.287   -42577004.833 9  39885179.282 8
  23026137.562    23026143.179   -75696127.720 8  95056848.672 8
  21151088.010    21151091.519   -13954634.644 9 -12255770.193 9
 90  2 24  8  9 29.0800000  0  4G 3G12G19G13
  22243326.515    22243328.755   -62624924.050 9  68432096.748 7
  20815015.797    20815018.708   -42557931.042 8  39900041.961 7
  23021728.885    23021731.782   -75719300.919 8  95038791.659 9
  21153989.510    21153991.384   -13939386.449 9 -12243888.479 8
 90  2 24  8  9 44.0800000  0  4G 3G12G19G13
  22239756.515    22239758.682   -62643681.652 9  68417480.441 8
  20818674.009    20818676.791   -42538706.751 9  39915021.919 7
  23017344.284    23017345.384   -75742349.626 9  95020831.621 9
  21156897.302    21156898.545   -13924109.629 9 -12231984.469 7
 90  2 24  8  9 59.0800000  0  4G 3G12G19G13
  22236195.845    22236196.193   -62662394.942 9  68402898.669 9
  20822361.470    20822363.741   -42519332.165 9  39930119.002 8
  23012979.592    23012983.377   -75765273.744 9  95002968.668 9
  21159808.854    21159811.424   -13908804.345 9 -12220058.275 9
 90  2 24  8 10 14.0800000  0  4G 3G12G19G13
  22232643.128    22232645.439   -62681064.305 9  68388351.110 8
  20826076.308    20826078.709   -42499807.522 9  39945332.995 8
  23008642.747    23008643.665   -75788073.323 9  94985202.769 9
  21162726.224    21162729.516   -13893470.916 9 -12208110.147 9
 90  2 24  8 10 29.0800000  0  4G 3G12G19G13
  22229098.713    22229101.266   -62699689.772 9  68373837.775 7
  20829820.712    20829823.467   -42480133.065 9  39960663.730 7
  23004327.267    23004329.055   -75810748.115 9  94967534.095 8
  21165649.888    21165653.373   -13878109.342 9 -12196140.098 8
 90  2 24  8 10 44.0800000  0  4G 3G12G19G13
  22225563.454    22225566.066   -62718271.286 9  68359358.672 8
  20833593.640    20833595.051   -42460308.940 9  39976111.095 8
  23000036.577    23000038.365   -75833297.929 9  94949962.808 9
  21168577.867    21168581.031   -13862719.568 9 -12184148.084 8
 90  2 24  8 10 59.0800000  0  4G 3G12G19G13
  22222035.608    22222037.846   -62736809.170 9  68344913.571 7
  20837393.325    20837396.547   -42440335.500 9  39991674.804 7
  22995768.602    22995772.500   -75855722.376 9  94932489.210 9
  21171511.806    21171514.829   -13847301.830 9 -12172134.256 8
 90  2 24  8 11 14.0800000  0  4G 3G12G19G13
  22218514.775    22218517.058   -62755303.391 9  68330502.491 8
  20841222.535    20841224.912   -42420212.774 9  40007354.841 7
  22991524.415    22991528.480   -75878021.349 8  94915113.388 8
  21174451.779    21174453.833   -13831856.278 9 -12160098.763 8
 90  2 24  8 11 29.0800000  0  4G 3G12G19G13
  22215003.985    22215008.371   -62773754.067 9  68316125.331 7
  20845080.118    20845083.142   -42399940.965 9  40023151.054 9
  22987306.680    22987309.756   -75900194.708 8  94897835.456 9
  21177395.756    21177398.475   -13816383.225 9 -12148041.843 8
 90  2 24  8 11 44.0800000  0  4G 3G12G19G13
  22211501.410    22211504.994   -62792161.347 9  68301782.014 8
  20848965.964    20848969.058   -42379520.234 9  40039063.292 8
  22983110.459    22983114.201   -75922242.147 8  94880655.641 9
  21180345.592    21180348.237   -13800882.644 9 -12135963.472 9
 90  2 24  8 11 59.0800000  0  4G 3G12G19G13
  22208006.820    22208009.473   -62810525.267 9  68287472.474 9
  20852880.404    20852883.309   -42358950.822 9  40055091.402 8
  22978938.972    22978941.918   -75944163.797 9  94863573.871 9
  21183298.714    21183302.783   -13785354.814 9 -12123863.871 8
 90  2 24  8 12 14.0800000  0  4G 3G12G19G13
  22204520.756    22204523.896   -62828845.948 9  68273196.626 8
  20856822.328    20856826.927   -42338232.957 9  40071235.191 8
  22974791.945    22974794.764   -75965959.450 9  94846590.262 8
  21186260.190    21186262.000   -13769799.798 9 -12111743.079 8
 90  2 24  8 12 29.0800000  0  4G 3G12G19G13
  22201043.136    22201045.318   -62847123.498 9  68258954.402 9
  20860793.744    20860796.900   -42317366.794 9  40087494.508 8
  22970668.594    22970670.540   -75987629.102 9  94829704.819 9
  21189225.644    21189227.461   -13754217.725 9 -12099601.211 7
 90  2 24  8 12 44.0800000  0  4G 3G12G19G13
  22197573.729    22197573.936   -62865358.074 8  68244745.649 8
  20864792.156    20864794.638   -42296352.586 9  40103869.212 7
  22966570.089    22966570.140   -76009172.380 9  94812917.848 9
  21192195.694    21192199.037   -13738608.804 8 -12087438.425 7
 90  2 24  8 12 59.0800000  0  4G 3G12G19G13
  22194111.592    22194112.885   -62883549.754 9  68230570.319 8
  20868819.236    20868823.049   -42275190.506 9  40120359.126 7
  22962494.959    22962494.709   -76030589.058 9  94796229.507 8
  21195171.096    21195173.653   -13722973.101 9 -12075254.756 8
 90  2 24  8 13 14.0800000  0  4G 3G12G19G13
  22190657.036    22190658.906   -62901698.524 9  68216428.419 8
  20872874.652    20872877.207   -42253880.793 9  40136964.102 8
  22958441.959    22958444.664   -76051879.063 9  94779639.891 8
  21198151.850    21198154.723   -13707310.750 9 -12063050.324 8
 90  2 24  8 13 29.0800000  0  4G 3G12G19G13
  22187211.898    22187214.496   -62919804.578 9  68202319.816 8
  20876958.156    20876960.661   -42232423.633 9  40153683.953 8
  22954415.716    22954416.239   -76073042.543 9  94763148.884 8
  21201137.380    21201139.678   -13691621.902 9 -12050825.250 7
 90  2 24  8 13 44.0800000  0  4G 3G12G19G13
  22183775.947    22183777.541   -62937868.131 9  68188244.340 8
  20881069.257    20881071.555   -42210819.195 9  40170518.577 9
  22950412.219    22950412.127   -76094079.223 9  94746756.663 8
  21204127.498    21204130.195   -13675906.884 9 -12038579.798 8
 90  2 24  8 13 59.0800000  0  4G 3G12G19G13
  22180345.346    22180348.070   -62955889.135 9  68174202.005 8
  20885208.268    20885212.330   -42189067.671 9  40187467.788 8
  22946432.717    22946433.310   -76114988.874 8  94730463.432 8
  21207123.284    21207125.874   -13660165.707 9 -12026313.944 8
 90  2 24  8 14 14.0800000  0  4G 3G12G19G13
  22176924.705    22176926.585   -62973867.735 9  68160192.710 9
  20889375.712    20889378.015   -42167169.374 9  40204531.387 9
  22942476.348    22942480.196   -76135771.196 9  94714269.399 8
  21210123.586    21210125.671   -13644398.554 9 -12014027.851 8
 90  2 24  8 14 29.0800000  0  4G 3G12G19G13
  22173510.417    22173512.770   -62991804.101 9  68146216.327 8
  20893570.439    20893573.889   -42145124.524 9  40221709.190 7
  22938547.558    22938550.891   -76156426.317 8  94698174.504 8
  21213128.230    21213131.317   -13628605.331 9 -12001721.462 7
 90  2 24  8 14 44.0800000  0  4G 3G12G19G13
  22170105.832    22170107.910   -63009698.235 9  68132272.855 7
  20897792.936    20897796.311   -42122933.345 9  40239001.005 7
  22934640.139    22934642.785   -76176953.749 8  94682179.112 9
  21216138.798    21216142.156   -13612786.281 9 -11989394.928 8
 90  2 24  8 14 59.0800000  0  4G 3G12G19G13
  22166709.315    22166711.910   -63027550.266 9  68118362.185 8
  20902043.177    20902047.345   -42100595.943 9  40256406.767 8
  22930759.013    22930762.052   -76197353.689 9  94666283.050 9
  21219154.130    21219156.341   -13596941.679 9 -11977048.482 9
 90  2 24  8 15 14.0800000  0  4G 3G12G19G13
  22163319.466    22163322.050   -63045360.214 9  68104484.310 7
  20906322.252    20906325.609   -42078112.623 9  40273926.228 7
  22926900.517    22926904.574   -76217625.962 9  94650486.486 9
  21222174.559    21222177.581   -13581071.503 9 -11964682.110 8
 90  2 24  8 15 29.0800000  0  4G 3G12G19G13
  22159938.862    22159940.743   -63063128.298 9  68090639.056 8
  20910628.280    20910631.848   -42055483.692 8  40291559.154 9
  22923067.735    22923070.360   -76237770.213 9  94634789.678 9
  21225199.972    21225201.428   -13565175.744 9 -11952295.807 9
 90  2 24  8 15 44.0800000  0  4G 3G12G19G13
  22156565.070    22156568.425   -63080854.638 9  68076826.326 9
  20914962.820    20914964.890   -42032709.309 9  40309305.423 8
  22919257.718    22919261.675   -76257786.464 9  94619192.605 9
  21228229.060    21228231.472   -13549254.817 9 -11939889.903 8
 90  2 24  8 15 59.0800000  0  4G 3G12G19G13
  22153199.548    22153201.344   -63098539.175 9  68063046.180 8
  20919324.294    20919326.105   -42009789.630 9  40327164.888 8
  22915473.674    22915476.844   -76277674.503 9  94603695.447 9
  21231263.786    21231265.989   -13533308.968 9 -11927464.560 7
 90  2 24  8 16 14.0800000  0  4G 3G12G19G13
  22149841.810    22149844.936   -63116182.299 8  68049298.299 9
  20923713.319    20923715.128   -41986725.054 9  40345137.283 9
  22911714.592    22911715.972   -76297434.250 8  94588298.235 9
  21234301.919    21234305.350   -13517338.339 9 -11915019.928 8
 90  2 24  8 16 29.0800000  0  4G 3G12G19G13
  22146493.515    22146495.154   -63133783.879 9  68035582.788 9
  20928130.051    20928131.836   -41963515.525 9  40363222.621 8
  22907976.451    22907979.341   -76317065.523 8  94573001.145 9
  21237346.375    21237349.245   -13501342.921 9 -11902555.988 8
 90  2 24  8 16 44.0800000  0  4G 3G12G19G13
  22143152.692    22143153.585   -63151344.010 9  68021899.585 8
  20932573.777    20932577.392   -41940161.365 9  40381420.649 7
  22904266.820    22904269.002   -76336568.207 8  94557804.259 8
  21240395.056    21240397.707   -13485322.651 9 -11890072.652 8
 90  2 24  8 16 59.0800000  0  4G 3G12G19G13
  22139817.705    22139820.443   -63168862.807 9  68008248.577 8
  20937045.267    20937048.506   -41916662.826 9  40399731.195 9
  22900581.365    22900583.612   -76355942.208 9  94542707.646 9
  21243448.898    21243449.998   -13469277.638 9 -11877570.042 8
 90  2 24  8 17 14.0800000  0  4G 3G12G19G13
  22136490.960    22136493.830   -63186340.516 9  67994629.583 8
  20941544.105    20941547.268   -41893020.244 9  40418153.981 8
  22896919.464    22896921.024   -76375187.334 9  94527711.439 9
  21246506.588    21246508.755   -13453208.110 9 -11865048.327 9
 90  2 24  8 17 29.0800000  0  4G 3G12G19G13
  22133173.202    22133176.356   -63203777.005 9  67981042.716 9
  20946070.424    20946074.078   -41869233.852 9  40436688.812 8
  22893281.959    22893284.413   -76394303.582 9  94512815.670 9
  21249569.223    21249571.054   -13437114.165 9 -11852507.607 8
 90  2 24  8 17 44.0800000  0  4G 3G12G19G13
  22129862.771    22129865.840   -63221172.643 9  67967487.687 8
  20950623.756    20950627.674   -41845303.864 9  40455335.548 8
  22889667.657    22889669.509   -76413290.691 9  94498020.532 9
  21252636.026    21252638.966   -13420996.068 9 -11839948.060 8
 90  2 24  8 17 59.0800000  0  4G 3G12G19G13
  22126560.581    22126563.035   -63238527.397 9  67953964.507 9
  20955206.008    20955207.628   -41821230.515 9  40474094.008 8
  22886077.574    22886080.870   -76432148.448 9  94483326.178 8
  21255706.868    21255710.666   -13404853.814 9 -11827369.675 8
 90  2 24  8 18 14.0800000  0  4G 3G12G19G13
  22123266.461    22123268.845   -63255841.371 9  67940473.106 8
  20959813.957    20959816.362   -41797014.040 9  40492963.967 8
  22882514.160    22882516.994   -76450876.804 8  94468732.671 9
  21258783.423    21258785.695   -13388687.775 9 -11814772.773 7
 90  2 24  8 18 29.0800000  0  4G 3G12G19G13
  22119980.298    22119982.365   -63273114.678 9  67927013.398 9
  20964448.990    20964451.864   -41772654.564 9  40511945.361 8
  22878974.359    22878976.593   -76469475.702 8  94454240.018 9
  21261864.735    21261866.972   -13372497.975 9 -11802157.351 8
 90  2 24  8 18 44.0800000  0  4G 3G12G19G13
  22116700.374    22116702.498   -63290347.361 9  67913585.342 9
  20969111.149    20969115.184   -41748152.297 9  40531038.033 8
  22875460.837    22875461.554   -76487945.036 9  94439848.350 9
  21264951.001    21264953.025   -13356284.483 9 -11789523.454 8
 90  2 24  8 18 59.0800000  0  4G 3G12G19G13
  22113427.719    22113430.230   -63307539.575 9  67900188.819 8
  20973801.950    20973804.995   -41723507.721 9  40550241.589 9
  22871970.919    22871972.779   -76506284.593 9  94425557.788 9
  21268040.093    21268042.096   -13340047.302 9 -11776871.116 9
 90  2 24  8 19 14.0800000  0  4G 3G12G19G13
  22110164.707    22110166.946   -63324691.466 9  67886823.717 8
  20978518.534    20978521.615   -41698720.989 9  40569555.920 8
  22868505.267    22868509.359   -76524494.360 8  94411368.336 9
  21271134.620    21271136.891   -13323786.705 9 -11764200.532 9
 90  2 24  8 19 29.0800000  0  4G 3G12G19G13
  22106909.222    22106909.616   -63341803.105 9  67873489.975 8
  20983262.295    20983265.073   -41673792.354 9  40588980.815 8
  22865065.623    22865067.448   -76542574.443 9  94397279.960 9
  21274233.536    21274236.132   -13307502.850 9 -11751511.816 8
 90  2 24  8 19 44.0800000  0  4G 3G12G19G13
  22103660.521    22103660.284   -63358874.505 9  67860187.587 9
  20988033.040    20988035.824   -41648722.009 9  40608516.140 8
  22861648.601    22861651.756   -76560524.147 9  94383293.182 8
  21277335.569    21277338.274   -13291195.957 9 -11738805.156 8
 90  2 24  8 19 59.0800000  0  4G 3G12G19G13
  22100418.916    22100420.811   -63375905.902 9  67846916.369 8
  20992829.259    20992833.885   -41623510.208 9  40628161.687 8
  22858257.565    22858263.103   -76578343.610 8  94369407.900 9
  21280443.247    21280444.996   -13274866.079 9 -11726080.583 8
 90  2 24  8 20 14.0800000  0  4G 3G12G19G13
  22097185.353    22097188.121   -63392897.248 9  67833676.367 9
  20997654.579    20997658.315   -41598157.266 9  40647917.221 8
  22854892.609    22854896.292   -76596032.688 8  94355624.225 9
  21283555.116    21283559.234   -13258513.006 9 -11713337.943 8
 90  2 24  8 20 29.0800000  0  4G 3G12G19G13
  22093959.431    22093962.774   -63409848.677 9  67820467.464 9
  21002506.246    21002509.288   -41572663.343 9  40667782.615 7
  22851551.976    22851553.965   -76613591.388 8  94341942.128 9
  21286672.259    21286674.848   -13242137.077 9 -11700577.475 8
 90  2 24  8 20 44.0800000  0  4G 3G12G19G13
  22090741.323    22090745.077   -63426760.292 9  67807289.599 9
  21007383.791    21007386.851   -41547028.700 9  40687757.643 8
  22848236.113    22848236.901   -76631019.409 9  94328361.861 9
  21289792.368    21289795.615   -13225738.547 9 -11687799.412 8
 90  2 24  8 20 59.0800000  0  4G 3G12G19G13
  22087530.682    22087533.923   -63443632.285 9  67794142.602 9
  21012289.098    21012291.422   -41521253.737 9  40707842.026 7
  22844943.296    22844945.622   -76648316.938 9  94314883.253 8
  21292917.585    21292919.941   -13209317.523 9 -11675003.818 9
 90  2 24  8 21 14.0800000  0  4G 3G12G19G13
  22084328.687    22084330.295   -63460464.709 9  67781026.443 9
  21017219.810    21017223.001   -41495338.762 9  40728035.508 8
  22841676.285    22841679.583   -76665483.642 9  94301506.604 8
  21296045.496    21296049.244   -13192874.064 9 -11662190.738 8
 90  2 24  8 21 29.0800000  0  4G 3G12G19G13
  22081131.755    22081134.408   -63477257.621 9  67767941.057 8
  21022177.719    21022181.248   -41469283.955 9  40748337.936 8
  22838434.466    22838437.893   -76682519.641 9  94288231.818 9
  21299179.831    21299182.851   -13176408.051 9 -11649360.093 9
 90  2 24  8 21 44.0800000  0  4G 3G12G19G13
  22077944.410    22077946.306   -63494011.189 9  67754886.337 8
  21027163.539    21027165.962   -41443089.412 9  40768749.254 8
  22835217.808    22835220.276   -76699424.502 9  94275059.196 8
  21302317.593    21302319.787   -13159919.938 9 -11636512.216 7
 90  2 24  8 21 59.0800000  0  4G 3G12G19G13
  22074763.591    22074765.631   -63510725.480 9  67741862.235 8
  21032174.148    21032176.395   -41416755.389 9  40789269.263 7
  22832027.401    22832027.938   -76716198.355 9  94261988.680 9
  21305457.913    21305460.983   -13143409.811 9 -11623647.186 8
 90  2 24  8 22 14.0800000  0  4G 3G12G19G13
  22071589.841    22071592.810   -63527400.571 9  67728868.650 9
  21037212.751    21037215.091   -41390282.245 9  40809897.676 8
  22828859.961    22828861.056   -76732840.963 9  94249020.415 9
  21308604.340    21308607.355   -13126877.590 9 -11610764.960 8
 90  2 24  8 22 29.0800000  0  4G 3G12G19G13
  22068424.418    22068426.873   -63544036.605 9  67715905.524 8
  21042276.165    21042279.225   -41363670.271 9  40830634.271 8
  22825716.640    22825720.152   -76749352.214 9  94236154.498 9
  21311753.892    21311757.277   -13110323.629 9 -11597865.761 7
 90  2 24  8 22 44.0800000  0  4G 3G12G19G13
  22065266.409    22065268.131   -63560633.492 9  67702972.886 8
  21047366.320    21047368.485   -41336919.762 9  40851478.821 8
  22822599.903    22822602.343   -76765732.155 9  94223390.932 8
  21314908.955    21314912.472   -13093747.911 9 -11584949.628 8
 90  2 24  8 22 59.0800000  0  4G 3G12G19G13
  22062115.811    22062117.491   -63577191.619 9  67690070.458 9
  21052483.640    21052486.218   -41310030.911 9  40872431.158 8
  22819507.400    22819510.096   -76781980.528 8  94210729.865 9
  21318067.238    21318070.927   -13077150.553 9 -11572016.630 9
 90  2 24  8 23 14.0800000  0  4G 3G12G19G13
  22058972.253    22058973.833   -63593710.858 9  67677198.337 9
  21057626.599    21057629.395   -41283004.004 9  40893491.072 8
  22816441.561    22816442.407   -76798097.298 9  94198171.347 8
  21321229.730    21321233.454   -13060531.676 9 -11559066.868 8
 90  2 24  8 23 29.0800000  0  4G 3G12G19G13
  22055835.907    22055837.903   -63610191.502 9  67664356.268 7
  21062795.854    21062798.353   -41255839.384 9  40914658.300 8
  22813400.772    22813401.131   -76814082.408 9  94185715.411 8
  21324396.758    21324398.559   -13043891.402 9 -11546100.427 8
 90  2 24  8 23 44.0800000  0  4G 3G12G19G13
  22052706.916    22052708.781   -63626633.468 9  67651544.363 9
  21067991.419    21067994.860   -41228537.233 9  40935932.677 7
  22810382.784    22810384.988   -76829935.753 9  94173362.147 8
  21327566.784    21327568.560   -13027229.829 9 -11533117.386 7
 90  2 24  8 23 59.0800000  0  4G 3G12G19G13
  22049585.365    22049587.260   -63643037.020 9  67638762.376 9
  21073212.669    21073216.207   -41201097.867 9  40957314.003 7
  22807391.441    22807392.519   -76845656.897 9  94161111.922 8
  21330742.635    21330744.043   -13010546.945 9 -11520117.747 8
 90  2 24  8 24 14.0800000  0  4G 3G12G19G13
  22046470.224    22046472.878   -63659402.066 9  67626010.402 8
  21078459.687    21078463.126   -41173521.461 9  40978802.099 8
  22804424.822    22804426.203   -76861246.183 9  94148964.416 8
  21333921.822    21333923.481   -12993842.819 9 -11507101.545 8
 90  2 24  8 24 29.0800000  0  4G 3G12G19G13
  22043365.187    22043365.852   -63675728.834 9  67613288.258 8
  21083733.869    21083736.471   -41145808.241 9  41000396.816 8
  22801483.208    22801485.091   -76876703.224 9  94136919.965 8
  21337103.456    21337105.306   -12977117.678 9 -11494068.973 8
 90  2 24  8 24 44.0800000  0  4G 3G12G19G13
  22040265.502    22040266.352   -63692017.327 9  67600595.936 8
  21089033.899    21089036.435   -41117958.693 9  41022097.742 7
  22798567.252    22798568.548   -76892028.115 9  94124978.506 9
  21340289.835    21340292.249   -12960371.774 9 -11481020.223 8
 90  2 24  8 24 59.0800000  0  4G 3G12G19G13
  22037172.627    22037174.222   -63708267.779 9  67587933.247 7
  21094358.598    21094363.518   -41089973.135 9  41043904.668 8
  22795676.122    22795678.026   -76907220.713 9  94113140.119 9
  21343481.697    21343482.401   -12943605.232 9 -11467955.395 8
 90  2 24  8 25 14.0800000  0  4G 3G12G19G13
  22034087.651    22034089.045   -63724480.181 9  67575300.214 8
  21099710.418    21099713.092   -41061851.774 9  41065817.413 8
  22792811.408    22792813.600   -76922280.936 9  94101404.883 9
  21346675.001    21346677.633   -12926818.059 9 -11454874.479 8
 90  2 24  8 25 29.0800000  0  4G 3G12G19G13
  22031009.371    22031011.810   -63740654.652 9  67562696.738 9
  21105087.362    21105092.375   -41033594.773 9  41087835.850 8
  22789969.377    22789970.782   -76937208.871 9  94089772.712 8
  21349872.833    21349875.376   -12910010.247 8 -11441777.506 8
 90  2 24  8 25 44.0800000  0  4G 3G12G19G13
  22027938.389    22027940.542   -63756791.358 9  67550122.691 8
  21110490.784    21110492.807   -41005202.503 9  41109959.679 7
  22787152.410    22787156.020   -76952004.413 9  94078243.726 8
  21353075.609    21353078.041   -12893182.070 9 -11428664.647 8
 90  2 24  8 25 59.0800000  0  4G 3G12G19G13
  22024876.108    22024878.275   -63772890.181 9  67537578.149 8
  21115919.026    21115922.393   -40976675.266 9  41132188.688 7
  22784362.608    22784365.334   -76966667.389 9  94066818.043 9
  21356281.355    21356283.945   -12876333.624 9 -11415536.004 8
 90  2 24  8 26 14.0800000  0  4G 3G12G19G13
  22021819.978    22021821.373   -63788951.573 9  67525062.807 7
  21121373.303    21121376.163   -40948013.280 9  41154522.686 8
  22781597.853    22781600.474   -76981197.493 9  94055495.878 8
  21359492.015    21359495.017   -12859464.954 9 -11402391.597 8
 90  2 24  8 26 29.0800000  0  4G 3G12G19G13
  22018769.115    22018772.257   -63804975.337 9  67512576.755 8
  21126853.108    21126854.607   -40919216.815 9  41176961.484 7
  22778856.625    22778861.794   -76995594.664 9  94044277.310 9
  21362705.434    21362708.510   -12842576.215 8 -11389231.545 8
 90  2 24  8 26 44.0800000  0  4G 3G12G19G13
  22015727.010    22015729.649   -63820961.634 9  67500119.914 8
  21132357.895    21132362.399   -40890286.198 9  41199504.806 8
  22776144.737    22776146.607   -77009859.205 8  94033162.098 8
  21365922.799    21365926.390   -12825667.393 9 -11376055.844 9
 90  2 24  8 26 59.0800000  0  4G 3G12G19G13
  22012692.345    22012694.370   -63836910.584 9  67487692.182 8
  21137889.321    21137891.479   -40861221.751 9  41222152.423 8
  22773455.011    22773457.477   -77023990.721 9  94022150.532 9
  21369144.657    21369147.826   -12808738.705 9 -11362864.680 8
 90  2 24  8 27 14.0800000  0  4G 3G12G19G13
  22009663.117    22009666.972   -63852822.283 8  67475293.448 9
  21143444.865    21143448.081   -40832023.873 9  41244904.008 8
  22770791.559    22770793.462   -77037989.079 9  94011242.715 8
  21372370.006    21372372.439   -12791790.214 9 -11349658.060 8
 90  2 24  8 27 29.0800000  0  4G 3G12G19G13
  22006642.676    22006644.814   -63868696.871 9  67462923.654 8
  21149026.293    21149029.917   -40802692.797 9  41267759.396 8
  22768151.688    22768154.686   -77051854.411 9  94000438.566 9
  21375599.358    21375600.049   -12774822.051 9 -11336436.125 8
 90  2 24  8 27 44.0800000  0  4G 3G12G19G13
  22003629.417    22003631.211   -63884534.301 9  67450582.824 8
  21154634.100    21154637.131   -40773228.769 9  41290718.366 8
  22765539.605    22765540.711   -77065586.544 9  93989738.219 8
  21378831.837    21378834.225   -12757834.462 9 -11323199.052 8
 90  2 24  8 27 59.0800000  0  4G 3G12G19G13
  22000624.113    22000624.666   -63900334.705 9  67438270.820 9
  21160266.461    21160268.901   -40743632.070 9  41313780.715 8
  22762951.550    22762953.079   -77079185.546 8  93979141.586 8
  21382067.349    21382070.317   -12740827.352 9 -11309946.757 8
 90  2 24  8 28 14.0800000  0  4G 3G12G19G13
  21997624.793    21997626.073   -63916098.264 9  67425987.540 9
  21165923.400    21165925.351   -40713903.009 9  41336946.210 7
  22760387.591    22760390.430   -77092651.205 9  93968648.866 8
  21385308.186    21385310.899   -12723800.852 9 -11296679.364 8
 90  2 24  8 28 29.0800000  0  4G 3G12G19G13
  21994632.025    21994633.204   -63931825.040 9  67413732.923 8
  21171605.967    21171606.945   -40684041.892 9  41360214.593 8
  22757851.660    22757853.569   -77105983.496 8  93958260.095 8
  21388550.907    21388554.316   -12706755.072 9 -11283396.955 8
 90  2 24  8 28 44.0800000  0  4G 3G12G19G13
  21991646.326    21991646.704   -63947515.221 9  67401506.822 8
  21177313.079    21177316.176   -40654048.968 9  41383585.687 8
  22755341.973    22755340.470   -77119182.323 9  93947975.280 9
  21391798.480    21391801.598   -12689690.182 9 -11270099.637 8
 90  2 24  8 28 59.0800000  0  4G 3G12G19G13
  21988665.694    21988667.789   -63963168.706 9  67389309.302 9
  21183045.843    21183048.203   -40623924.600 9  41407059.223 8
  22752855.665    22752855.065   -77132247.500 9  93937794.619 8
  21395050.083    21395051.699   -12672606.073 9 -11256787.355 8
 90  2 24  8 29 14.0800000  0  4G 3G12G19G13
  21985694.102    21985695.656   -63978785.679 9  67377140.236 8
  21188802.824    21188805.390   -40593669.041 9  41430634.965 7
  22750393.969    22750395.684   -77145179.099 8  93927718.029 8
  21398304.903    21398306.807   -12655503.166 9 -11243460.412 8
 90  2 24  8 29 29.0800000  0  4G 3G12G19G13
  21982729.610    21982732.506   -63994366.237 9  67364999.566 9
  21194585.625    21194587.634   -40563282.611 9  41454312.693 8
  22747959.420    22747961.156   -77157977.049 9  93917745.595 8
  21401562.820    21401564.603   -12638381.155 9 -11230118.590 8
 90  2 24  8 29 44.0800000  0  4G 3G12G19G13
  21979770.327    21979773.523   -64009910.585 9  67352887.098 8
  21200392.123    21200396.041   -40532765.564 9  41478092.206 8
  22745548.350    22745550.103   -77170641.178 9  93907877.449 9
  21404824.568    21404826.621   -12621240.129 9 -11216761.952 8
 90  2 24  8 29 59.0800000  0  4G 3G12G19G13
  21976821.201    21976821.583   -64025418.724 9  67340802.838 9
  21206224.928    21206228.589   -40502118.207 9  41501973.256 8
  22743163.527    22743167.253   -77183171.670 9  93898113.435 9
  21408090.098    21408092.673   -12604080.492 9 -11203390.815 9
 90  2 24  8 30 14.0800000  0  4G 3G12G19G13
  21973877.486    21973878.007   -64040890.689 8  67328746.768 9
  21212080.722    21212083.609   -40471340.956 9  41525955.516 8
  22740805.531    22740807.938   -77195568.382 9  93888453.657 8
  21411358.771    21411361.501   -12586902.291 9 -11190005.205 8
 90  2 24  8 30 29.0800000  0  4G 3G12G19G13
  21970940.495    21970940.859   -64056326.775 9  67316718.661 8
  21217962.294    21217965.303   -40440434.031 9  41550038.812 8
  22738472.764    22738473.979   -77207830.983 9  93878898.380 8
  21414631.749    21414633.759   -12569705.567 9 -11176605.164 8
 90  2 24  8 30 44.0800000  0  4G 3G12G19G13
  21968009.686    21968009.578   -64071726.714 9  67304718.709 8
  21223869.092    21223871.026   -40409397.587 9  41574223.052 7
  22736163.280    22736166.421   -77219959.686 9  93869447.434 8
  21417907.312    21417909.692   -12552490.528 9 -11163190.852 8
 90  2 24  8 30 59.0800000  0  4G 3G12G19G13
  21965084.887    21965087.197   -64087090.891 9  67292746.624 8
  21229799.063    21229801.143   -40378232.055 9  41598507.868 8
  22733881.622    22733882.419   -77231954.449 9  93860100.869 8
  21421186.271    21421189.781   -12535257.118 9 -11149762.236 8
 90  2 24  8 31 14.0800000  0  4G 3G12G19G13
  21962167.900    21962170.183   -64102419.402 9  67280802.330 8
  21235754.605    21235757.136   -40346937.922 9  41622892.905 8
  22731625.032    22731625.241   -77243814.979 9  93850858.894 8
  21424468.910    21424472.195   -12518005.387 9 -11136319.333 8
 90  2 24  8 31 29.0800000  0  4G 3G12G19G13
  21959257.068    21959260.880   -64117712.241 8  67268885.846 9
  21241734.187    21241736.968   -40315515.353 9  41647378.003 7
  22729391.357    22729394.709   -77255541.327 8  93841721.485 8
  21427755.617    21427758.351   -12500735.723 8 -11122862.449 8
 90  2 24  8 31 44.0800000  0  4G 3G12G19G13
  21956354.933    21956355.970   -64132969.425 9  67256997.146 9
  21247736.952    21247741.089   -40283964.570 9  41671963.021 8
  22727184.912    22727189.083   -77267133.366 8  93832688.737 8
  21431045.619    21431047.657   -12483448.109 9 -11109391.589 8
 90  2 24  8 31 59.0800000  0  4G 3G12G19G13
  21953458.009    21953460.047   -64148191.267 9  67245135.988 8
  21253766.077    21253769.131   -40252285.998 9  41696647.606 8
  22725004.694    22725008.496   -77278591.449 9  93823760.361 9
  21434338.442    21434340.828   -12466142.578 9 -11095906.768 8
 90  2 24  8 32 14.0800000  0  4G 3G12G19G13
  21950566.952    21950569.763   -64163377.590 9  67233302.492 7
  21259818.579    21259821.303   -40220480.024 9  41721431.489 8
  22722849.132    22722854.025   -77289915.124 8  93814936.726 9
  21437634.794    21437637.635   -12448819.099 9 -11082407.968 8
 90  2 24  8 32 29.0800000  0  4G 3G12G19G13
  21947683.935    21947686.073   -64178528.676 9  67221496.451 9
  21265895.650    21265897.522   -40188546.943 9  41746314.380 7
  22720720.757    22720724.245   -77301104.400 8  93806217.817 9
  21440935.524    21440937.988   -12431477.816 9 -11068895.277 8
 90  2 24  8 32 44.0800000  0  4G 3G12G19G13
  21944808.532    21944810.785   -64193644.422 9  67209717.943 8
  21271995.249    21271998.475   -40156487.053 9  41771296.107 8
  22718618.624    22718622.055   -77312159.240 9  93797603.657 9
  21444239.055    21444240.443   -12414118.897 9 -11055368.836 8
 90  2 24  8 32 59.0800000  0  4G 3G12G19G13
  21941938.565    21941939.860   -64208725.289 8  67197966.634 8
  21278121.186    21278123.073   -40124300.590 9  41796376.457 7
  22716540.630    22716543.791   -77323079.591 9  93789094.305 9
  21447545.340    21447548.124   -12396742.429 9 -11041828.742 8
 90  2 24  8 33 14.0800000  0  4G 3G12G19G13
  21939075.210    21939075.817   -64223771.016 9  67186242.695 8
  21284270.118    21284273.290   -40091987.998 9  41821555.091 8
  22714487.074    22714490.912   -77333865.648 9  93780689.585 8
  21450855.347    21450857.670   -12379348.544 9 -11028275.070 7
 90  2 24  8 33 29.0800000  0  4G 3G12G19G13
  21936218.809    21936220.146   -64238781.809 9  67174545.980 9
  21290443.353    21290445.196   -40059549.450 9  41846831.868 7
  22712460.132    22712462.855   -77344517.293 9  93772389.590 9
  21454168.387    21454170.871   -12361937.226 9 -11014707.800 8
 90  2 24  8 33 44.0800000  0  4G 3G12G19G13
  21933369.018    21933370.412   -64253757.704 9  67162876.454 8
  21296639.146    21296643.773   -40026985.316 9  41872206.497 8
  22710458.797    22710461.378   -77355034.388 8  93764194.460 8
  21457485.392    21457487.878   -12344508.642 9 -11001127.106 7
 90  2 24  8 33 59.0800000  0  4G 3G12G19G13
  21930526.269    21930527.563   -64268698.994 8  67151233.903 8
  21302860.210    21302862.454   -39994295.960 9  41897678.714 7
  22708484.248    22708486.877   -77365416.695 9  93756104.346 8
  21460805.108    21460808.516   -12327062.744 9 -10987532.906 8
 90  2 24  8 34 14.0800000  0  4G 3G12G19G13
  21927688.212    21927690.294   -64283605.495 9  67139618.453 8
  21309104.077    21309107.537   -39961481.763 9  41923248.209 8
  22706534.579    22706535.387   -77375664.372 9  93748119.144 9
  21464126.882    21464131.103   -12309599.599 9 -10973925.273 8
 90  2 24  8 34 29.0800000  0  4G 3G12G19G13
  21924859.341    21924860.522   -64298477.333 8  67128030.020 9
  21315373.504    21315374.432   -39928543.015 9  41948914.751 8
  22704609.879    22704611.085   -77385777.261 9  93740238.963 8
  21467454.456    21467456.048   -12292119.343 9 -10960304.310 8
 90  2 24  8 34 44.0800000  0  4G 3G12G19G13
  21922036.480    21922037.460   -64313314.859 9  67116468.308 8
  21321665.284    21321666.662   -39895480.087 9  41974678.061 8
  22702710.397    22702712.337   -77395755.597 9  93732463.631 8
  21470783.816    21470785.360   -12274622.202 9 -10946670.172 8
 90  2 24  8 34 59.0800000  0  4G 3G12G19G13
  21919219.573    21919220.510   -64328117.907 9  67104933.473 8
  21327980.067    21327982.084   -39862293.233 9  42000537.937 7
  22700836.733    22700839.213   -77405599.234 9  93724793.272 8
  21474116.583    21474119.533   -12257108.115 9 -10933022.831 8
 90  2 24  8 35 14.0800000  0  4G 3G12G19G13
  21916408.303    21916409.126   -64342886.723 9  67093425.312 8
  21334318.351    21334319.444   -39828982.828 9  42026494.088 7
  22698991.519    22698992.424   -77415307.923 9  93717228.070 8
  21477452.321    21477455.119   -12239577.064 9 -10919362.280 8
 90  2 24  8 35 29.0800000  0  4G 3G12G19G13
  21913603.901    21913606.598   -64357621.248 9  67081943.856 8
  21340680.982    21340683.450   -39795549.289 9  42052546.187 8
  22697168.938    22697168.495   -77424881.687 9  93709767.979 8
  21480791.588    21480794.562   -12222029.387 9 -10905688.780 8
 90  2 24  8 35 44.0800000  0  4G 3G12G19G13
  21910806.368    21910808.537   -64372321.703 9  67070488.984 9
  21347066.438    21347067.380   -39761992.868 9  42078694.035 7
  22695372.387    22695371.972   -77434320.765 9  93702412.856 9
  21484134.040    21484136.630   -12204465.082 8 -10892002.308 8
 90  2 24  8 35 59.0800000  0  4G 3G12G19G13
  21908015.648    21908017.857   -64386988.090 9  67059060.631 9
  21353474.323    21353477.755   -39728313.856 9  42104937.411 8
  22693602.093    22693603.327   -77443624.906 9  93695162.886 8
  21487479.218    21487482.102   -12186884.116 9 -10878302.856 8
 90  2 24  8 36 14.0800000  0  4G 3G12G19G13
  21905231.994    21905232.888   -64401620.454 9  67047658.802 8
  21359906.583    21359908.390   -39694512.673 9  42131275.977 8
  22691856.428    22691859.631   -77452794.172 9  93688017.995 8
  21490827.892    21490830.864   -12169286.886 9 -10864590.736 8
 90  2 24  8 36 29.0800000  0  4G 3G12G19G13
  21902453.206    21902455.574   -64416219.120 9  67036283.214 7
  21366362.304    21366364.020   -39660589.631 9  42157709.510 7
  22690137.821    22690139.733   -77461828.442 8  93680978.307 9
  21494180.263    21494183.489   -12151673.419 9 -10850865.963 8
 90  2 24  8 36 44.0800000  0  4G 3G12G19G13
  21899682.059    21899683.639   -64430783.973 8  67024933.994 8
  21372841.133    21372841.718   -39626544.891 9  42184237.878 7
  22688442.177    22688445.749   -77470727.774 9  93674043.757 8
  21497535.143    21497538.672   -12134043.725 9 -10837128.552 8
 90  2 24  8 36 59.0800000  0  4G 3G12G19G13
  21896916.893    21896917.415   -64445315.038 9  67013611.074 8
  21379342.893    21379345.031   -39592378.798 9  42210860.783 7
  22686773.970    22686778.726   -77479492.206 9  93667214.330 9
  21500893.928    21500895.122   -12116397.651 9 -10823378.371 8
 90  2 24  8 37 14.0800000  0  4G 3G12G19G13
  21894159.167    21894160.548   -64459812.612 9  67002314.281 8
  21385866.303    21385870.084   -39558091.720 9  42237577.975 8
  22685131.516    22685136.854   -77488121.676 9  93660490.082 8
  21504254.835    21504256.148   -12098735.273 9 -10809615.478 8
 90  2 24  8 37 29.0800000  0  4G 3G12G19G13
  21891406.280    21891407.431   -64474276.666 9  66991043.595 8
  21392414.246    21392417.163   -39523684.037 9  42264389.148 7
  22683515.778    22683519.607   -77496616.179 9  93653871.000 9
  21507618.525    21507620.068   -12081056.833 9 -10795840.082 8
 90  2 24  8 37 44.0800000  0  4G 3G12G19G13
  21888659.145    21888661.695   -64488707.179 9  66979799.028 8
  21398985.056    21398989.038   -39489156.152 9  42291293.994 8
  22681926.792    22681929.400   -77504975.633 8  93647357.143 8
  21510985.722    21510987.741   -12063362.362 9 -10782052.171 9
 90  2 24  8 37 59.0800000  0  4G 3G12G19G13
  21885919.906    21885922.374   -64503104.360 9  66968580.464 9
  21405578.000    21405580.431   -39454508.337 9  42318292.271 7
  22680361.421    22680363.888   -77513199.959 9  93640948.564 8
  21514354.175    21514358.534   -12045652.177 9 -10768252.041 8
 90  2 24  8 38 14.0800000  0  4G 3G12G19G13
  21883185.791    21883188.302   -64517468.332 9  66957387.773 8
  21412194.513    21412197.994   -39419741.026 9  42345383.667 8
  22678822.780    22678825.675   -77521289.324 9  93634645.151 8
  21517727.845    21517731.718   -12027925.974 8 -10754439.420 8
 90  2 24  8 38 29.0800000  0  4G 3G12G19G13
  21880458.745    21880461.657   -64531799.118 9  66946220.925 8
  21418833.377    21418836.150   -39384854.589 9  42372567.896 7
  22677308.689    22677311.901   -77529243.720 9  93628446.937 9
  21521104.689    21521107.262   -12010184.028 9 -10740614.533 8
 90  2 24  8 38 44.0800000  0  4G 3G12G19G13
  21877738.595    21877739.834   -64546096.880 9  66935079.815 9
  21425493.641    21425497.794   -39349849.357 9  42399844.684 8
  22675820.286    22675823.472   -77537063.179 9  93622353.849 8
  21524483.558    21524486.961   -11992426.116 9 -10726777.203 8
